[[{"header":{"parameterUnit":"m.s-1","parameterCategory":1,"la1":30.6,"la2":29.2853,"lo1":-89.7004,"lo2":-87.6739,"dy":0.0162,"dx":0.0183,"nx":112,"ny":82,"refTime":"2024-09-18T06:00:00:Z","depth":0,"parameterNumber":2,"parameterNumberName":"U-component_of_WINDS"},"data":[0.0,0.0,0.0,0.0,0.0,0.0,0.0,0.0,0.0,0.0,0.0,0.0,0.0,0.0,0.0,0.0,0.0,0.0,0.0,0.0,0.0,0.0,0.0,0.0,0.0,0.0,0.0,0.0,0.0,0.0,0.0,0.0,0.0,0.0,0.0,0.0,0.0,0.0,0.0,0.0,0.0,0.0,0.0,0.0,0.0,0.0,0.0,0.0,0.0,0.0,0.0,0.0,0.0,0.0,0.0,0.0,0.0,0.0,0.0,0.0,0.0,0.0,0.0,0.0,0.0,0.0,0.0,0.0,0.0,0.0,0.0,0.0,0.0,0.0,0.0,0.0,0.0,0.0,0.0,0.0,0.0,0.0,0.0,0.0,0.0,0.0,0.0,0.0,0.0,0.0,0.3022,0.3165,0.3059,0.3153,0.3569,0.3139,0.2779,0.2649,0.0,0.0,0.0,0.0,0.0,0.0,0.0,0.0,0.0,0.0,0.0,0.0,0.0,0.0,0.0,0.0,0.0,0.0,0.0,0.0,0.0,0.0,0.0,0.0,0.0,0.0,0.0,0.0,0.0,0.0,0.0,0.0,0.0,0.0,0.0,0.0,0.0,0.0,0.0,0.0,0.0,0.0,0.0,0.0,0.0,0.0,0.0,0.0,0.0,0.0,0.0,0.0,0.0,0.0,0.0,0.0,0.0,0.0,0.0,0.0,0.0,0.0,0.0,0.0,0.0,0.0,0.0,0.0,0.0,0.0,0.0,0.0,0.0,0.0,0.0,0.0,0.0,0.0,0.0,0.0,0.0,0.0,0.0,0.0,0.0,0.0,0.0,0.0,0.0,0.0,0.0,0.0,0.0,0.0,0.0,0.0,0.0,0.0,0.0,0.0,0.0,0.0,0.0,0.0,0.3436,0.3956,0.4147,0.4056,0.3641,0.3514,0.3292,0.2882,0.0,0.0,0.0,0.0,0.0,0.0,0.0,0.0,0.0,0.0,0.0,0.0,0.0,0.0,0.0,0.0,0.0,0.0,0.0,0.0,0.0,0.0,0.0,0.0,0.0,0.0,0.0,0.0,0.0,0.0,0.0,0.0,0.0,0.0,0.0,0.0,0.0,0.0,0.0,0.0,0.0,0.0,0.0,0.0,0.0,0.0,0.0,0.0,0.0,0.0,0.0,0.0,0.0,0.0,0.0,0.0,0.0,0.0,0.0,0.0,0.0,0.0,0.0,0.0,0.0,0.0,0.0,0.0,0.0,0.0,0.0,0.0,0.0,0.0,0.0,0.0,0.0,0.0,0.0,0.0,0.0,0.0,0.0,0.0,0.0,0.0,0.0,0.0,0.0,0.0,0.0,0.0,0.0,0.0,0.0,0.0,0.0,0.0,0.0,0.0,0.0,0.0,0.0,0.344,0.3694,0.4297,0.445,0.4391,0.4111,0.4087,0.389,0.3412,0.3042,0.0,0.0,0.0,0.0,0.0,0.0,0.0,0.0,0.0,0.0,0.0,0.0,0.0,0.0,0.0,0.0,0.0,0.0,0.0,0.0,0.0,0.0,0.0,0.0,0.0,0.0,0.0,0.0,0.0,0.0,0.0,0.0,0.0,0.0,0.0,0.0,0.0,0.0,0.0,0.0,0.0,0.0,0.0,0.0,0.0,0.0,0.0,0.0,0.0,0.0,0.0,0.0,0.0,0.0,0.0,0.0,0.0,0.0,0.0,0.0,0.0,0.0,0.0,0.0,0.0,0.0,0.0,0.0,0.0,0.0,0.0,0.0,0.0,0.0,0.0,0.0,0.0,0.0,0.0,0.0,0.0,0.0,0.0,0.0,0.0,0.0,0.0,0.0,0.0,0.0,0.0,0.0,0.0,0.0,0.0,0.0,0.0,0.0,0.0,0.0,0.0,0.0,0.3649,0.3936,0.4453,0.4505,0.4505,0.4505,0.4426,0.422,0.3824,0.3425,0.0,0.0,0.0,0.0,0.0,0.0,0.0,0.0,0.0,0.0,0.0,0.0,0.0,0.0,0.0,0.0,0.0,0.0,0.0,0.0,0.0,0.0,0.0,0.0,0.0,0.0,0.0,0.0,0.0,0.0,0.0,0.0,0.0,0.0,0.0,0.0,0.0,0.0,0.0,0.0,0.0,0.0,0.0,0.0,0.0,0.0,0.0,0.0,0.0,0.0,0.0,0.0,0.0,0.0,0.0,0.0,0.0,0.0,0.0,0.0,0.0,0.0,0.0,0.0,0.0,0.0,0.0,0.0,0.0,0.0,0.0,0.0,0.0,0.0,0.0,0.0,0.0,0.0,0.0,0.0,0.0,0.0,0.0,0.0,0.0,0.0,0.0,0.0,0.0,0.0,0.0,0.0,0.0,0.0,0.0,0.0,0.0,0.0,0.0,0.0,0.0,0.0,0.3808,0.424,0.447,0.4505,0.4505,0.4505,0.4209,0.3974,0.3814,0.3248,0.0,0.0,0.0,0.0,0.0,0.0,0.0,0.0,0.0,0.0,0.0,0.0,0.0,0.0,0.0,0.0,0.0,0.0,0.0,0.0,0.0,0.0,0.0,0.0,0.0,0.0,0.0,0.0,0.0,0.0,0.0,0.0,0.0,0.0,0.0,0.0,0.0,0.0,0.0,0.0,0.0,0.0,0.0,0.0,0.0,0.0,0.0,0.0,0.0,0.0,0.0,0.0,0.0,0.0,0.0,0.0,0.0,0.0,0.0,0.0,0.0,0.0,0.0,0.0,0.0,0.0,0.0,0.0,0.0,0.0,0.0,0.0,0.0,0.0,0.0,0.0,0.0,0.0,0.0,0.0,0.0,0.0,0.0,0.0,0.0,0.0,0.0,0.0,0.0,0.0,0.0,0.0,0.0,0.0,0.0,0.0,0.0,0.0,0.0,0.0,0.0,0.0,0.2816,0.2968,0.3336,0.3375,0.3375,0.3375,0.3257,0.3181,0.318,0.0,0.0,0.0,0.0,0.0,0.0,0.0,0.0,0.0,0.0,0.0,0.0,0.0,0.0,0.0,0.0,0.0,0.0,0.0,0.0,0.0,0.0,0.0,0.0,0.0,0.0,0.0,0.0,0.0,0.0,0.0,0.0,0.0,0.0,0.0,0.0,0.0,0.0,0.0,0.0,0.0,0.0,0.0,0.0,0.0,0.0,0.0,0.0,0.0,0.0,0.0,0.0,0.0,0.0,0.0,0.0,0.0,0.0,0.0,0.0,0.0,0.0,0.0,0.0,0.0,0.0,0.0,0.0,0.0,0.0,0.0,0.0,0.0,0.0,0.0,0.0,0.0,0.0,0.0,0.0,0.0,0.0,0.0,0.0,0.0,0.0,0.0,0.0,0.0,0.0,0.0,0.0,0.0,0.0,0.0,0.0,0.0,0.0,0.0,0.0,0.0,0.0,0.2487,0.2366,0.2348,0.266,0.2694,0.2694,0.2694,0.26,0.2607,0.2756,0.0,0.0,0.0,0.0,0.0,0.0,0.0,0.0,0.0,0.0,0.0,0.0,0.0,0.0,0.0,0.0,0.0,0.0,0.0,0.0,0.0,0.0,0.0,0.0,0.0,0.0,0.0,0.0,0.0,0.0,0.0,0.0,0.0,0.0,0.0,0.0,0.0,0.0,0.0,0.0,0.0,0.0,0.0,0.0,0.0,0.0,0.0,0.0,0.0,0.0,0.0,0.0,0.0,0.0,0.0,0.0,0.0,0.0,0.0,0.0,0.0,0.0,0.0,0.0,0.0,0.0,0.0,0.0,0.0,0.0,0.0,0.0,0.0,0.0,0.0,0.0,0.0,0.0,0.0,0.0,0.0,0.0,0.0,0.0,0.0,0.0,0.0,0.0,0.0,0.0,0.0,0.0,0.0,0.0,0.0,0.0,0.0,0.0,0.0,0.0,0.0,0.0,0.2612,0.2677,0.2681,0.2681,0.2681,0.2681,0.2681,0.2375,0.2325,0.0,0.0,0.0,0.0,0.0,0.0,0.0,0.0,0.0,0.0,0.0,0.0,0.0,0.0,0.0,0.0,0.0,0.0,0.0,0.0,0.0,0.0,0.0,0.0,0.0,0.0,0.0,0.0,0.0,0.0,0.0,0.0,0.0,0.0,0.0,0.0,0.0,0.0,0.0,0.0,0.0,0.0,0.0,0.0,0.0,0.0,0.0,0.0,0.0,0.0,0.0,0.0,0.0,0.0,0.0,0.0,0.0,0.0,0.0,0.0,0.0,0.0,0.0,0.0,0.0,0.0,0.0,0.0,0.0,0.0,0.0,0.0,0.0,0.0,0.0,0.0,0.0,0.0,0.0,0.0,0.0,0.0,0.0,0.0,0.0,0.0,0.0,0.0,0.0,0.0,0.0,0.0,0.0,0.0,0.0,0.0,0.0,0.0,0.0,0.0,0.0,0.0,0.0,0.1671,0.1553,0.1428,0.1428,0.1428,0.1428,0.1428,0.1334,0.1425,0.1761,0.0,0.0,0.0,0.0,0.0,0.0,0.0,0.0,0.0,0.0,0.0,0.0,0.0,0.0,0.0,0.0,0.0,0.0,0.0,0.0,0.0,0.0,0.0,0.0,0.0,0.0,0.0,0.0,0.0,0.0,0.0,0.0,0.0,0.0,0.0,0.0,0.0,0.0,0.0,0.0,0.0,0.0,0.0,0.0,0.0,0.0,0.0,0.0,0.0,0.0,0.0,0.0,0.0,0.0,0.0,0.0,0.0,0.0,0.0,0.0,0.0,0.0,0.0,0.0,0.0,0.0,0.0,0.0,0.0,0.0,0.0,0.0,0.0,0.0,0.0,0.0,0.0,0.0,0.0,0.0,0.0,0.0,0.0,0.0,0.0,0.0,0.0,0.0,0.0,0.0,0.0,0.0,0.0,0.0,0.0,0.0,0.0,0.0,0.0,0.0,0.0,0.0,0.1229,0.0642,0.0364,0.0856,0.0687,0.0645,0.0884,0.0898,0.1018,0.1301,0.0,0.0,0.0,0.0,0.0,0.0,0.0,0.0,0.0,0.0,0.0,0.0,0.0,0.0,0.0,0.0,0.0,0.0,0.0,0.0,0.0,0.0,0.0,0.0,0.0,0.0,0.0,0.0,0.0,0.0,0.0,0.0,0.0,0.0,0.0,0.0,0.0,0.0,0.0,0.0,0.0,0.0,0.0,0.0,0.0,0.0,0.0,0.0,0.0,0.0,0.0,0.0,0.0,0.0,0.0,0.0,0.0,0.0,0.0,0.0,0.0,0.0,0.0,0.0,0.0,0.0,0.0,0.0,0.0,0.0,0.0,0.0,0.0,0.0,0.0,0.0,0.0,0.0,0.0,0.0,0.0,0.0,0.0,0.0,0.0,0.0,0.0,0.0,0.0,0.0,0.0,0.0,0.0,0.0,0.0,0.0,0.0,0.0,0.0,0.0,0.0,0.0,0.103,-0.0051,-0.0475,0.0616,0.0238,0.014,0.0687,0.0729,0.0834,0.1075,0.0,0.0,0.0,0.0,0.0,0.0,0.0,0.0,0.0,0.0,0.0,0.0,0.0,0.0,0.0,0.0,0.0,0.0,0.0,0.0,0.0,0.0,0.0,0.0,0.0,0.0,0.0,0.0,0.0,0.0,0.0,0.0,0.0,0.0,0.0,0.0,0.0,0.0,0.0,0.0,0.0,0.0,0.0,0.0,0.0,0.0,0.0,0.0,0.0,0.0,0.0,0.0,0.0,0.0,0.0,0.0,0.0,0.0,0.0,0.0,0.1038,0.1529,0.0,0.0,0.0,0.0,0.0,0.0,0.0,0.0,0.0,0.0,0.0,0.0,0.0,0.0,0.0,0.0,0.0,0.0,0.0,0.0,0.0,0.0,0.0,0.0,0.0,0.0,0.0,0.0,0.0,0.0,0.0,0.0,0.0,0.0,0.0,0.0,0.0,0.0,0.0,0.0,0.0088,-0.0474,-0.0797,-0.0545,-0.0629,-0.0657,-0.0531,-0.0517,-0.0297,0.0223,-0.0137,0.0,0.0,0.0,0.0,0.0,0.0,0.0,0.0,0.0,0.0,0.0,0.0,0.0,0.0,0.0,0.0,0.0,0.0,0.0,0.0,0.0,0.0,0.0,0.0,0.0,0.0,0.0,0.0,0.0,0.0,0.0,0.0,0.0,0.0,0.0,0.0,0.0,0.0,0.0,0.0,0.0,0.0,0.0,0.0,0.0,0.0,0.0,0.0,0.0,0.0,0.0,0.0,0.0,0.0,0.0,0.0,0.0,0.0,0.0,-0.0397,0.005,0.0,0.0,0.0,0.0,0.0,0.0,0.0,0.0,0.0,0.0,0.0,0.0,0.0,0.0,0.0,0.0,0.0,0.0,0.0,0.0,0.0,0.0,0.0,0.0,0.0,0.0,0.0,0.0,0.0,0.0,0.0,0.0,0.0,0.0,0.0,0.0,0.0,0.0,0.0,0.0,-0.0547,-0.1257,-0.1538,-0.0964,-0.116,-0.1215,-0.0922,-0.0894,-0.0766,-0.0454,-0.0699,0.0,0.0,0.0,0.0,0.0,0.0,0.0,0.0,0.0,0.0,0.0,0.0,0.0,0.0,0.0,0.0,0.0,0.0,0.0,0.0,0.0,0.0,0.0,0.0,0.0,0.0,0.0,0.0,0.0,0.0,0.0,0.0,0.0,0.0,0.0,0.0,0.0,0.0,0.0,0.0,0.0,0.0,0.0,0.0,0.0,0.0,0.0,0.0,0.0,0.0,0.0,0.0,0.0,-0.2066,-0.2192,-0.1874,-0.2323,-0.264,-0.2816,-0.2221,-0.1882,-0.1676,-0.072,0.0,0.0,0.0,0.0,0.0,0.0,0.0,0.0,0.0,0.0,0.0,0.0,0.0,0.0,0.0,0.0,0.0,0.0,0.0,0.0,0.0,0.0,-0.1814,-0.2152,-0.254,-0.2592,-0.1767,0.0,0.0,0.0,0.0,0.0,0.0,0.0,0.0,0.0,0.0,0.0,-0.1104,-0.205,-0.2349,-0.1364,-0.1684,-0.1778,-0.1269,-0.122,-0.1175,-0.1063,-0.1148,-0.1133,0.0,0.0,0.0,0.0,0.0,0.0,0.0,0.0,0.0,0.0,0.0,0.0,0.0,0.0,0.0,0.0,0.0,0.0,0.0,0.0,0.0,0.0,0.0,0.0,0.0,0.0,0.0,0.0,0.0,0.0,0.0,0.0,0.2487,0.2301,0.0,0.0,0.0,0.0,0.0,0.0,0.0,0.0,0.0,0.0,0.0,0.0,0.0,-0.1728,-0.2146,-0.2486,-0.2681,-0.2753,-0.3187,-0.3376,-0.3339,-0.3924,-0.4202,-0.4246,-0.4498,0.0,-0.2662,-0.1943,0.0,0.0,0.0,0.0,0.0,0.0,0.0,0.0,0.0,0.0,0.0,0.0,0.0,0.0,0.0,0.0,0.0,0.0,0.0,0.0,0.0,0.0,-0.355,-0.4231,-0.4437,-0.4598,-0.5027,-0.3074,-0.1181,-0.1051,-0.1036,-0.1007,0.0,0.0,0.0,0.0,0.0,0.0,-0.1836,-0.2406,-0.2764,-0.2728,-0.2689,-0.2632,-0.2559,-0.2492,-0.2235,-0.171,-0.2118,-0.1936,-0.0958,-0.1283,0.0,0.0,0.0,0.0,0.0,0.0,0.0,0.0,0.0,0.0,0.0,0.0,0.0,0.0,0.0,0.0,0.0,0.0,0.0,0.0,0.0,0.0,0.0,0.0,0.0,0.0,0.0,0.0,0.0,0.2042,0.1908,0.1966,0.1852,0.1762,0.0,0.0,0.0,0.0,0.0,0.0,0.0,0.0,0.0,-0.2628,-0.28,-0.3194,-0.386,-0.4133,-0.4335,-0.4462,-0.4723,-0.4836,-0.4856,-0.5579,-0.5907,-0.5942,-0.6576,-0.6474,-0.5724,-0.3779,-0.3008,-0.2996,0.0,0.0,0.0,0.0,-0.1719,-0.183,-0.2271,-0.2316,-0.2228,-0.2423,0.0,0.0,0.0,0.0,0.0,0.0,0.0,-0.3949,-0.4346,-0.473,-0.5153,-0.5824,-0.5944,-0.6002,-0.6249,-0.5084,-0.3828,-0.3285,-0.2563,-0.1996,-0.1867,-0.1815,0.0,0.0,0.0,-0.2339,-0.244,-0.2715,-0.2928,-0.2996,-0.295,-0.2912,-0.2912,-0.2817,-0.2637,-0.2377,-0.2541,-0.2435,-0.1929,-0.1771,-0.1481,0.0,0.0,0.0,0.0,0.0,0.0,0.0,0.0,0.0,0.0,0.0,0.0,0.0,0.0,0.0,0.0,0.0,0.0,0.0,0.0,0.0,0.0,0.0,0.0,0.0,0.0,0.0,0.0,0.1499,0.1312,0.1561,0.1203,0.0966,0.0,0.0,0.0,0.0,0.0,0.0,-0.2278,-0.2569,-0.31,-0.3884,-0.4119,-0.4584,-0.5326,-0.5746,-0.6045,-0.6194,-0.6562,-0.6749,-0.6767,-0.7374,-0.7647,-0.7665,-0.8272,-0.8529,-0.8348,-0.5888,-0.4885,-0.4812,-0.4032,-0.3711,-0.3662,-0.3561,-0.3512,-0.3569,-0.4213,-0.4313,-0.4175,-0.4311,-0.4179,-0.3894,-0.3461,0.0,0.0,0.0,0.0,-0.5335,-0.5994,-0.6219,-0.6448,-0.7078,-0.7202,-0.7191,-0.7311,-0.6924,-0.6266,-0.529,-0.4138,-0.3271,-0.3137,-0.2996,0.0,-0.2512,-0.285,-0.3169,-0.3272,-0.3376,-0.3386,-0.327,-0.3237,-0.3175,-0.3035,-0.2924,-0.2845,-0.2845,-0.2777,-0.2725,-0.2725,-0.2235,-0.1899,-0.1779,0.0,0.0,0.0,0.0,0.0,0.0,0.0,0.0,0.0,0.0,0.0,0.0,0.0,0.0,0.0,0.0,0.0,0.0,0.0,0.0,0.0,0.0,0.0,0.0,0.0,0.0,0.0,0.0,0.0,0.1016,0.0079,0.0,0.0,0.0,0.0,-0.2007,-0.2126,-0.2528,-0.329,-0.3697,-0.4343,-0.5266,-0.5554,-0.5776,-0.5946,-0.6972,-0.7585,-0.779,-0.8832,-0.9308,-0.9308,-0.9353,-0.9368,-0.9368,-0.9409,-0.9434,-0.9352,-0.8248,-0.7598,-0.7322,-0.733,-0.7036,-0.6619,-0.6791,-0.678,-0.6678,-0.6724,-0.672,-0.6732,-0.6865,-0.6771,-0.6612,-0.6639,-0.655,0.0,0.0,-0.6701,-0.6797,-0.6835,-0.6951,-0.7225,-0.796,-0.8128,-0.8309,-0.8945,-0.8416,-0.7436,-0.6185,-0.5417,-0.4935,-0.4801,0.0,-0.4297,-0.4268,-0.4298,-0.4385,-0.4571,-0.4614,-0.444,-0.4,-0.3897,-0.3642,-0.3131,-0.303,-0.2994,-0.2994,-0.2866,-0.279,-0.279,-0.2699,-0.2349,-0.1719,-0.1669,0.0,0.0,0.0,0.0,0.0,0.0,0.0,0.0,0.0,0.0,0.0,0.0,0.0,0.0,0.0,0.0,0.0,0.0,0.0,0.0,0.0,0.0,0.0,0.0,0.0,0.0,0.0,0.0,-0.0953,-0.1593,0.0,-0.1609,-0.2476,-0.3081,-0.3126,-0.383,-0.4417,-0.4801,-0.5116,-0.5439,-0.5775,-0.6552,-0.7045,-0.7223,-0.819,-0.8775,-0.8942,-0.9316,-0.9496,-0.9517,-1.0045,-1.0267,-1.0308,-1.0818,-1.1045,-1.1012,-1.0666,-0.9782,-0.8599,-0.8072,-0.7842,-0.7825,-0.7715,-0.7539,-0.7366,-0.7449,-0.7337,-0.7149,-0.7112,-0.7044,-0.7,-0.7028,-0.7311,-0.7672,-0.785,-0.825,-0.8668,-0.8803,-0.8861,-0.8958,-0.9221,-0.93,-0.9356,-0.959,-0.9309,-0.8791,-0.8073,-0.7093,-0.6298,-0.599,-0.6006,-0.5789,-0.4969,-0.5151,-0.5318,-0.5164,-0.5039,-0.4901,-0.4725,-0.4564,-0.4402,-0.4205,-0.3812,-0.3562,-0.3523,-0.3068,-0.2786,-0.2742,-0.2709,-0.2591,-0.235,-0.2213,-0.1825,0.0,0.0,0.0,0.0,0.0,0.0,0.0,0.0,0.0,0.0,0.0,0.0,0.0,0.0,0.0,0.0,0.0,0.0,0.0,0.0,0.0,0.0,0.0,0.0,0.0,-0.1686,-0.2372,-0.2193,-0.2848,-0.319,-0.2868,-0.3755,-0.4361,-0.4404,-0.5216,-0.586,-0.6188,-0.6529,-0.6839,-0.7106,-0.7843,-0.83,-0.8431,-0.9412,-0.9943,-1.0034,-1.0419,-1.0579,-1.06,-1.1121,-1.1374,-1.1394,-1.1934,-1.2165,-1.2159,-1.2069,-1.1401,-1.0361,-0.9608,-0.9297,-0.9267,-0.9152,-0.8897,-0.8628,-0.8705,-0.8602,-0.8395,-0.8314,-0.8291,-0.8291,-0.8291,-0.863,-0.9036,-0.9177,-0.9568,-0.997,-1.0102,-1.0139,-1.0123,-1.0043,-1.0027,-1.0005,-0.9919,-0.9798,-0.9617,-0.9353,-0.8298,-0.7315,-0.6916,-0.6928,-0.6705,-0.5862,-0.6042,-0.6187,-0.5972,-0.5821,-0.5668,-0.5493,-0.5293,-0.5104,-0.4919,-0.4431,-0.4112,-0.4076,-0.3575,-0.3259,-0.3201,-0.3028,-0.2942,-0.2942,-0.2537,-0.2132,-0.1728,0.0,0.0,0.0,0.0,0.0,0.0,0.0,0.0,0.0,0.0,0.0,0.0,0.0,0.0,0.0,0.0,0.0,0.0,0.0,0.0,0.0,0.0,0.0,-0.2026,-0.2286,-0.259,-0.2597,-0.3635,-0.4406,-0.4542,-0.5228,-0.572,-0.5846,-0.6192,-0.6713,-0.7432,-0.7894,-0.8507,-0.9296,-0.9476,-0.9547,-0.9556,-1.0611,-1.1144,-1.117,-1.2191,-1.2705,-1.2705,-1.2705,-1.2705,-1.2705,-1.2705,-1.2705,-1.2687,-1.2433,-1.2475,-1.265,-1.2117,-1.1543,-1.1064,-1.1246,-1.1018,-1.0623,-1.0618,-1.0597,-1.0597,-1.0597,-1.0597,-1.0597,-1.0597,-1.0597,-1.0597,-1.0597,-1.0597,-1.0597,-1.0597,-1.0597,-1.0559,-1.0358,-1.0304,-1.0239,-0.9978,-0.9924,-0.9919,-0.9876,-0.8936,-0.8002,-0.7611,-0.7276,-0.704,-0.7022,-0.7022,0.0,-0.7022,-0.7,-0.6817,-0.6287,-0.606,-0.5724,-0.5196,-0.4831,-0.4626,-0.462,-0.4348,-0.4199,-0.4199,-0.3699,-0.3432,-0.3432,-0.2646,-0.2168,-0.2025,0.0,0.0,0.0,0.0,0.0,0.0,0.0,0.0,0.0,0.0,0.0,0.0,0.0,0.0,0.0,0.0,0.0,0.0,0.0,0.0,0.0,-0.2786,-0.3394,-0.3206,-0.409,-0.4746,-0.4749,-0.5219,-0.5551,-0.559,-0.6471,-0.7123,-0.7316,-0.8039,-0.8601,-0.891,-0.9052,-0.9253,-0.9574,-1.0295,-1.07,-1.081,-1.1766,-1.2251,-1.2251,-1.2562,-1.2705,-1.2705,-1.2705,-1.2705,-1.2705,-1.2705,-1.2705,-1.2699,-1.2626,-1.2638,-1.2647,-1.2171,-1.1993,-1.201,-1.1847,-1.1503,-1.1065,-1.0717,-1.0597,-1.0597,-1.0597,-1.0597,-1.0597,-1.0597,-1.0597,-1.0597,-1.0597,-1.0597,-1.0597,-1.0597,-1.0597,-1.0596,-1.0537,-1.0521,-1.0499,-1.041,-1.0419,-1.0187,-0.9458,-0.9058,-0.8718,-0.8431,-0.8291,-0.8028,-0.7451,-0.7357,-0.7357,-0.7357,-0.7228,-0.7096,-0.6945,-0.6787,-0.6581,-0.6287,-0.569,-0.5247,-0.5047,-0.4504,-0.4228,-0.4271,-0.4125,-0.4047,-0.4047,-0.3304,-0.2835,0.0,0.0,0.0,0.0,0.0,0.0,0.0,0.0,0.0,0.0,0.0,0.0,0.0,0.0,0.0,0.0,0.0,0.0,0.0,0.0,0.0,0.0,-0.3787,-0.4537,-0.5167,-0.546,-0.5637,-0.5759,-0.6308,-0.6708,-0.6782,-0.7765,-0.8449,-0.8564,-0.9133,-0.9679,-1.0157,-1.0212,-1.047,-1.0942,-1.1497,-1.1854,-1.205,-1.2598,-1.2912,-1.3021,-1.2912,-1.288,-1.2852,-1.2759,-1.2705,-1.2705,-1.2705,-1.2912,-1.3245,-1.3245,-1.3485,-1.374,0.0,0.0,0.0,0.0,-1.169,-1.1413,-1.1024,-1.0892,-1.0892,-1.0892,-1.0892,-1.0892,-1.0892,-1.0892,-1.0892,-1.0892,-1.0892,-1.0892,-1.0892,-1.0892,-1.0871,-1.0784,-1.0763,-1.0736,-1.0613,-1.0835,-1.0811,-0.9897,-1.0105,0.0,-0.9048,-0.8492,-0.8036,-0.7576,-0.7503,-0.7503,-0.7503,-0.7395,-0.7334,-0.7334,-0.7175,-0.7029,-0.6928,-0.6318,0.0,0.0,0.0,-0.4834,-0.4687,-0.4672,0.0,0.0,0.0,0.0,0.0,-0.3273,0.0,0.0,-0.1572,-0.1222,0.0,0.0,0.0,0.0,0.0,0.0,0.0,0.0,0.0,0.0,0.0,0.0,0.0,0.0,0.0,0.0,-0.5086,-0.6235,-0.7446,-0.6714,-0.6126,-0.6346,-0.7232,-0.789,-0.8084,-0.906,-0.9683,-0.9707,-0.9914,-1.0396,-1.1234,-1.1428,0.0,0.0,0.0,-1.2894,-1.3141,-1.3147,-1.3262,-1.3491,-1.3367,-1.3318,-1.3312,-1.3185,-1.3132,-1.3132,-1.3132,-1.3574,-1.4269,-1.4163,-1.455,-1.5035,-1.3468,-1.272,-1.2491,-1.193,-1.1721,-1.1656,-1.1397,0.0,0.0,-1.1305,-1.1305,-1.1305,-1.1305,-1.1305,-1.1305,-1.1305,-1.1305,-1.1305,-1.1305,-1.1348,-1.1381,-1.12,-1.1209,-1.1216,-1.0966,-1.1372,-1.1563,-1.0838,-1.1453,-1.1467,-0.9473,-0.8357,-0.7697,-0.7522,-0.7503,-0.7503,-0.7503,-0.7503,-0.7503,-0.7503,-0.7346,0.0,-0.721,-0.6748,-0.6452,-0.6432,-0.6152,-0.5809,-0.5386,-0.5389,-0.5219,-0.4847,-0.4918,-0.4948,-0.4919,-0.4843,-0.4781,-0.4703,-0.3123,-0.2436,0.0,0.0,0.0,0.0,0.0,0.0,0.0,0.0,0.0,0.0,0.0,0.0,0.0,0.0,0.0,-0.5662,-0.6513,-0.7492,-0.8764,-0.8817,-0.8727,-0.8674,-0.8944,-0.9194,-0.9342,-1.0227,-1.0831,-1.0937,-1.1678,-1.2196,-1.2393,-1.2626,-1.2845,-1.3021,-1.3226,-1.3364,-1.3418,-1.3418,-1.3443,-1.3513,-1.4279,0.0,-1.4649,-1.5424,-1.5769,-1.5769,-1.5769,-1.5849,-1.5944,-1.5132,-1.4437,-1.3865,-1.3786,-1.3626,-1.333,-1.231,-1.185,-1.1656,-1.1397,-1.1305,-1.1305,-1.1305,-1.1305,-1.1305,-1.1305,-1.1305,0.0,-1.1305,-1.1305,-1.1305,-1.1305,-1.1731,-1.218,-1.2134,-1.2547,-1.2916,-1.2867,-1.2554,-1.2067,-1.137,-1.099,-1.0471,-0.9512,-0.9305,-0.8864,-0.7678,-0.7503,-0.7503,-0.7503,-0.7503,-0.7503,-0.7503,-0.7471,-0.7378,-0.7222,-0.7011,-0.682,-0.6652,-0.6587,-0.6504,-0.642,-0.6569,-0.6539,-0.6308,-0.6055,-0.5852,-0.5681,-0.5517,-0.5479,-0.5538,-0.4574,-0.4092,0.0,0.0,0.0,0.0,0.0,0.0,0.0,0.0,0.0,0.0,0.0,-0.3927,-0.4493,0.0,-0.6327,-0.7587,-0.8108,-0.8778,-1.0039,-1.0264,-1.0105,-0.9572,-0.9978,-1.0341,-1.0486,-1.1356,-1.1941,-1.2003,-1.2551,-1.2894,-1.2894,-1.3153,-1.3298,-1.3298,-1.3424,-1.3801,-1.4428,-1.4451,-1.4767,-1.541,-1.5756,-1.5958,-1.5951,-1.633,-1.6235,-1.5748,-1.5748,-1.5703,-1.5696,-1.6168,-1.6345,-1.6309,-1.6022,-1.4877,-1.3296,-1.2502,-1.2059,-1.1828,-1.157,-1.1419,-1.1305,-1.1305,-1.1305,-1.1305,-1.1305,-1.1564,-1.186,-1.186,-1.2096,-1.2353,-1.2353,-1.239,-1.2406,-1.2406,-1.2369,-1.2353,-1.2353,-1.239,-1.2301,-1.1976,-1.1784,-1.1353,-1.0238,-1.006,-0.9586,-0.8204,-0.7794,-0.7605,-0.7515,-0.7503,-0.7503,-0.7503,-0.7503,-0.7467,-0.7362,-0.7192,-0.7031,-0.6861,-0.6857,-0.6844,-0.6844,-0.6943,-0.6988,-0.6952,-0.6885,-0.6845,-0.6853,-0.6807,-0.6828,-0.6887,-0.6584,-0.6064,0.0,0.0,0.0,0.0,0.0,0.0,0.0,-0.2884,-0.3178,-0.3671,-0.4549,-0.557,-0.6682,-0.7385,-0.8213,-0.9454,-0.9657,-1.0054,-1.1243,-1.1414,-1.1199,-1.0611,-1.1052,-1.1449,-1.1563,-1.225,-1.2729,-1.2762,-1.2973,-1.3123,-1.3171,-1.3424,-1.3683,-1.3859,-1.3908,-1.4537,-1.5768,-1.5768,-1.6186,-1.7008,-1.6987,-1.6886,-1.6696,-1.6877,-1.6506,-1.5751,-1.5946,-1.5849,-1.5708,-1.7276,-1.8225,-1.8606,-1.7808,-1.5876,-1.3486,-1.2958,-1.2559,-1.2273,-1.2072,-1.1941,-1.187,-1.187,-1.187,-1.1859,-1.182,-1.2208,-1.2642,-1.2439,-1.279,-1.32,-1.32,-1.279,-1.247,-1.2726,-1.232,-1.1946,-1.2075,-1.2454,-1.2784,-1.2784,-1.296,-1.2675,-1.1441,-1.0968,-1.0232,-0.8638,-0.8245,-0.805,-0.7894,-0.8024,-0.814,-0.814,-0.797,-0.7783,-0.758,-0.7374,-0.7212,-0.7102,-0.7126,-0.7147,-0.7147,-0.718,-0.7247,-0.7359,-0.7516,-0.7678,-0.7829,-0.7983,-0.8065,-0.8069,-0.826,-0.7731,-0.0913,-0.1153,-0.2027,-0.3347,-0.3366,-0.3437,0.0,-0.4905,-0.5078,-0.6577,-0.7236,-0.7816,-0.8781,-0.9122,-0.963,-1.0719,-1.0906,-1.1269,-1.236,-1.2529,-1.2778,-1.3442,-1.2926,-1.252,-1.2528,-1.2641,-1.2807,-1.3039,-1.3081,-1.3202,-1.3437,-1.3719,-1.4269,-1.5157,-1.5431,-1.6041,-1.7082,-1.7098,-1.6722,-1.5988,-1.6839,-1.6795,-1.5981,-1.7741,-1.8485,-1.8417,-1.9331,-1.9187,-1.8371,-1.8585,-1.7972,-1.6868,-1.6498,-1.5876,-1.5051,-1.4353,-1.3803,-1.3382,-1.3112,-1.3438,-1.3953,-1.3953,-1.3953,-1.3909,-1.3683,-1.3658,-1.3542,-1.2642,-1.2448,-1.2513,-1.2513,-1.247,-1.2699,-1.3886,-1.4118,-1.423,-1.481,-1.4552,-1.4181,-1.4181,-1.3724,-1.3294,-1.3135,-1.255,-1.118,-0.8464,-0.8731,-0.9205,-0.9181,-0.9918,-1.0439,-1.0439,-0.9676,-0.881,-0.7839,-0.7581,-0.7462,-0.7446,-0.7616,-0.771,-0.771,-0.7833,-0.7906,-0.7902,-0.7943,-0.7963,-0.7983,-0.817,-0.826,-0.8264,-0.8472,-0.8391,-0.3141,-0.3597,-0.4313,-0.5804,-0.6201,-0.6437,-0.7276,-0.7365,-0.7513,-0.8338,-0.8739,-0.9242,-1.0177,-1.0466,-1.0868,-1.188,-1.2024,-1.2355,-1.3311,-1.3457,-1.3547,-1.3794,-1.3613,-1.3457,-1.3457,-1.3457,-1.3371,-1.3125,-1.426,-1.487,-1.463,-1.5411,-1.6078,-1.649,-1.6617,-1.6875,-1.7296,-1.7878,-1.7948,-1.7553,-1.858,-1.8842,-1.8442,-1.9278,-1.9355,-1.8788,-1.8626,-1.865,-1.8788,-1.8788,-1.8773,-1.8727,-1.8317,-1.7682,-1.6801,-1.5278,-1.4504,-1.4212,-1.4122,-1.4183,-1.4222,-1.3794,-1.3664,-1.3549,-1.3032,-1.3114,-1.3343,-1.2939,-1.3406,-1.4038,-1.4038,-1.4088,-1.4246,-1.4592,-1.4386,-1.4125,-1.4214,-1.4026,-1.3935,-1.4314,-1.3533,-1.2982,-1.3485,-1.2116,-1.0592,-0.9505,-0.9898,-1.01,-0.9486,-0.9751,-0.9771,-0.9227,-0.8823,-0.8409,-0.7955,-0.7833,-0.7789,-0.7789,-0.7866,-0.7906,-0.7906,-0.7975,-0.8065,-0.8174,-0.8174,-0.8227,-0.8358,-0.8435,-0.8525,-0.8601,-0.8678,-0.8731,-0.4897,-0.5496,-0.5989,-0.7567,-0.8312,-0.8697,-0.8886,-0.9066,-0.9306,-0.9717,-0.9976,-1.0435,-1.1378,-1.1613,-1.1907,-1.2598,-1.289,-1.3209,-1.3584,-1.3975,-1.4207,-1.4166,-1.42,-1.4365,-1.4699,-1.4294,-1.3989,-1.3975,-1.5431,-1.6194,-1.5943,-1.68,-1.7436,-1.7692,-1.7716,-1.7855,-1.811,-1.8857,-1.9072,-1.8819,-1.9538,-1.9752,-1.9469,-1.9637,-1.9363,-1.875,-1.8033,-1.8126,-1.8804,-1.8804,-1.9157,-1.9669,-1.9325,-1.8642,-1.7694,-1.62,-1.5472,-1.5177,-1.4904,-1.4829,-1.4731,-1.4205,-1.4028,-1.3941,-1.3553,-1.3764,-1.4093,-1.3814,-1.4466,-1.5265,-1.5265,-1.5183,-1.5128,-1.529,-1.4805,-1.4272,-1.4127,-1.4089,-1.4211,-1.4608,-1.3893,-1.34,-1.3992,-1.2537,-1.1338,-1.1429,-1.1669,-1.1286,-0.9726,-0.9768,-0.9566,-0.8618,-0.8488,-0.8354,-0.811,-0.8024,-0.7991,-0.7991,-0.8061,-0.8089,-0.8089,-0.8138,-0.8227,-0.8387,-0.8387,-0.8476,-0.8659,-0.8659,-0.8727,-0.8874,-0.8874,-0.8995,-0.549,-0.5978,-0.6291,-0.796,-0.8831,-0.9282,-0.9291,-0.9482,-0.9937,-1.0856,-1.1165,-1.1553,-1.2473,-1.2656,-1.2662,-1.2705,-1.3415,-1.3669,-1.2848,-1.3918,-1.4927,-1.5301,-1.502,-1.5251,-1.6503,-1.5039,-1.4617,-1.6082,-1.6272,-1.6579,-1.7198,-1.7289,-1.7762,-1.8719,-1.8742,-1.9209,-2.0201,-2.0246,-1.9752,-1.8788,-1.8842,-1.8326,-1.7413,-1.7932,-1.8411,-1.8804,-1.8781,-1.8781,-1.8804,-1.8804,-1.855,-1.8179,-1.8156,-1.78,-1.7326,-1.7257,-1.6953,-1.6412,-1.5436,-1.5548,-1.6139,-1.6116,-1.6116,-1.6179,-1.6633,-1.6767,-1.6588,-1.5607,-1.5368,-1.539,-1.539,-1.4863,-1.467,-1.6036,-1.5843,-1.5434,-1.5749,-1.5813,-1.5718,-1.5426,-1.5347,-1.5264,-1.509,-1.4783,-1.4482,-1.4307,-1.4125,-1.3012,-1.0248,-1.0675,-1.0875,-0.9944,-0.9722,-0.9288,-0.8365,-0.8117,-0.7991,-0.7991,-0.8182,-0.828,-0.828,-0.8476,-0.8574,-0.8582,-0.8582,-0.8663,-0.8789,-0.8789,-0.8886,-0.9088,-0.9088,-0.9205,-0.7421,-0.8246,-0.8903,-1.0366,-1.1019,-1.1345,-1.1509,-1.1637,-1.1732,-1.1865,-1.1936,-1.2016,-1.2134,-1.2602,-1.3046,-1.3322,-1.3527,-1.4062,-1.519,-1.546,-1.5645,-1.5961,-1.6278,-1.6451,-1.6429,-1.6047,-1.593,-1.6272,-1.75,-1.8234,-1.8288,-1.8934,-1.9446,-1.9774,-1.9797,-1.9637,-1.9309,-1.9965,-1.9797,-1.8819,-1.9469,-1.9606,-1.9309,-1.9469,-1.9646,-1.9791,-1.9791,-1.9623,-1.9325,-1.9325,-1.9027,-1.8527,-1.8226,-1.7994,-1.7776,-1.7419,-1.7209,-1.7028,-1.6692,-1.6709,-1.685,-1.6355,-1.619,-1.6153,-1.5816,-1.5712,-1.5645,-1.5295,-1.5541,-1.5936,-1.5936,-1.6121,-1.6365,-1.6672,-1.6561,-1.6377,-1.6265,-1.6235,-1.6206,-1.6096,-1.5705,-1.5446,-1.559,-1.4564,-1.3468,-1.2726,-1.2927,-1.2833,-1.1886,-1.1499,-1.1171,-1.0869,-1.0225,-0.9713,-0.9389,-0.8776,-0.8403,-0.8403,-0.846,-0.8497,-0.8497,-0.8554,-0.859,-0.859,-0.8678,-0.8763,-0.8797,-0.8946,-0.9096,-0.9295,-0.9295,-0.9388,-0.878,-0.9712,-1.0564,-1.2157,-1.2484,-1.2577,-1.3038,-1.2859,-1.2487,-1.2207,-1.1996,-1.181,-1.1641,-1.1952,-1.2525,-1.34,-1.3844,-1.4615,-1.619,-1.6674,-1.6857,-1.6839,-1.7386,-1.7655,-1.736,-1.7491,-1.7516,-1.7352,-1.8602,-1.9369,-1.9345,-1.9942,-2.0292,-2.0292,-2.0292,-1.9988,-1.9355,-1.9988,-1.9988,-1.9355,-1.9988,-2.011,-1.9768,-1.9965,-1.9851,-1.9509,-1.9509,-1.9348,-1.905,-1.8858,-1.8581,-1.8218,-1.7939,-1.78,-1.7776,-1.7419,-1.7302,-1.7255,-1.6998,-1.6904,-1.6833,-1.6355,-1.619,-1.6167,-1.5954,-1.5883,-1.5883,-1.5883,-1.6237,-1.6591,-1.6591,-1.6951,-1.7251,-1.7069,-1.7049,-1.6961,-1.6653,-1.6587,-1.6551,-1.6411,-1.6057,-1.5801,-1.5922,-1.4825,-1.3737,-1.3069,-1.3281,-1.3204,-1.2316,-1.1666,-1.1305,-1.1305,-1.0766,-1.0397,-1.0397,-0.958,-0.9065,-0.9065,-0.8762,-0.8619,-0.868,-0.868,-0.8712,-0.8777,-0.8865,-0.895,-0.9011,-0.9156,-0.9303,-0.9474,-0.9474,-0.9514,-0.9692,-1.0485,-1.1306,-1.3237,-1.3209,-1.2912,-1.3733,-1.3068,-1.2177,-1.19,-1.1412,-1.1026,-1.1014,-1.09,-1.1358,-1.3058,-1.4339,-1.5368,-1.5951,-1.7508,-1.8402,-1.7938,-1.8329,-1.8806,-1.9157,-1.9217,-1.9226,-1.9226,-1.9516,-1.9884,-2.0275,-2.0292,-2.0292,-2.0292,-2.0292,-2.0292,-2.0292,-2.0292,-2.0292,-2.0269,-2.0269,-1.9745,-1.8827,-1.9325,-1.905,-1.8133,-1.8133,-1.8133,-1.8063,-1.7543,-1.7326,-1.7302,-1.7302,-1.7302,-1.7302,-1.7302,-1.7302,-1.7209,-1.6497,-1.6261,-1.6261,-1.6261,-1.6261,-1.6379,-1.7091,-1.7302,-1.7302,-1.7302,-1.7302,-1.7302,-1.7302,-1.7302,-1.7302,-1.7302,-1.7302,-1.7222,-1.6968,-1.6925,-1.6837,-1.6499,-1.6426,-1.6352,-1.6071,-1.5649,-1.5339,-1.5294,-1.5129,-1.4151,-1.1787,-1.1489,-1.1489,-1.1489,-1.1446,-1.1424,-1.1424,-1.0563,-1.0018,-1.0018,-0.9244,-0.8821,-0.8892,-0.89,-0.8963,-0.9092,-0.9104,-0.9217,-0.9404,-0.9412,-0.9482,-0.9603,-0.9603,-0.9603,-1.2581,-1.3029,-1.3096,-1.3765,-1.33,-1.2714,-1.2723,-1.22,-1.1575,-1.1105,-1.0587,-1.0142,-0.9949,-1.1154,-1.2522,-1.3502,-1.4888,-1.6328,-1.7713,-1.8223,-1.8545,-1.8813,-1.9173,-1.9354,-1.9217,-1.9427,-1.9576,-1.9576,-1.964,-1.9884,-2.0275,-2.0292,-2.0292,-2.0292,-2.0292,-2.0292,-2.0292,-2.0292,-2.0133,-1.9783,-1.9783,-1.944,-1.8804,-1.8943,-1.8866,-1.862,-1.862,-1.8411,-1.8087,-1.7947,-1.766,-1.7302,-1.7302,-1.7302,-1.7302,-1.7302,-1.7302,-1.7279,-1.7091,-1.7021,-1.7021,-1.7021,-1.7021,-1.7044,-1.7232,-1.7302,-1.7302,-1.7302,-1.7302,-1.7302,-1.7302,-1.7302,-1.7302,-1.7302,-1.7302,-1.728,-1.72,-1.7208,-1.7179,-1.7099,-1.6917,-1.6688,-1.6423,-1.6073,-1.5709,-1.5359,-1.5254,-1.4948,-1.4167,-1.4059,-1.4059,-1.4059,-1.343,-1.3,-1.3,-1.2142,-1.1601,-1.1601,-1.142,-1.0947,-1.0177,-1.0131,-0.9817,-0.9119,-0.9246,-0.9359,-0.9404,-0.949,-0.9559,-0.9603,-0.9603,-0.9603,-1.3108,-1.3595,-1.3869,-1.3959,-1.3262,-1.2531,-1.2565,-1.1836,-1.0936,-1.0165,-0.966,-0.9248,-0.8869,-1.0208,-1.1833,-1.3214,-1.4761,-1.6517,-1.8581,-1.8938,-1.9148,-1.9623,-1.9855,-1.9876,-1.9706,-1.9855,-1.9961,-1.9961,-1.9961,-2.0047,-2.0283,-2.0292,-2.0292,-2.0292,-2.0292,-2.0292,-2.0292,-2.0292,-2.0056,-1.9592,-1.9592,-1.9211,-1.8504,-1.8712,-1.8689,-1.8481,-1.8481,-1.8342,-1.8087,-1.7854,-1.7567,-1.7302,-1.7302,-1.7302,-1.7302,-1.7302,-1.7302,-1.7302,-1.7302,-1.7302,-1.7302,-1.7302,-1.7302,-1.7302,-1.7302,-1.7302,-1.7302,-1.7302,-1.7302,-1.7302,-1.7302,-1.7302,-1.7302,-1.7302,-1.7302,-1.7302,-1.7302,-1.7302,-1.7302,-1.7302,-1.7186,-1.7039,-1.6885,-1.6626,-1.6306,-1.594,-1.5764,-1.5604,-1.539,-1.5146,-1.5008,-1.5008,-1.4112,-1.3512,-1.3512,-1.2255,-1.1459,-1.1459,-1.1068,-1.0603,-1.0084,-1.0064,-0.9826,-0.9328,-0.9425,-0.9498,-0.9498,-0.9551,-0.9603,-0.9603,-0.9603,-0.9603,-1.2911,-1.3522,-1.4189,-1.4189,-1.3366,-1.26,-1.2806,-1.1687,-1.031,-0.9213,-0.8728,-0.8373,-0.7939,-0.8915,-1.0465,-1.2581,-1.4338,-1.6302,-1.8773,-1.9404,-1.9792,-2.0249,-2.0292,-2.0292,-2.0292,-2.0292,-2.0292,-2.0292,-2.0292,-2.0292,-2.0292,-2.0292,-2.0269,-2.0201,-2.0201,-2.0178,-2.011,-2.011,-1.9874,-1.9409,-1.9409,-1.8912,-1.8009,-1.8411,-1.838,-1.7994,-1.7994,-1.7994,-1.7963,-1.7496,-1.7302,-1.7302,-1.7302,-1.7302,-1.7302,-1.7302,-1.7302,-1.7302,-1.7302,-1.7302,-1.7302,-1.7302,-1.7302,-1.7302,-1.7302,-1.7302,-1.7302,-1.7302,-1.7302,-1.7302,-1.7302,-1.7302,-1.7302,-1.7302,-1.7302,-1.7302,-1.7302,-1.7302,-1.7302,-1.7302,-1.7302,-1.7286,-1.7263,-1.709,-1.6855,-1.6588,-1.6312,-1.6052,-1.5832,-1.5391,-1.5099,-1.5099,-1.4258,-1.3723,-1.3723,-1.2164,-1.1157,-1.1018,-1.0235,-0.9746,-0.9645,-0.9629,-0.9631,-0.9599,-0.9603,-0.9603,-0.9603,-0.9603,-0.9603,-0.9603,-0.9603,-0.9603,-1.5496,-1.5563,-1.5165,-1.5165,-1.455,-1.3706,-1.2786,-1.1343,-0.9863,-0.8679,-0.7919,-0.7503,-0.7631,-0.9044,-1.0702,-1.2249,-1.4275,-1.6353,-1.8427,-1.8996,-1.948,-2.0204,-2.0292,-2.0292,-2.0292,-2.0292,-2.0292,-2.0292,-2.0292,-2.0292,-2.0292,-2.0292,-2.0133,-1.9729,-1.9714,-1.9509,-1.9058,-1.9058,-1.8827,-1.8357,-1.8357,-1.8032,-1.745,-1.7512,-1.7512,-1.745,-1.745,-1.745,-1.7419,-1.7333,-1.7302,-1.7302,-1.7302,-1.7302,-1.7302,-1.7302,-1.7302,-1.7302,-1.7302,-1.7302,-1.7302,-1.7302,-1.7302,-1.7302,-1.7302,-1.7302,-1.7302,-1.7302,-1.7302,-1.7302,-1.7302,-1.7302,-1.7302,-1.7302,-1.7302,-1.7302,-1.7302,-1.7302,-1.7302,-1.7302,-1.7302,-1.7239,-1.7066,-1.6831,-1.6588,-1.6312,-1.6045,-1.5855,-1.5808,-1.5721,-1.5655,-1.5655,-1.5483,-1.5383,-1.5383,-1.5076,-1.4533,-1.3701,-1.3486,-1.263,-1.0948,-1.0904,-1.0487,-0.9628,-0.9603,-0.9603,-0.9603,-0.9603,-0.9603,-0.9603,-0.9603,-0.9603,-1.4559,-1.5005,-1.529,-1.4782,-1.4379,-1.3809,-1.2749,-1.1115,-0.9518,-0.837,-0.7579,-0.7116,-0.7176,-0.875,-1.0388,-1.145,-1.3268,-1.5288,-1.743,-1.8019,-1.871,-1.9845,-2.0172,-2.0201,-1.9965,-1.9942,-1.9828,-1.9531,-1.9509,-1.9646,-1.992,-1.9669,-1.9425,-1.9188,-1.9188,-1.905,-1.8804,-1.8804,-1.8573,-1.811,-1.811,-1.7823,-1.7302,-1.7302,-1.7302,-1.7302,-1.7302,-1.7302,-1.7302,-1.7302,-1.7302,-1.7302,-1.7302,-1.7302,-1.7302,-1.7302,-1.7302,-1.7302,-1.7302,-1.7302,-1.7302,-1.7302,-1.7302,-1.7302,-1.7302,-1.7302,-1.7302,-1.7302,-1.7302,-1.7302,-1.7302,-1.7302,-1.7302,-1.7302,-1.7302,-1.7302,-1.7302,-1.7302,-1.7302,-1.7302,-1.7302,-1.7239,-1.7026,-1.6885,-1.6666,-1.6265,-1.6099,-1.595,-1.5832,-1.5808,-1.5808,-1.5808,-1.5326,-1.5016,-1.5016,-1.4502,-1.3992,-1.3487,-1.3463,-1.278,-1.1268,-1.1194,-1.069,-0.9628,-0.9603,-0.9603,-0.9603,-0.9603,-0.9603,-0.9603,-0.9603,-0.9603,-1.3437,-1.4413,-1.5476,-1.4649,-1.4329,-1.3909,-1.2827,-1.1003,-0.922,-0.8142,-0.731,-0.6795,-0.6816,-0.8269,-0.9736,-1.0596,-1.2111,-1.4001,-1.6353,-1.7001,-1.7833,-1.9507,-1.9867,-1.9874,-1.9615,-1.9509,-1.9256,-1.8827,-1.8712,-1.8889,-1.9394,-1.9035,-1.8758,-1.8643,-1.8643,-1.8589,-1.8481,-1.8481,-1.8288,-1.7939,-1.7939,-1.7707,-1.7302,-1.7302,-1.7302,-1.7302,-1.7302,-1.7302,-1.7302,-1.7302,-1.7302,-1.7302,-1.7302,-1.7302,-1.7302,-1.7302,-1.7302,-1.7302,-1.7302,-1.7302,-1.7302,-1.7302,-1.7302,-1.7302,-1.7302,-1.7302,-1.7302,-1.7302,-1.7302,-1.7302,-1.7302,-1.7302,-1.7302,-1.7302,-1.7302,-1.7302,-1.7302,-1.7263,-1.7239,-1.7239,-1.7192,-1.7099,-1.6949,-1.6862,-1.6697,-1.6272,-1.6147,-1.6052,-1.5832,-1.5808,-1.5808,-1.5808,-1.5088,-1.4634,-1.4634,-1.3848,-1.3264,-1.3071,-1.3047,-1.2581,-1.156,-1.1317,-1.0808,-0.9965,-0.9723,-0.9603,-0.9603,-0.9603,-0.9603,-0.9603,-0.9603,-0.9603,-1.4551,-1.5675,-1.6476,-1.6029,-1.5546,-1.4763,-1.3215,-1.1026,-0.9002,-0.7868,-0.6812,-0.6258,-0.6789,-0.7691,-0.8749,-0.9981,-1.1271,-1.305,-1.5634,-1.6173,-1.7163,-1.9423,-1.9257,-1.9104,-1.9546,-1.9165,-1.885,-1.8804,-1.8411,-1.8365,-1.885,-1.8827,-1.8596,-1.8179,-1.8156,-1.7939,-1.7442,-1.7442,-1.7419,-1.7372,-1.7372,-1.7349,-1.7302,-1.7302,-1.7302,-1.7302,-1.7302,-1.7302,-1.7302,-1.7302,-1.7302,-1.7302,-1.7302,-1.7302,-1.7302,-1.7302,-1.7302,-1.7302,-1.7302,-1.7302,-1.7302,-1.7302,-1.7302,-1.7302,-1.7302,-1.7302,-1.7302,-1.7302,-1.7302,-1.7302,-1.7302,-1.7302,-1.7302,-1.7302,-1.7302,-1.7302,-1.7302,-1.7153,-1.7026,-1.7026,-1.6824,-1.6659,-1.6636,-1.643,-1.6272,-1.6201,-1.6004,-1.5832,-1.5808,-1.5808,-1.5808,-1.5808,-1.5713,-1.5666,-1.5666,-1.5564,-1.5129,-1.4196,-1.4148,-1.3661,-1.2611,-1.1682,-1.1146,-1.1052,-1.0109,-0.9603,-0.9603,-0.9603,-0.9603,-0.9603,-0.9603,-0.9603,-1.4619,-1.5774,-1.6591,-1.619,-1.5694,-1.4889,-1.3323,-1.0995,-0.8881,-0.7825,-0.6876,-0.6443,-0.7085,-0.7914,-0.8779,-0.9655,-1.0524,-1.1685,-1.338,-1.4415,-1.5662,-1.7434,-1.8191,-1.8598,-1.8688,-1.8496,-1.8241,-1.7916,-1.773,-1.7707,-1.7893,-1.7893,-1.7823,-1.7613,-1.7613,-1.752,-1.7302,-1.7302,-1.7302,-1.7302,-1.7302,-1.7302,-1.7302,-1.7302,-1.7302,-1.7302,-1.7302,-1.7302,-1.7302,-1.7302,-1.7302,-1.7302,-1.7302,-1.7302,-1.7302,-1.7302,-1.7302,-1.7302,-1.7302,-1.7302,-1.7302,-1.7302,-1.7302,-1.7302,-1.7302,-1.7302,-1.7302,-1.7302,-1.7302,-1.7302,-1.7302,-1.7302,-1.7302,-1.7302,-1.7302,-1.7302,-1.7302,-1.7136,-1.7003,-1.7003,-1.6777,-1.6541,-1.6383,-1.6265,-1.6147,-1.5974,-1.5879,-1.5808,-1.5808,-1.5808,-1.5808,-1.5808,-1.5808,-1.5808,-1.5808,-1.5808,-1.5635,-1.5231,-1.5207,-1.4747,-1.3709,-1.327,-1.2756,-1.212,-1.1687,-1.1179,-1.0571,-1.0571,-1.0232,-0.9603,-0.9603,-0.9603,-1.4152,-1.5516,-1.6636,-1.6132,-1.5323,-1.4283,-1.2883,-1.0523,-0.844,-0.7762,-0.6938,-0.6579,-0.7345,-0.8068,-0.8748,-0.9331,-0.9971,-1.0829,-1.2104,-1.3172,-1.4462,-1.6109,-1.7115,-1.7697,-1.7796,-1.7849,-1.7707,-1.7326,-1.7302,-1.7302,-1.7302,-1.7302,-1.7302,-1.7302,-1.7302,-1.7302,-1.7302,-1.7302,-1.7302,-1.7302,-1.7302,-1.7302,-1.7302,-1.7302,-1.7302,-1.7302,-1.7302,-1.7302,-1.7302,-1.7302,-1.7302,-1.7302,-1.7302,-1.7302,-1.7302,-1.7302,-1.7302,-1.7302,-1.7302,-1.7302,-1.7302,-1.7302,-1.7302,-1.7302,-1.7302,-1.7302,-1.7302,-1.7302,-1.7302,-1.7302,-1.7302,-1.7302,-1.7302,-1.7302,-1.7302,-1.7279,-1.7216,-1.7113,-1.6956,-1.6791,-1.6619,-1.6407,-1.6123,-1.6076,-1.6028,-1.5832,-1.5808,-1.5808,-1.5808,-1.5808,-1.5808,-1.5808,-1.5808,-1.5808,-1.5808,-1.5808,-1.5808,-1.5808,-1.5808,-1.535,-1.4346,-1.4004,-1.3342,-1.229,-1.1931,-1.1419,-1.0739,-1.0739,-1.033,-0.9603,-0.9603,-0.9603,-1.3142,-1.5025,-1.6728,-1.5984,-1.4449,-1.2841,-1.1762,-0.9441,-0.7554,-0.7676,-0.6904,-0.6501,-0.7509,-0.7974,-0.8382,-0.8919,-0.9624,-1.0707,-1.2443,-1.288,-1.3833,-1.6035,-1.6088,-1.6232,-1.7027,-1.7227,-1.7309,-1.7302,-1.7302,-1.7302,-1.7302,-1.7302,-1.7302,-1.7302,-1.7302,-1.7302,-1.7302,-1.7302,-1.7302,-1.7302,-1.7302,-1.7302,-1.7302,-1.7302,-1.7302,-1.7302,-1.7302,-1.7302,-1.7302,-1.7302,-1.7302,-1.7302,-1.7302,-1.7302,-1.7302,-1.7302,-1.7302,-1.7302,-1.7302,-1.7302,-1.7302,-1.7302,-1.7302,-1.7302,-1.7302,-1.7302,-1.7302,-1.7302,-1.7302,-1.7302,-1.7302,-1.7302,-1.7302,-1.7302,-1.7302,-1.7239,-1.705,-1.7003,-1.6838,-1.6319,-1.6201,-1.6123,-1.5855,-1.5808,-1.5808,-1.5808,-1.5808,-1.5808,-1.5808,-1.5808,-1.5808,-1.5808,-1.5808,-1.5808,-1.5808,-1.5808,-1.5808,-1.5808,-1.5808,-1.535,-1.4346,-1.3288,-1.2242,-1.1243,-1.0158,-0.9628,-0.9628,-0.9628,-0.9603,-0.9603,-0.9603,-0.9603,-1.2537,-1.3599,-1.4248,-1.3679,-1.2568,-1.1266,-1.0012,-0.8749,-0.7654,-0.7017,-0.6884,-0.7047,-0.7596,-0.8159,-0.8882,-0.992,-1.0486,-1.1122,-1.2095,-1.3262,-1.428,-1.5,-1.6122,-1.6961,-1.7217,-1.7278,-1.7302,-1.7302,-1.7302,-1.7302,-1.7302,-1.7302,-1.7302,-1.7302,-1.7302,-1.7302,-1.7302,-1.7302,-1.7302,-1.7302,-1.7302,-1.7302,-1.7302,-1.7302,-1.7302,-1.7302,-1.7302,-1.7302,-1.7302,-1.7302,-1.7302,-1.7302,-1.7302,-1.7302,-1.7302,-1.7302,-1.7302,-1.7302,-1.7302,-1.7302,-1.7302,-1.7302,-1.7302,-1.7302,-1.7302,-1.7302,-1.7302,-1.7302,-1.7302,-1.7302,-1.7302,-1.7302,-1.7302,-1.7302,-1.7302,-1.7279,-1.7216,-1.709,-1.6909,-1.6541,-1.6336,-1.6099,-1.5855,-1.5808,-1.5808,-1.5808,-1.5808,-1.5808,-1.5808,-1.5808,-1.5808,-1.5808,-1.5808,-1.5808,-1.5808,-1.5808,-1.5808,-1.5808,-1.5808,-1.535,-1.4346,-1.398,-1.3294,-1.2242,-1.1882,-1.1375,-1.069,-1.069,-1.033,-0.9603,-0.9603,-0.9664,-1.0821,-1.1928,-1.2498,-1.2089,-1.1143,-1.0123,-0.9317,-0.8339,-0.7487,-0.702,-0.7067,-0.7382,-0.7968,-0.8411,-0.9033,-1.0053,-1.0492,-1.1019,-1.1879,-1.3127,-1.4216,-1.4944,-1.617,-1.7011,-1.7135,-1.7236,-1.7302,-1.7302,-1.7302,-1.7302,-1.7302,-1.7302,-1.7302,-1.7302,-1.7302,-1.7302,-1.7302,-1.7302,-1.7302,-1.7302,-1.7302,-1.7302,-1.7302,-1.7302,-1.7302,-1.7302,-1.7302,-1.7302,0.0,-1.7302,-1.7302,-1.7302,-1.7302,-1.7302,-1.7302,-1.7302,-1.7302,-1.7302,-1.7302,-1.7302,-1.7302,-1.7302,-1.7302,-1.7302,-1.7302,-1.7302,-1.7302,-1.7302,-1.7302,-1.7302,-1.7302,-1.7302,-1.7302,-1.7302,-1.7302,-1.7255,-1.7075,-1.7019,-1.6855,-1.64,-1.6241,-1.6099,-1.5855,-1.5808,-1.5808,-1.5808,-1.5808,-1.5808,-1.5808,-1.5808,-1.5808,-1.5808,-1.5808,-1.5808,-1.5808,-1.5808,-1.5808,-1.5808,-1.5808,-1.5177,-1.3757,-1.4076,-1.342,-1.157,-1.1931,-1.1639,-1.0596,-1.0596,-1.0256,-0.9603,-0.9668,-0.9782,0.0,-0.9948,-1.1231,-1.0916,-1.0045,-0.9275,-0.9302,-0.8139,0.0,-0.7493,-0.7397,-0.7548,-0.855,-0.8718,-0.8926,-0.9652,-1.0025,-1.0675,-1.1959,-1.2757,-1.3897,-1.5775,-1.6265,-1.6602,-1.6903,-1.7157,-1.7302,-1.7302,-1.7302,-1.7302,-1.7302,-1.7302,-1.7302,-1.7302,-1.7302,-1.7302,-1.7302,-1.7302,-1.7302,-1.7302,-1.7302,-1.7302,-1.7302,-1.7302,-1.7302,-1.7302,-1.7302,-1.7302,-1.7302,-1.7302,-1.7302,-1.7302,-1.7302,-1.7302,-1.7302,-1.7302,-1.7302,-1.7302,-1.7302,-1.7302,-1.7302,-1.7302,-1.7302,-1.7302,-1.7302,-1.7302,-1.7302,-1.7302,-1.7302,-1.7302,-1.7302,-1.7302,-1.7302,-1.7279,-1.7279,-1.7145,-1.6699,-1.6807,-1.6737,-1.5974,-1.6028,-1.6099,-1.5855,-1.5808,-1.5808,-1.5808,-1.5808,-1.5808,-1.5808,-1.5808,-1.5808,-1.5808,-1.5808,-1.5808,-1.5808,-1.5808,-1.5808,-1.5808,-1.5808,-1.4908,-1.2901,-1.3781,-1.2888,-0.9871,-1.0812,-1.0739,-0.9603,-0.969,-0.9694,-0.9624,-0.9823,-0.9938,-0.6253,0.0,-0.8426,-0.83,-0.807,-0.7825,0.0,-0.7526,-0.7426,-0.7313,-0.7454,-0.7892,-0.889,-0.8865,-0.9299,-1.1135,-1.15,-1.2019,-1.3338,-1.4489,-1.5651,-1.6834,-1.7039,-1.7112,-1.7208,-1.7258,-1.7302,-1.7302,-1.7302,-1.7302,-1.7302,-1.7302,-1.7302,-1.7302,-1.7302,-1.7302,-1.7302,-1.7302,-1.7302,-1.7302,-1.7302,-1.7302,-1.7302,-1.7302,-1.7302,-1.7302,-1.7302,-1.7302,-1.7302,-1.7302,-1.7302,-1.7302,-1.7302,-1.7302,-1.7302,-1.7302,-1.7302,-1.7302,-1.7302,-1.7302,-1.7302,-1.7302,-1.7302,-1.7302,-1.7302,-1.7302,-1.7302,-1.7302,-1.7302,-1.7302,-1.7302,-1.7302,-1.7263,-1.7113,-1.7066,-1.6972,-1.6683,-1.6659,-1.6572,-1.617,-1.6153,-1.6099,-1.5855,-1.5808,-1.5808,-1.5808,-1.5808,-1.5808,-1.5808,-1.5808,-1.5808,-1.5808,-1.5808,-1.5808,-1.5808,-1.5808,-1.5808,-1.5808,-1.5808,-1.5231,-1.398,-1.4172,-1.3565,-1.2004,-1.2217,-1.1443,-0.9603,-1.0528,-1.0573,-0.9827,-1.004,-1.0172,-0.5881,-0.6778,-0.7724,-0.7725,-0.781,-0.7924,-0.7987,-0.7817,-0.7655,-0.7648,-0.7799,-0.8194,-0.9046,-0.9275,-0.9782,-1.1135,-1.1851,-1.2801,-1.4401,-1.5628,-1.6587,-1.7229,-1.7302,-1.7302,-1.7302,-1.7302,-1.7302,-1.7302,-1.7302,-1.7302,-1.7302,-1.7302,-1.7302,-1.7302,-1.7302,-1.7302,-1.7302,-1.7302,-1.7302,-1.7302,-1.7302,-1.7302,-1.7302,-1.7302,-1.7302,-1.7302,-1.7302,-1.7302,-1.7302,-1.7302,-1.7302,-1.7302,-1.7302,-1.7302,-1.7302,-1.7302,-1.7302,-1.7302,-1.7302,-1.7302,-1.7302,-1.7302,-1.7302,-1.7302,-1.7302,-1.7302,-1.7302,-1.7302,-1.7302,-1.7279,-1.72,-1.7216,-1.7216,-1.6902,-1.6902,-1.6885,-1.6501,-1.643,-1.6336,-1.6076,-1.6028,-1.5981,-1.5832,-1.5808,-1.5808,-1.5808,-1.5808,-1.5808,-1.5808,-1.5808,-1.5808,-1.5808,-1.5808,-1.5808,-1.5808,-1.5808,-1.5808,-1.5808,-1.5808,-1.535,-1.4346,-1.4753,-1.4508,-1.3438,-1.295,-1.2226,-1.1252,-1.1904,-1.1736,-1.0826,-1.1028,-1.0864,-0.6212,-0.7185,-0.808,-0.8045,-0.8287,-0.8644,-0.9033,-0.8469,-0.7928,-0.8216,-0.8275,-0.8502,-0.9273,-0.9832,-1.0368,-1.0953,-1.21,-1.3554,-1.5307,-1.6338,-1.6997,-1.7266,-1.7302,-1.7302,-1.7302,-1.7302,-1.7302,-1.7302,-1.7302,-1.7302,-1.7302,-1.7302,-1.7302,-1.7302,-1.7302,-1.7302,-1.7302,-1.7302,-1.7302,-1.7302,-1.7302,-1.7302,-1.7302,-1.7302,-1.7302,-1.7302,-1.7302,-1.7302,-1.7302,-1.7302,-1.7302,-1.7302,-1.7302,-1.7302,-1.7302,-1.7302,-1.7302,-1.7302,-1.7302,-1.7302,-1.7302,-1.7302,-1.7302,-1.7302,-1.7302,-1.7302,-1.7302,-1.7302,-1.7302,-1.7263,-1.709,-1.7176,-1.7192,-1.6753,-1.6807,-1.6791,-1.6319,-1.6177,-1.6076,-1.5832,-1.5808,-1.5808,-1.5808,-1.5808,-1.5808,-1.5808,-1.5808,-1.5808,-1.5808,-1.5808,-1.5808,-1.5808,-1.5808,-1.5808,-1.5808,-1.5808,-1.5808,-1.5808,-1.5808,-1.5421,-1.4562,-1.535,-1.5326,-1.4322,-1.3617,-1.3225,-1.3212,-1.3432,-1.307,-1.2213,-1.2226,-1.1692,-0.6161,-0.7423,-0.8389,-0.7889,-0.8215,-0.8687,-0.8765,-0.866,-0.8565,-0.8616,-0.8623,-0.8989,-1.0169,-1.0462,-1.1085,-1.2775,-1.4116,-1.5256,-1.6125,-1.6609,-1.6997,-1.7266,-1.7302,-1.7302,-1.7302,-1.7302,-1.7302,-1.7302,-1.7302,-1.7302,-1.7302,-1.7302,-1.7302,-1.7302,-1.7302,-1.7302,-1.7302,-1.7302,-1.7302,-1.7302,-1.7302,-1.7302,-1.7302,-1.7302,-1.7302,-1.7302,-1.7302,-1.7302,-1.7302,-1.7302,-1.7302,-1.7302,-1.7302,-1.7302,-1.7302,-1.7302,-1.7302,-1.7302,-1.7302,-1.7302,-1.7302,-1.7302,-1.7302,-1.7302,-1.7302,-1.7302,-1.7302,-1.7302,-1.7302,-1.7279,-1.7263,-1.7286,-1.7239,-1.6996,-1.6807,-1.6588,-1.6272,-1.6028,-1.5855,-1.5808,-1.5808,-1.5808,-1.5808,-1.5808,-1.5808,-1.5808,-1.5808,-1.5808,-1.5808,-1.5808,-1.5808,-1.5808,-1.5808,-1.5808,-1.5808,-1.5808,-1.5808,-1.5808,-1.5808,-1.573,-1.5588,-1.5713,-1.5326,-1.4322,-1.5244,-1.4912,-1.3212,-1.4458,-1.4559,-1.3566,-1.2753,-1.2262,-0.6053,-0.7266,-0.8407,-0.8488,-0.9132,-0.9773,-0.9949,-0.9722,-0.9568,-0.992,-0.9993,-1.0234,-1.1004,-1.1554,-1.2475,-1.4233,-1.5321,-1.6118,-1.6587,-1.6931,-1.7165,-1.7288,-1.7302,-1.7302,-1.7302,-1.7302,-1.7302,-1.7302,-1.7302,-1.7302,-1.7302,-1.7302,-1.7302,-1.7302,-1.7302,-1.7302,-1.7302,-1.7302,-1.7302,-1.7302,-1.7302,-1.7302,-1.7302,-1.7302,-1.7302,-1.7302,-1.7302,-1.7302,-1.7302,-1.7302,-1.7302,-1.7302,-1.7302,-1.7302,-1.7302,-1.7302,-1.7302,-1.7302,-1.7302,-1.7302,-1.7302,-1.7302,-1.7302,-1.7302,-1.7302,-1.7302,-1.7302,-1.7302,-1.7302,-1.7263,-1.7176,-1.7216,-1.7169,-1.669,-1.6572,-1.6494,-1.6069,-1.5879,-1.5808,-1.5808,-1.5808,-1.5808,-1.5808,-1.5808,-1.5808,-1.5808,-1.5808,-1.5808,-1.5808,-1.5808,-1.5808,-1.5808,-1.5808,-1.5808,-1.5808,-1.5808,-1.5808,-1.5808,-1.5808,-1.5808,-1.5808,-1.5961,-1.5849,-1.539,-1.6139,-1.6125,-1.536,-1.5394,-1.4934,-1.3986,-1.2911,-1.2069,-0.6284,-0.729,-0.8392,-0.9209,-0.9891,-1.0521,-1.1092,-1.0755,-1.0536,-1.1275,-1.1429,-1.1532,-1.187,-1.2819,-1.4014,-1.5402,-1.6184,-1.6704,-1.6953,-1.7172,-1.7302,-1.7302,-1.7302,-1.7302,-1.7302,-1.7302,-1.7302,-1.7302,-1.7302,-1.7302,-1.7302,-1.7302,-1.7302,-1.7302,-1.7302,-1.7302,-1.7302,-1.7302,-1.7302,-1.7302,-1.7302,-1.7302,-1.7302,-1.7302,-1.7302,-1.7302,-1.7302,-1.7302,-1.7302,-1.7302,-1.7302,-1.7302,-1.7302,-1.7302,-1.7302,-1.7302,-1.7302,-1.7302,-1.7302,-1.7302,-1.7302,-1.7302,-1.7302,-1.7286,-1.7239,-1.7263,-1.7279,-1.7169,-1.7169,-1.72,-1.7043,-1.7066,-1.6981,-1.643,-1.6407,-1.64,-1.5974,-1.5832,-1.5808,-1.5808,-1.5808,-1.5808,-1.5808,-1.5808,-1.5808,-1.5808,-1.5808,-1.5808,-1.5808,-1.5808,-1.5808,-1.5808,-1.5808,-1.5808,-1.5808,-1.5868,-1.5908,-1.5908,-1.5908,-1.5941,-1.6008,-1.6253,-1.6397,-1.6397,-1.6379,-1.6527,-1.6781,-1.5653,-1.4754,-1.4078,-1.2923,-1.1932,-0.72,-0.7934,-0.8494,-0.9731,-0.9855,-1.0009,-1.1276,-1.1291,-1.129,-1.2209,-1.2399,-1.2502,-1.284,-1.4168,-1.5461,-1.6206,-1.6843,-1.7244,-1.7273,-1.7288,-1.7302,-1.7302,-1.7302,-1.7302,-1.7302,-1.7302,-1.7302,-1.7302,-1.7302,-1.7302,-1.7302,-1.7302,-1.7302,-1.7302,-1.7302,-1.7302,-1.7302,-1.7302,-1.7302,-1.7302,-1.7302,-1.7302,-1.7302,-1.7302,-1.7302,-1.7302,-1.7302,-1.7302,-1.7302,-1.7302,-1.7302,-1.7302,-1.7302,-1.7302,-1.7302,-1.7302,-1.7302,-1.7302,-1.7302,-1.7302,-1.7302,-1.7302,-1.7302,-1.7263,-1.7066,-1.7153,-1.7216,-1.677,-1.6824,-1.7026,-1.7003,-1.6831,-1.6629,-1.6588,-1.6407,-1.6224,-1.617,-1.5981,-1.5808,-1.5808,-1.5808,-1.5808,-1.5808,-1.5808,-1.5808,-1.5808,-1.5808,-1.5808,-1.5808,-1.5808,-1.5808,-1.5808,-1.5808,-1.5808,-1.5808,-1.6079,-1.6264,-1.6264,-1.6264,-1.6384,-1.6633,-1.666,-1.6673,-1.6673,-1.5896,-1.5523,-1.5541,-1.4641,-1.4169,-1.4078,-1.2923,-1.2363,-0.6581,-0.7709,-0.8714,-0.9572,-1.0316,-1.1078,-1.1955,-1.238,-1.2855,-1.381,-1.4148,-1.435,-1.4474,-1.5161,-1.5848,-1.6323,-1.6908,-1.7302,-1.7302,-1.7302,-1.7302,-1.7302,-1.7302,-1.7302,-1.7302,-1.7302,-1.7302,-1.7302,-1.7302,-1.7302,-1.7302,-1.7302,-1.7302,-1.7302,-1.7302,-1.7302,-1.7302,-1.7302,-1.7302,-1.7302,-1.7302,-1.7302,-1.7302,-1.7302,-1.7302,-1.7302,-1.7302,-1.7302,-1.7302,-1.7302,-1.7302,-1.7302,-1.7302,-1.7302,-1.7302,-1.7302,-1.7302,-1.7302,-1.7302,-1.7302,-1.7302,-1.7302,-1.7302,-1.7286,-1.7216,-1.7239,-1.7263,-1.7099,-1.6894,-1.6753,-1.6753,-1.6683,-1.6565,-1.6376,-1.6265,-1.6147,-1.6004,-1.5879,-1.5808,-1.5808,-1.5808,-1.5808,-1.5808,-1.5808,-1.5808,-1.5808,-1.5808,-1.5808,-1.5808,-1.5808,-1.5808,-1.5808,-1.5999,-1.6106,-1.6106,-1.6373,-1.6645,-1.6857,-1.6665,-1.6587,-1.67,-1.6906,-1.7006,-1.7006,-1.684,-1.6774,-1.6774,-1.5727,-1.5215,-1.5156,-1.3275,-1.2792,-0.6535,-0.7734,-0.8872,-0.9585,-1.0689,-1.1811,-1.2636,-1.3258,-1.3953,-1.5008,-1.541,-1.5592,-1.5709,-1.5906,-1.6162,-1.6492,-1.6974,-1.7302,-1.7302,-1.7302,-1.7302,-1.7302,-1.7302,-1.7302,-1.7302,-1.7302,-1.7302,-1.7302,-1.7302,-1.7302,-1.7302,-1.7302,-1.7302,-1.7302,-1.7302,-1.7302,-1.7302,-1.7302,-1.7302,-1.7302,-1.7302,-1.7302,-1.7302,-1.7302,-1.7302,-1.7302,-1.7302,-1.7302,-1.7302,-1.7302,-1.7302,-1.7302,-1.7302,-1.7302,-1.7302,-1.7302,-1.7302,-1.7302,-1.7302,-1.7302,-1.7302,-1.7302,-1.7302,-1.7279,-1.7122,-1.7185,-1.7255,-1.7028,-1.677,-1.6588,-1.6494,-1.64,-1.6305,-1.6123,-1.6076,-1.6028,-1.5832,-1.5808,-1.5808,-1.5808,-1.5808,-1.5808,-1.5808,-1.5808,-1.5808,-1.5808,-1.5808,-1.5841,-1.5935,-1.5972,-1.5981,-1.6075,-1.6286,-1.6438,-1.6438,-1.668,-1.6959,-1.7192,-1.7066,-1.6981,-1.6981,-1.7207,-1.734,-1.734,-1.716,-1.7067,-1.7067,-1.5908,-1.5322,-1.5295,-1.3679,-1.3356,-0.7383,-0.8194,-0.8938,-0.987,-1.088,-1.1951,-1.3224,-1.3781,-1.4362,-1.5644,-1.5907,-1.6016,-1.6338,-1.6396,-1.6499,-1.6851,-1.7121,-1.7302,-1.7302,-1.7302,-1.7302,-1.7302,-1.7302,-1.7302,-1.7302,-1.7302,-1.7302,-1.7302,-1.7302,-1.7302,-1.7302,-1.7302,-1.7302,-1.7302,-1.7302,-1.7302,-1.7302,-1.7302,-1.7302,-1.7302,-1.7302,-1.7302,-1.7302,-1.7302,-1.7302,-1.7302,-1.7302,-1.7302,-1.7302,-1.7302,-1.7302,-1.7302,-1.7302,-1.7302,-1.7302,-1.7302,-1.7302,-1.7302,-1.7302,-1.7302,-1.7302,-1.7302,-1.7302,-1.7216,-1.6746,-1.6934,-1.7145,-1.6407,-1.6376,-1.6541,-1.6272,-1.6004,-1.5808,-1.5808,-1.5808,-1.5808,-1.5808,-1.5808,-1.5808,-1.5808,-1.5808,-1.5808,-1.5808,-1.5808,-1.5808,-1.5808,-1.5815,-1.5921,-1.6264,-1.6304,-1.6411,-1.6673,-1.6707,-1.6707,-1.6707,-1.7006,-1.7206,-1.7206,-1.7448,-1.7608,-1.7608,-1.7608,-1.7608,-1.7608,-1.6479,-1.5914,-1.5914,-1.4728,-1.4132,-1.4132,-1.4132,-1.4132,-0.7128,-0.8322,-0.9519,-1.0258,-1.1692,-1.31,-1.3715,-1.4443,-1.5344,-1.6623,-1.6733,-1.6624,-1.6734,-1.6756,-1.6785,-1.6881,-1.7121,-1.7302,-1.7302,-1.7302,-1.7302,-1.7302,-1.7302,-1.7302,-1.7302,-1.7302,-1.7302,-1.7302,-1.7302,-1.7302,-1.7302,-1.7302,-1.7302,-1.7302,-1.7302,-1.7302,-1.7302,-1.7302,-1.7302,-1.7302,-1.7302,-1.7302,-1.7302,-1.7302,-1.7302,-1.7302,-1.7302,-1.7302,-1.7302,-1.7302,-1.7302,-1.7302,-1.7302,-1.7302,-1.7302,-1.7302,-1.7302,-1.7302,-1.7302,-1.7302,-1.7302,-1.7302,-1.7302,-1.7263,-1.6972,-1.6972,-1.6996,-1.6588,-1.6407,-1.6289,-1.6224,-1.6004,-1.5808,-1.5808,-1.5808,-1.5808,-1.5808,-1.5808,-1.5808,-1.5808,-1.5808,-1.5808,-1.5808,-1.6005,-1.6139,-1.6139,-1.6313,-1.6473,-1.6567,-1.6573,-1.6613,-1.6693,-1.6919,-1.704,-1.704,-1.7314,-1.7481,-1.7481,-1.7561,-1.7608,-1.7608,-1.7608,-1.7608,-1.7608,-1.7259,-1.71,-1.7094,-1.6744,-1.6558,-1.6525,-1.5749,-1.5802,-0.7717,-0.8977,-1.0221,-1.1128,-1.2431,-1.3766,-1.4726,-1.5379,-1.6089,-1.7098,-1.71,-1.6939,-1.7041,-1.6968,-1.6939,-1.7041,-1.7201,-1.7302,-1.7302,-1.7302,-1.7302,-1.7302,-1.7302,-1.7302,-1.7302,-1.7302,-1.7302,-1.7302,-1.7302,-1.7302,-1.7302,-1.7302,-1.7302,-1.7302,-1.7302,-1.7302,-1.7302,-1.7302,-1.7302,-1.7302,-1.7302,-1.7302,-1.7302,-1.7302,-1.7302,-1.7302,-1.7302,-1.7302,-1.7302,-1.7302,-1.7302,-1.7302,-1.7302,-1.7302,-1.7302,-1.7302,-1.7302,-1.7302,-1.7302,-1.7263,-1.7176,-1.7176,-1.7099,-1.6981,-1.6737,-1.6767,-1.6784,-1.6518,-1.6312,-1.6201,-1.6201,-1.6004,-1.5808,-1.5808,-1.5808,-1.5808,-1.5808,-1.5808,-1.5841,-1.5979,-1.6005,-1.6015,-1.6135,-1.6326,-1.6471,-1.6471,-1.6718,-1.6906,-1.6906,-1.6981,-1.7054,-1.7054,-1.724,-1.7347,-1.7347,-1.7508,-1.7608,-1.7608,-1.7608,-1.7608,-1.7608,-1.7608,-1.7608,-1.7608,-1.7608,-1.7608,-1.7608,-1.7608,-1.7608,-1.7582,-1.6909,-1.6935,-0.8755,-0.9861,-1.0916,-1.218,-1.3064,-1.4099,-1.5935,-1.6367,-1.6572,-1.7171,-1.7099,-1.7005,-1.7251,-1.7091,-1.7019,-1.7258,-1.7302,-1.7302,-1.7302,-1.7302,-1.7302,-1.7302,-1.7302,-1.7302,-1.7302,-1.7302,-1.7302,-1.7302,-1.7302,-1.7302,-1.7302,-1.7302,-1.7302,-1.7302,-1.7302,-1.7302,-1.7302,-1.7302,-1.7302,-1.7302,-1.7302,-1.7302,-1.7302,-1.7302,-1.7302,-1.7302,-1.7302,-1.7302,-1.7302,-1.7302,-1.7302,-1.7302,-1.7302,-1.7302,-1.7302,-1.7279,-1.7263,-1.7263,-1.7239,-1.7129,-1.6956,-1.6956,-1.6807,-1.6541,-1.6289,-1.6383,-1.6518,-1.6241,-1.6153,-1.6153,-1.6153,-1.5974,-1.5808,-1.5808,-1.5808,-1.5808,-1.5808,-1.5828,-1.5952,-1.6244,-1.6317,-1.6417,-1.666,-1.6727,-1.6754,-1.678,-1.704,-1.7239,-1.7239,-1.7448,-1.7608,-1.7608,-1.7608,-1.7608,-1.7608,-1.7608,-1.7608,-1.7608,-1.7608,-1.7608,-1.7608,-1.7608,-1.7608,-1.7608,-1.7608,-1.7608,-1.7608,-1.7608,-1.7608,-1.7608,-1.7608,-1.7529,-0.8511,-0.9685,-1.0916,-1.218,-1.3568,-1.4854,-1.5782,-1.6221,-1.6572,-1.7171,-1.7251,-1.7222,-1.7295,-1.7251,-1.7229,-1.7295,-1.7302,-1.7302,-1.7302,-1.7302,-1.7302,-1.7302,-1.7302,-1.7302,-1.7302,-1.7302,-1.7302,-1.7302,-1.7302,-1.7302,-1.7302,-1.7302,-1.7302,-1.7302,-1.7302,-1.7302,-1.7302,-1.7302,-1.7302,-1.7302,-1.7302,-1.7302,-1.7302,-1.7302,-1.7302,-1.7302,-1.7302,-1.7302,-1.7302,-1.7302,-1.7302,-1.7302,-1.7302,-1.7302,-1.7279,-1.7113,-1.7066,-1.7043,-1.6824,-1.6723,-1.6683,-1.6683,-1.6659,-1.6541,-1.6289,-1.6248,-1.6241,-1.595,-1.5879,-1.5879,-1.5879,-1.5832,-1.5808,-1.5808,-1.5808,-1.5808,-1.5808,-1.6012,-1.6217,-1.6284,-1.6484,-1.6633,-1.6693,-1.6926,-1.716,-1.7361,-1.7474,-1.7515,-1.7515,-1.7568,-1.7608,-1.7608,-1.7608,-1.7608,-1.7608,-1.7608,-1.7608,-1.7608,-1.7608,-1.7608,-1.7608,-1.7608,-1.7608,-1.7608,-1.7608,-1.7608,-1.7608,-1.7608,-1.7608,-1.7608,-1.7608,-1.712,-0.8601,-0.9979,-1.1458,-1.3053,-1.4182,-1.5075,-1.5746,-1.6038,-1.633,-1.6967,-1.72,-1.7302,-1.7302,-1.7302,-1.7302,-1.7302,-1.7302,-1.7302,-1.7302,-1.7302,-1.7302,-1.7302,-1.7302,-1.7302,-1.7302,-1.7302,-1.7302,-1.7302,-1.7302,-1.7302,-1.7302,-1.7302,-1.7302,-1.7302,-1.7302,-1.7302,-1.7302,-1.7302,-1.7302,-1.7302,-1.7302,-1.7302,-1.7302,-1.7302,-1.7302,-1.7302,-1.7302,-1.7302,-1.7302,-1.7302,-1.7239,-1.7153,-1.7153,-1.7082,-1.6958,-1.6847,-1.6807,-1.6784,-1.6659,-1.6518,-1.6407,-1.6407,-1.6329,-1.6187,-1.6052,-1.6004,-1.5981,-1.5832,-1.5808,-1.5808,-1.5808,-1.5808,-1.5841,-1.6005,-1.5908,-1.5848,-1.6012,-1.619,-1.6384,-1.6665,-1.6839,-1.6986,-1.7101,-1.728,-1.7434,-1.7588,-1.7608,-1.7608,-1.7608,-1.7608,-1.7608,-1.7608,-1.7608,-1.7608,-1.7608,-1.7608,-1.7608,-1.7608,-1.7608,-1.7608,-1.7608,-1.7608,-1.7608,-1.7608,-1.7608,-1.7608,-1.7608,-1.7608,-1.7608,-1.7582,-1.7041,-1.6479,-0.8537,-1.0241,-1.2046,-1.3946,-1.4662,-1.5061,-1.5673,-1.5855,-1.6067,-1.6609,-1.7012,-1.7244,-1.7295,-1.7302,-1.7302,-1.7302,-1.7302,-1.7302,-1.7302,-1.7302,-1.7302,-1.7302,-1.7302,-1.7302,-1.7302,-1.7302,-1.7302,-1.7302,-1.7302,-1.7302,-1.7302,-1.7302,-1.7302,-1.7302,-1.7302,-1.7302,-1.7302,-1.7302,-1.7302,-1.7302,-1.7302,-1.7302,-1.7302,-1.7302,-1.7302,-1.7302,-1.7302,-1.7302,-1.7302,-1.7302,-1.7176,-1.7003,-1.7003,-1.6831,-1.6581,-1.6541,-1.6541,-1.6518,-1.6471,-1.6329,-1.613,-1.613,-1.5974,-1.5808,-1.5808,-1.5808,-1.5808,-1.5808,-1.5808,-1.5815,-1.5868,-1.5881,-1.5979,-1.6279,-1.6159,-1.6021,-1.6317,-1.6411,-1.6591,-1.7105,-1.7239,-1.7353,-1.7568,-1.7608,-1.7608,-1.7608,-1.7608,-1.7608,-1.7608,-1.7608,-1.7608,-1.7608,-1.7608,-1.7608,-1.7608,-1.7608,-1.7608,-1.7608,-1.7608,-1.7608,-1.7608,-1.7608,-1.7608,-1.7608,-1.7608,-1.7608,-1.7608,-1.7608,-1.7503,-1.7285,-1.6346,-1.5669,-0.7581,-0.9707,-1.1995,-1.3649,-1.4501,-1.5002,-1.5388,-1.5695,-1.5921,-1.6023,-1.6513,-1.7027,-1.7251,-1.7302,-1.7302,-1.7302,-1.7302,-1.7302,-1.7302,-1.7302,-1.7302,-1.7302,-1.7302,-1.7302,-1.7302,-1.7302,-1.7302,-1.7302,-1.7302,-1.7302,-1.7302,-1.7302,-1.7302,-1.7302,-1.7302,-1.7302,-1.7302,-1.7302,-1.7302,-1.7302,-1.7302,-1.7302,-1.7302,-1.7302,-1.7302,-1.7302,-1.7302,-1.7302,-1.7302,-1.7302,-1.7176,-1.7003,-1.7003,-1.6831,-1.6558,-1.6336,-1.6241,-1.6218,-1.5998,-1.5879,-1.5855,-1.5855,-1.5832,-1.5808,-1.5808,-1.5808,-1.5808,-1.5808,-1.5808,-1.5861,-1.617,-1.6237,-1.631,-1.658,-1.662,-1.66,-1.664,-1.6879,-1.7105,-1.7186,-1.7381,-1.7561,-1.7602,-1.7608,-1.7608,-1.7608,-1.7608,-1.7608,-1.7608,-1.7608,-1.7608,-1.7608,-1.7608,-1.7608,-1.7608,-1.7608,-1.7608,-1.7608,-1.7608,-1.7608,-1.7608,-1.7608,-1.7608,-1.7608,-1.7608,-1.7608,-1.7608,-1.7608,-1.7094,-1.6127,-1.5968,-1.4808,-0.8456,-1.003,-1.1466,-1.3275,-1.3923,-1.4292,-1.4958,-1.5228,-1.5454,-1.5819,-1.6133,-1.6499,-1.6967,-1.7085,-1.7121,-1.728,-1.7302,-1.7302,-1.7302,-1.7302,-1.7302,-1.7302,-1.7302,-1.7302,-1.7302,-1.7302,-1.7302,-1.7302,-1.7302,-1.7302,-1.7302,-1.7302,-1.7302,-1.7302,-1.7302,-1.7302,-1.7302,-1.7302,-1.7302,-1.7302,-1.7302,-1.7302,-1.7302,-1.7302,-1.7302,-1.7302,-1.7302,-1.7302,-1.7302,-1.7302,-1.7099,-1.6784,-1.6784,-1.6518,-1.614,-1.6021,-1.5981,-1.595,-1.5832,-1.5808,-1.5808,-1.5808,-1.5808,-1.5808,-1.5808,-1.5808,-1.5808,-1.5808,-1.5945,-1.6106,-1.6264,-1.6417,-1.6593,-1.6913,-1.6979,-1.7026,-1.7161,-1.72,-1.7246,-1.7388,-1.7521,-1.7608,-1.7608,-1.7608,-1.7608,-1.7608,-1.7608,-1.7608,-1.7608,-1.7608,-1.7608,-1.7608,-1.7608,-1.7608,-1.7608,-1.7608,-1.7608,-1.7608,-1.7608,-1.7608,-1.7608,-1.7608,-1.7608,-1.7608,-1.7608,-1.7285,-1.6638,-1.6638,-1.6047,-1.4888,-1.4245,-1.3383,-0.8742,-0.9802,-1.0587,-1.2535,-1.3209,-1.3601,-1.4474,-1.4783,-1.5039,-1.5549,-1.5709,-1.5943,-1.6536,-1.6727,-1.6858,-1.7157,-1.7208,-1.7214,-1.7295,-1.7302,-1.7302,-1.7302,-1.7302,-1.7302,-1.7302,-1.7302,-1.7302,-1.7302,-1.7302,-1.7302,-1.7302,-1.7302,-1.7302,-1.7302,-1.7302,-1.7302,-1.7302,-1.7302,-1.7302,-1.7302,-1.7302,-1.7302,-1.7302,-1.7302,-1.7302,-1.7302,-1.7302,-1.7302,-1.7302,-1.7302,-1.7028,-1.6612,-1.6612,-1.6275,-1.5808,-1.5808,-1.5808,-1.5808,-1.5808,-1.5808,-1.5808,-1.5808,-1.5808,-1.5808,-1.5808,-1.5808,-1.5808,-1.5808,-1.6046,-1.6317,-1.6384,-1.66,-1.6919,-1.7239,-1.7306,-1.7373,-1.7561,-1.7441,-1.7347,-1.7568,-1.7608,-1.7608,-1.7608,-1.7608,-1.7608,-1.7608,-1.7608,-1.7608,-1.7608,-1.7608,-1.7608,-1.7608,-1.7608,-1.7608,-1.7608,-1.7608,-1.7608,-1.7608,-1.7608,-1.7608,-1.7608,-1.7608,-1.7608,-1.7608,-1.7312,-1.675,-1.5888,-1.5589,-1.4835,-1.3652,-1.2792,-1.2227,-0.7304,-0.8305,-0.9261,-1.121,-1.2367,-1.3206,-1.3898,-1.4482,-1.4907,-1.4944,-1.5199,-1.5534,-1.5899,-1.6199,-1.6521,-1.6873,-1.6925,-1.7005,-1.7258,-1.7302,-1.7302,-1.7302,-1.7302,-1.7302,-1.7302,-1.7302,-1.7302,-1.7302,-1.7302,-1.7302,-1.7302,-1.7302,-1.7302,-1.7302,-1.7302,-1.7302,-1.7302,-1.7302,-1.7302,-1.7302,-1.7302,-1.7302,-1.7302,-1.7302,-1.7302,-1.7302,-1.7302,-1.7302,-1.7302,-1.7302,-1.7028,-1.6612,-1.6612,-1.6275,-1.5808,-1.5808,-1.5808,-1.5808,-1.5808,-1.5808,-1.5808,-1.5808,-1.5808,-1.5808,-1.5808,-1.5808,-1.5808,-1.5808,-1.6046,-1.6364,-1.6613,-1.6926,-1.7253,-1.7515,-1.7588,-1.7588,-1.7608,-1.7595,-1.7588,-1.7608,-1.7608,-1.7608,-1.7608,-1.7608,-1.7608,-1.7608,-1.7608,-1.7608,-1.7608,-1.7608,-1.7608,-1.7608,-1.7608,-1.7608,-1.7608,-1.7608,-1.7608,-1.7608,-1.7608,-1.7608,-1.7608,-1.7608,-1.7608,-1.7608,-1.6532,-1.5968,-1.5888,-1.4754,-1.3599,-1.2494,-1.244,-1.1823,-0.6956,-0.7924,-0.89,-1.028,-1.1217,-1.1992,-1.2848,-1.3543,-1.4109,-1.4553,-1.4876,-1.5177,-1.5519,-1.5841,-1.6199,-1.6514,-1.6587,-1.6697,-1.7005,-1.7049,-1.7099,-1.728,-1.7302,-1.7302,-1.7302,-1.7302,-1.7302,-1.7302,-1.7302,-1.7302,-1.7302,-1.7302,-1.7302,-1.7302,-1.7302,-1.7302,-1.7302,-1.7302,-1.7302,-1.7302,-1.7302,-1.7302,-1.7302,-1.7302,-1.7302,-1.7302,-1.7302,-1.7302,-1.7302,-1.7302,-1.7122,-1.6831,-1.6683,-1.6376,-1.6052,-1.5855,-1.5808,-1.5808,-1.5808,-1.5808,-1.5808,-1.5808,-1.5808,-1.5808,-1.5808,-1.5808,-1.5808,-1.5808,-1.6179,-1.6573,-1.668,-1.7093,-1.7481,-1.7582,-1.7608,-1.7608,-1.7608,-1.7608,-1.7608,-1.7608,-1.7608,-1.7608,-1.7608,-1.7608,-1.7608,-1.7608,-1.7608,-1.7608,-1.7608,-1.7608,-1.7608,-1.7608,-1.7608,-1.7608,-1.7608,-1.7608,-1.7608,-1.7608,-1.7608,-1.7259,-1.6532,-1.6505,-1.6505,-1.6505,-1.462,-1.4003,-1.4754,-1.3572,-1.2413,-1.1314,-1.1314,-1.1099,-0.6281,-0.7137,-0.804,-0.9344,-1.0029,-1.0726,-1.1983,-1.2643,-1.3221,-1.4008,-1.4399,-1.473,-1.5148,-1.5417,-1.5702,-1.6169,-1.6235,-1.6345,-1.669,-1.6734,-1.6792,-1.6982,-1.7099,-1.7172,-1.7172,-1.7244,-1.7302,-1.7302,-1.7302,-1.7302,-1.7302,-1.7302,-1.7302,-1.7302,-1.7302,-1.7302,-1.7302,-1.7302,-1.7302,-1.7302,-1.7302,-1.7302,-1.7302,-1.7302,-1.7263,-1.72,-1.72,-1.7239,-1.7279,-1.7216,-1.7059,-1.6831,-1.6565,-1.6312,-1.6052,-1.5879,-1.5808,-1.5808,-1.5808,-1.5808,-1.5808,-1.5808,-1.5808,-1.5808,-1.5808,-1.5808,-1.5808,-1.5808,-1.6228,-1.6707,-1.6707,-1.7141,-1.7608,-1.7608,-1.7608,-1.7608,-1.7608,-1.7608,-1.7608,-1.7608,-1.7608,-1.7608,-1.7608,-1.7608,-1.7608,-1.7608,-1.7608,-1.7608,-1.7608,-1.7608,-1.7608,-1.7608,-1.7608,-1.7608,-1.7608,-1.7608,-1.7608,-1.7608,-1.7232,-1.6697,-1.5941,-1.5509,-1.5295,-1.5295,-1.3383,-1.2765,-1.3518,-1.2385,-1.1446,-1.0692,-1.0692,-1.0752,0.0,0.0,0.0,-0.8341,-0.8877,-0.9467,-1.1304,-1.1824,-1.2229,-1.325,-1.3711,-1.4143,-1.4754,-1.4878,-1.5097,-1.576,-1.5877,-1.6009,-1.6331,-1.6404,-1.6382,-1.6389,-1.669,-1.6888,-1.6903,-1.7135,-1.7295,-1.7302,-1.7302,-1.7302,-1.7302,-1.7302,-1.7302,-1.7302,-1.7302,-1.7302,-1.7302,-1.7302,-1.7302,-1.7302,-1.7279,-1.7286,-1.7286,-1.7279,-1.7176,-1.6979,-1.6979,-1.7113,-1.7263,-1.7066,-1.6831,-1.6558,-1.6289,-1.6052,-1.5808,-1.5808,-1.5808,-1.5808,-1.5808,-1.5808,-1.5808,-1.5808,-1.5808,-1.5808,-1.5808,-1.5808,-1.5808,-1.5808,-1.6228,-1.6707,-1.6727,-1.7154,-1.7608,-1.7608,-1.7608,-1.7608,-1.7608,-1.7608,-1.7608,-1.7608,-1.7608,-1.7608,-1.7608,-1.7608,-1.7608,-1.7608,-1.7608,-1.7608,-1.7608,-1.7608,-1.7608,-1.7608,-1.7608,-1.7608,-1.7608,-1.7608,-1.7608,-1.7608,-1.6532,-1.5888,-1.5861,-1.4701,-1.4051,-1.4051,-1.2923,-1.2363,-1.239,-1.1259,-1.0692,-1.0692,-1.07,-1.0825,-0.5443,0.0,0.0,0.0,0.0,0.0,-0.9761,-1.0201,-1.0759,-1.2015,-1.2571,-1.3135,-1.4084,-1.4443,-1.4735,-1.5104,-1.5388,-1.5658,-1.5994,-1.6038,-1.6118,-1.6367,-1.647,-1.6639,-1.6873,-1.6983,-1.7077,-1.7288,-1.7302,-1.7302,-1.7302,-1.7302,-1.7302,-1.7302,-1.7302,-1.7302,-1.7302,-1.7302,-1.7302,-1.7302,-1.7153,-1.709,-1.7066,-1.6887,-1.6753,-1.6706,-1.6706,-1.6753,-1.6793,-1.673,-1.6683,-1.6558,-1.6289,-1.6147,-1.6076,-1.5879,-1.5808,-1.5808,-1.5808,-1.5808,-1.5808,-1.5808,-1.5808,-1.5808,-1.5808,-1.5808,-1.5808,-1.5808,-1.6228,-1.6807,-1.7228,-1.7462,-1.7608,-1.7608,-1.7608,-1.7608,-1.7608,-1.7608,-1.7608,-1.7608,-1.7608,-1.7608,-1.7608,-1.7608,-1.7608,-1.7608,-1.7608,-1.7608,-1.7608,-1.7608,-1.7608,-1.7608,-1.7608,-1.7608,-1.7608,-1.7608,-1.7608,-1.7608,-1.6532,-1.5509,-1.462,-1.3491,-1.2874,-1.2874,-1.1742,-1.1582,-1.239,-1.1259,-1.0692,-1.0696,-1.0858,-1.1013,-0.5918,-0.6518,-0.7354,-0.7723,0.0,0.0,-0.9291,-0.9463,-0.9762,-1.1069,-1.153,-1.2002,-1.3021,-1.3371,-1.3663,-1.4189,-1.4441,-1.4825,-1.5586,-1.5695,-1.576,-1.5957,-1.6118,-1.6235,-1.6351,-1.6467,-1.661,-1.6782,-1.6804,-1.6915,-1.7169,-1.7263,-1.7302,-1.7302,-1.7302,-1.7302,-1.7302,-1.7223,-1.7176,-1.7176,-1.6949,-1.6831,-1.6831,-1.6683,-1.6541,-1.6423,-1.6423,-1.6376,-1.6282,-1.6282,-1.6329,-1.64,-1.6147,-1.6028,-1.6004,-1.5855,-1.5808,-1.5808,-1.5808,-1.5808,-1.5808,-1.5808,-1.5808,-1.5808,-1.5808,-1.5808,-1.5808,-1.5808,-1.6228,-1.684,-1.7428,-1.7608,-1.7608,-1.7608,-1.7608,-1.7608,-1.7608,-1.7608,-1.7608,-1.7608,-1.7608,-1.7608,-1.7608,-1.7608,-1.7608,-1.7608,-1.7608,-1.7608,-1.7608,-1.7608,-1.7608,-1.7608,-1.7608,-1.7608,-1.7608,-1.7608,-1.7391,-1.6909,-1.5802,-1.462,-1.3437,-1.2309,-1.1692,-1.1692,-1.1044,-1.1044,-1.1692,-1.1013,-1.0733,-1.0837,-1.0947,-1.1131,-0.6558,-0.6782,-0.724,-0.8117,-0.7884,0.0,-0.9337,-0.9204,-0.9084,-1.0235,-1.0475,-1.0772,-1.1711,-1.1916,-1.2216,-1.3056,-1.3259,-1.3754,-1.5082,-1.5289,-1.5324,-1.5361,-1.5623,-1.577,-1.5605,-1.5791,-1.595,-1.605,-1.6076,-1.6338,-1.6861,-1.7108,-1.7209,-1.7209,-1.7209,-1.7209,-1.7209,-1.7043,-1.6956,-1.6956,-1.669,-1.6565,-1.6541,-1.6511,-1.6376,-1.6153,-1.6153,-1.6028,-1.5808,-1.5808,-1.595,-1.613,-1.5879,-1.5808,-1.5808,-1.5808,-1.5808,-1.5808,-1.5808,-1.5808,-1.5808,-1.5808,-1.5808,-1.5808,-1.5808,-1.5808,-1.5821,-1.5888,-1.6282,-1.684,-1.7428,-1.7608,-1.7608,-1.7608,-1.7608,-1.7608,-1.7608,-1.7608,-1.7608,-1.7608,-1.7608,-1.7608,-1.7608,-1.7608,-1.7608,-1.7608,-1.7608,-1.7608,-1.7608,-1.7608,-1.7608,-1.7608,-1.7608,-1.7556,-1.7417,-1.7529,-1.7067,-1.5775,-1.4701,-1.3599,-1.2445,-1.1314,-1.0692,-1.0692,-1.0692,-1.0704,-1.072,-1.072,-1.0833,-1.0996,-1.1037,-1.12,-0.7161,-0.7639,-0.8343,-0.8066,-0.8404,0.0,-0.8369,-0.8386,-0.8576,-0.8936,-0.9048,-0.9393,-1.039,-1.0785,-1.1196,-1.184,-1.235,-1.3107,-1.433,-1.4642,-1.4865,-1.5123,-1.5231,-1.5346,-1.5584,-1.5461,-1.5463,-1.5757,-1.598,-1.6148,-1.628,-1.6565,-1.6746,-1.6746,-1.6746,-1.6746,-1.6746,-1.6706,-1.6683,-1.6683,-1.6407,-1.6289,-1.6265,-1.6045,-1.5927,-1.5879,-1.5879,-1.5855,-1.5808,-1.5808,-1.5832,-1.5879,-1.5825,-1.5808,-1.5808,-1.5808,-1.5808,-1.5808,-1.5808,-1.5808,-1.5808,-1.5808,-1.5808,-1.5808,-1.5808,-1.5808,-1.5901,-1.6375,-1.662,-1.684,-1.7428,-1.7608,-1.7608,-1.7608,-1.7608,-1.7608,-1.7608,-1.7608,-1.7608,-1.7608,-1.7608,-1.7608,-1.7608,-1.7608,-1.7608,-1.7608,-1.7608,-1.7608,-1.7608,-1.7608,-1.7608,-1.7608,-1.7608,-1.7232,-1.6319,-1.7074,-1.6691,-1.4588,-1.4239,-1.3599,-1.2445,-1.1314,-1.0692,-1.0692,-1.0692,-1.0765,-1.0943,-1.0943,-1.096,-1.1004,-1.1289,-1.1288,-0.7374,-0.7537,-0.8004,-0.7799,-0.812,0.0,0.0,-0.83,-0.8495,-0.8836,-0.8705,-0.8837,-0.9775,-0.9852,-0.9996,-1.0722,-1.1246,-1.1802,-1.254,-1.3572,-1.4318,-1.4474,-1.4496,-1.4575,-1.4782,-1.4678,-1.4745,-1.5077,-1.5468,-1.5777,-1.5943,-1.6234,-1.6451,-1.6605,-1.6612,-1.6612,-1.6612,-1.6471,-1.6407,-1.6407,-1.6123,-1.6004,-1.6004,-1.5855,-1.5808,-1.5808,-1.5808,-1.5808,-1.5808,-1.5808,-1.5808,-1.5808,-1.5808,-1.5808,-1.5808,-1.5808,-1.5808,-1.5808,-1.5808,-1.5808,-1.5808,-1.5808,-1.5808,-1.5808,-1.5808,-1.5808,-1.5928,-1.654,-1.6707,-1.684,-1.7428,-1.7608,-1.7608,-1.7608,-1.7608,-1.7608,-1.7608,-1.7608,-1.7608,-1.7608,-1.7608,-1.7608,-1.7608,-1.7608,-1.7608,-1.7608,-1.7608,-1.7608,-1.7608,-1.7608,-1.7608,-1.7608,-1.7094,-1.6532,-1.5941,-1.5855,-1.5102,-1.3356,-1.3248,-1.2738,-1.161,-1.0989,-1.0692,-1.0692,-1.0813,-1.0903,-1.0996,-1.1175,-1.1265,-1.124,-1.1239,-1.1219,-0.795,-0.7804,-0.7941,-0.7993,-0.8213,-0.8423,0.0,0.0,0.0,-0.8898,-0.8604,-0.8537,-0.9306,-0.9058,-0.8958,-0.9652,-1.0142,-1.0486,-1.0635,-1.2118,-1.3252,-1.3472,-1.3598,-1.3688,-1.3733,-1.3694,-1.3845,-1.4281,-1.4683,-1.51,-1.5536,-1.5865,-1.6153,-1.635,-1.6412,-1.6447,-1.6447,-1.6241,-1.6123,-1.6123,-1.5903,-1.5808,-1.5808,-1.5808,-1.5808,-1.5808,-1.5808,-1.5808,-1.5808,-1.5808,-1.5808,-1.5808,-1.5808,-1.5808,-1.5808,-1.5808,-1.5808,-1.5808,-1.5808,-1.5808,-1.5808,-1.5808,-1.5808,-1.5808,-1.5808,-1.5848,-1.6001,-1.6553,-1.6747,-1.6914,-1.7468,-1.7608,-1.7608,-1.7608,-1.7608,-1.7608,-1.7608,-1.7608,-1.7608,-1.7608,-1.7608,-1.7608,-1.7608,-1.7608,-1.7608,-1.7608,-1.7608,-1.7608,-1.7608,-1.7424,-1.7259,-1.7259,-1.6234,-1.5455,-1.5242,-1.454,-1.3518,-1.2173,-1.2282,-1.1878,-1.0747,-1.0692,-1.0708,-1.0772,-1.0919,-1.1033,-1.1098,-1.13,-1.1441,-1.15,-1.1207,-1.1114,-0.9873,-0.9982,-1.0102,-0.9594,-1.0045,-1.0245,-0.8751,0.0,-0.8911,-0.8186,0.0,-0.8077,-0.847,0.0,0.0,-0.8583,-0.9266,-0.9706,-0.9444,-1.0064,-1.09,-1.193,-1.2514,-1.2841,-1.2856,-1.2626,-1.2832,-1.3633,-1.3534,-1.3782,-1.4598,-1.5178,-1.5503,-1.5537,-1.5762,-1.5903,-1.5903,-1.5855,-1.5855,-1.5855,-1.5808,-1.5808,-1.5808,-1.5808,-1.5808,-1.5808,-1.5808,-1.5808,-1.5808,-1.5808,-1.5808,-1.5808,-1.5808,-1.5808,-1.5808,-1.5808,-1.5808,-1.5808,-1.5808,-1.5808,-1.5808,-1.5808,-1.5808,-1.5808,-1.5808,-1.6012,-1.6317,-1.6613,-1.6919,-1.72,-1.7528,-1.7608,-1.7608,-1.7608,-1.7608,-1.7608,-1.7608,-1.7608,-1.7608,-1.7608,-1.7608,-1.7608,-1.7608,-1.7608,-1.7608,-1.7608,-1.7608,-1.7608,-1.7608,-1.6723,-1.6101,-1.6101,-1.5022,-1.3895,-1.2874,-1.3599,-1.3166,-1.1044,-1.1851,-1.1878,-1.0747,-1.0692,-1.0769,-1.0964,-1.0988,-1.1151,-1.1439,-1.1185,-1.1205,-1.1504,-1.1325,-1.1133,-0.9333,-0.9532,-0.9806,-0.9162,-0.9566,-0.9828,-0.8711,-0.8719,-0.8904,-0.8692,0.0,0.0,0.0,0.0,0.0,0.0,-0.871,-0.8831,-0.8498,-0.8958,-0.9775,-1.097,-1.116,-1.1394,-1.1891,-1.2022,-1.2278,-1.2807,-1.2733,-1.3053,-1.3919,-1.4547,-1.5044,-1.5384,-1.5655,-1.5808,-1.5808,-1.5808,-1.5808,-1.5808,-1.5808,-1.5808,-1.5808,-1.5808,-1.5808,-1.5808,-1.5808,-1.5808,-1.5808,-1.5808,-1.5808,-1.5808,-1.5808,-1.5808,-1.5808,-1.5808,-1.5808,-1.5808,-1.5808,-1.5808,-1.5808,-1.5808,-1.5808,-1.5808,-1.5808,-1.6039,-1.6357,-1.662,-1.6946,-1.7266,-1.7535,-1.7608,-1.7608,-1.7608,-1.7608,-1.7608,-1.7608,-1.7608,-1.7608,-1.7608,-1.7608,-1.7608,-1.7608,-1.7608,-1.7608,-1.7608,-1.7047,-1.6611,-1.6611,-1.5589,-1.4862,-1.4862,-1.3814,-1.2928,-1.2445,-1.2227,-1.1714,-1.0774,-1.1149,-1.1204,-1.0719,-1.0692,-1.0777,-1.0992,-1.1066,-1.1154,-1.1205,-1.1181,-1.1138,-1.1082,-1.085,-1.0637,-0.9606,-0.9795,-1.009,-0.928,-0.9444,-0.9578,-0.8763,-0.8823,-0.9051,-0.9084,-0.8911,0.0,0.0,0.0,-0.8258,-0.8269,0.0,-0.8363,-0.7959,-0.8211,-0.8831,-0.9869,-0.9995,-1.0265,-1.0979,-1.1206,-1.1507,-1.2024,-1.1911,-1.2325,-1.342,-1.3987,-1.4561,-1.528,-1.5558,-1.5728,-1.5808,-1.5808,-1.5808,-1.5808,-1.5808,-1.5808,-1.5808,-1.5808,-1.5808,-1.5808,-1.5808,-1.5808,-1.5808,-1.5808,-1.5808,-1.5808,-1.5808,-1.5808,-1.5808,-1.5808,-1.5808,-1.5808,-1.5808,-1.5808,-1.5808,-1.5808,-1.5808,-1.5821,-1.5901,-1.6159,-1.6478,-1.6772,-1.7066,-1.7341,-1.7555,-1.7608,-1.7608,-1.7608,-1.7608,-1.7608,-1.7608,-1.7608,-1.7503,-1.718,-1.7127,-1.7015,-1.6691,-1.6909,-1.7127,-1.7127,-1.6154,-1.5402,-1.5402,-1.4379,-1.3625,-1.3625,-1.2603,-1.1932,-1.1932,-1.1177,-1.0692,-1.0692,-1.0692,-1.0692,-1.0692,-1.0741,-1.0882,-1.1061,-1.1125,-1.1123,-1.1094,-1.1034,-1.091,-1.0668,-1.0395,-1.0304,-1.1879,-1.1983,-1.1943,-1.0816,-1.0555,-1.0254,-0.9057,-0.9245,-0.9513,-0.8938,-0.9259,-0.9487,-0.8925,-0.8998,-0.8884,-0.8059,-0.8411,0.0,0.0,-0.7689,-0.7777,-0.8395,-0.9199,-0.9834,-1.0112,-0.9913,-1.0227,-1.1352,-1.0952,-1.14,-1.3113,-1.3487,-1.4054,-1.4972,-1.5257,-1.5545,-1.5801,-1.5808,-1.5808,-1.5808,-1.5808,-1.5808,-1.5808,-1.5808,-1.5808,-1.5808,-1.5808,-1.5808,-1.5808,-1.5808,-1.5808,-1.5808,-1.5808,-1.5808,-1.5808,-1.5808,-1.5808,-1.5808,-1.5808,-1.5808,-1.5808,-1.5808,-1.5808,-1.5861,-1.6197,-1.646,-1.6754,-1.708,-1.7367,-1.7595,-1.7608,-1.7608,-1.7608,-1.7608,-1.7608,-1.7608,-1.7608,-1.7608,-1.7259,-1.618,-1.5941,-1.5589,-1.44,-1.5183,-1.5941,-1.5941,-1.4942,-1.4159,-1.4159,-1.3166,-1.244,-1.244,-1.1419,-1.0747,-1.0747,-1.0719,-1.0692,-1.0692,-1.0692,-1.0692,-1.0692,-1.0894,-1.1041,-1.1183,-1.1073,-1.1098,-1.1295,-1.0634,-1.0334,-1.0304,-1.0304,-1.0304,-1.2516,-1.2812,-1.2887,-1.1759,-1.1293,-1.0828,-0.9667,-0.9686,-0.9753,-0.8965,-0.9426,-0.9772,-0.9171,-0.8991,-0.8844,-0.8544,-0.8517,-0.8322,0.0,-0.7558,-0.7638,-0.8017,-0.8684,-0.9065,-0.8985,-0.9211,-0.9618,-1.0227,-1.0486,-1.1109,-1.2276,-1.314,-1.394,-1.4649,-1.5144,-1.5538,-1.5801,-1.5808,-1.5808,-1.5808,-1.5808,-1.5808,-1.5808,-1.5808,-1.5808,-1.5808,-1.5808,-1.5808,-1.5808,-1.5808,-1.5808,-1.5808,-1.5808,-1.5808,-1.5808,-1.5808,-1.5808,-1.5808,-1.5808,-1.5808,-1.5808,-1.5808,-1.5941,-1.6139,-1.627,-1.6638,-1.7046,-1.7172,-1.7388,-1.7608,-1.7608,-1.7608,-1.7608,-1.7608,-1.7608,-1.7608,-1.7608,-1.7608,-1.7259,-1.6127,-1.5888,-1.5509,-1.432,-1.3814,-1.3841,-1.4594,-1.3733,-1.2977,-1.2977,-1.1982,-1.1259,-1.1259,-1.0935,-1.0692,-1.0692,-1.0692,-1.0692,-1.0692,-1.0692,-1.0692,-1.0692,-1.0899,-1.1049,-1.1191,-1.1081,-1.099,-1.097,-1.0516,-1.0183,-0.9974,-0.9974,-0.9974,-1.2978,-1.3267,-1.334,-1.2298,-1.1877,-1.1386,-1.0127,-1.014,-1.0165,-0.9299,-0.9566,-0.9913,-0.9725,-0.9285,-0.8951,-0.8951,-0.8631,-0.8147,0.0,-0.7506,-0.7629,-0.7586,-0.8211,-0.863,-0.855,-0.8664,-0.8958,-0.9486,-0.9794,-1.0486,-1.1667,-1.2613,-1.356,-1.4467,-1.499,-1.5431,-1.5801,-1.5808,-1.5808,-1.5808,-1.5808,-1.5808,-1.5808,-1.5808,-1.5808,-1.5808,-1.5808,-1.5808,-1.5808,-1.5808,-1.5808,-1.5808,-1.5808,-1.5808,-1.5808,-1.5808,-1.5808,-1.5808,-1.5808,-1.5808,-1.5821,-1.5952,-1.6119,-1.6337,-1.6545,-1.6898,-1.7226,-1.7326,-1.7468,-1.7608,-1.7608,-1.7608,-1.7503,-1.7094,-1.6988,-1.6882,-1.6446,-1.6366,-1.6015,-1.4888,-1.4653,-1.4272,-1.3085,-1.2282,-1.2173,-1.3329,-1.2521,-1.1796,-1.1796,-1.1149,-1.0692,-1.0692,-1.0692,-1.0692,-1.0692,-1.0692,-1.0692,-1.0692,-1.0692,-1.0692,-1.0692,-1.0928,-1.1053,-1.1018,-1.0963,-1.0838,-1.0607,-1.0304,-1.0004,-0.9792,-0.9792,-0.9792]},{"header":{"parameterUnit":"m.s-1","parameterCategory":1,"la1":30.6,"la2":29.2853,"lo1":-89.7004,"lo2":-87.6739,"dy":0.0162,"dx":0.0183,"nx":112,"ny":82,"refTime":"2024-09-18T06:00:00:Z","depth":0,"parameterNumber":3,"parameterNumberName":"V-component_of_WINDS"},"data":[0.0,0.0,0.0,0.0,0.0,0.0,0.0,0.0,0.0,0.0,0.0,0.0,0.0,0.0,0.0,0.0,0.0,0.0,0.0,0.0,0.0,0.0,0.0,0.0,0.0,0.0,0.0,0.0,0.0,0.0,0.0,0.0,0.0,0.0,0.0,0.0,0.0,0.0,0.0,0.0,0.0,0.0,0.0,0.0,0.0,0.0,0.0,0.0,0.0,0.0,0.0,0.0,0.0,0.0,0.0,0.0,0.0,0.0,0.0,0.0,0.0,0.0,0.0,0.0,0.0,0.0,0.0,0.0,0.0,0.0,0.0,0.0,0.0,0.0,0.0,0.0,0.0,0.0,0.0,0.0,0.0,0.0,0.0,0.0,0.0,0.0,0.0,0.0,0.0,0.0,1.8366,2.0638,2.3631,2.545,2.5395,2.5452,2.3705,1.9548,0.0,0.0,0.0,0.0,0.0,0.0,0.0,0.0,0.0,0.0,0.0,0.0,0.0,0.0,0.0,0.0,0.0,0.0,0.0,0.0,0.0,0.0,0.0,0.0,0.0,0.0,0.0,0.0,0.0,0.0,0.0,0.0,0.0,0.0,0.0,0.0,0.0,0.0,0.0,0.0,0.0,0.0,0.0,0.0,0.0,0.0,0.0,0.0,0.0,0.0,0.0,0.0,0.0,0.0,0.0,0.0,0.0,0.0,0.0,0.0,0.0,0.0,0.0,0.0,0.0,0.0,0.0,0.0,0.0,0.0,0.0,0.0,0.0,0.0,0.0,0.0,0.0,0.0,0.0,0.0,0.0,0.0,0.0,0.0,0.0,0.0,0.0,0.0,0.0,0.0,0.0,0.0,0.0,0.0,0.0,0.0,0.0,0.0,0.0,0.0,0.0,0.0,0.0,0.0,1.8373,2.3022,2.4614,2.5341,2.5404,2.5403,2.3895,2.0344,0.0,0.0,0.0,0.0,0.0,0.0,0.0,0.0,0.0,0.0,0.0,0.0,0.0,0.0,0.0,0.0,0.0,0.0,0.0,0.0,0.0,0.0,0.0,0.0,0.0,0.0,0.0,0.0,0.0,0.0,0.0,0.0,0.0,0.0,0.0,0.0,0.0,0.0,0.0,0.0,0.0,0.0,0.0,0.0,0.0,0.0,0.0,0.0,0.0,0.0,0.0,0.0,0.0,0.0,0.0,0.0,0.0,0.0,0.0,0.0,0.0,0.0,0.0,0.0,0.0,0.0,0.0,0.0,0.0,0.0,0.0,0.0,0.0,0.0,0.0,0.0,0.0,0.0,0.0,0.0,0.0,0.0,0.0,0.0,0.0,0.0,0.0,0.0,0.0,0.0,0.0,0.0,0.0,0.0,0.0,0.0,0.0,0.0,0.0,0.0,0.0,0.0,0.0,1.8014,2.0113,2.4291,2.5077,2.5305,2.5333,2.5356,2.3884,2.046,1.868,0.0,0.0,0.0,0.0,0.0,0.0,0.0,0.0,0.0,0.0,0.0,0.0,0.0,0.0,0.0,0.0,0.0,0.0,0.0,0.0,0.0,0.0,0.0,0.0,0.0,0.0,0.0,0.0,0.0,0.0,0.0,0.0,0.0,0.0,0.0,0.0,0.0,0.0,0.0,0.0,0.0,0.0,0.0,0.0,0.0,0.0,0.0,0.0,0.0,0.0,0.0,0.0,0.0,0.0,0.0,0.0,0.0,0.0,0.0,0.0,0.0,0.0,0.0,0.0,0.0,0.0,0.0,0.0,0.0,0.0,0.0,0.0,0.0,0.0,0.0,0.0,0.0,0.0,0.0,0.0,0.0,0.0,0.0,0.0,0.0,0.0,0.0,0.0,0.0,0.0,0.0,0.0,0.0,0.0,0.0,0.0,0.0,0.0,0.0,0.0,0.0,0.0,2.0696,2.2252,2.5017,2.5305,2.5305,2.5305,2.4942,2.3412,2.0387,1.8256,0.0,0.0,0.0,0.0,0.0,0.0,0.0,0.0,0.0,0.0,0.0,0.0,0.0,0.0,0.0,0.0,0.0,0.0,0.0,0.0,0.0,0.0,0.0,0.0,0.0,0.0,0.0,0.0,0.0,0.0,0.0,0.0,0.0,0.0,0.0,0.0,0.0,0.0,0.0,0.0,0.0,0.0,0.0,0.0,0.0,0.0,0.0,0.0,0.0,0.0,0.0,0.0,0.0,0.0,0.0,0.0,0.0,0.0,0.0,0.0,0.0,0.0,0.0,0.0,0.0,0.0,0.0,0.0,0.0,0.0,0.0,0.0,0.0,0.0,0.0,0.0,0.0,0.0,0.0,0.0,0.0,0.0,0.0,0.0,0.0,0.0,0.0,0.0,0.0,0.0,0.0,0.0,0.0,0.0,0.0,0.0,0.0,0.0,0.0,0.0,0.0,0.0,2.1878,2.4202,2.5192,2.5305,2.5305,2.5305,2.387,2.2186,2.0329,1.7156,0.0,0.0,0.0,0.0,0.0,0.0,0.0,0.0,0.0,0.0,0.0,0.0,0.0,0.0,0.0,0.0,0.0,0.0,0.0,0.0,0.0,0.0,0.0,0.0,0.0,0.0,0.0,0.0,0.0,0.0,0.0,0.0,0.0,0.0,0.0,0.0,0.0,0.0,0.0,0.0,0.0,0.0,0.0,0.0,0.0,0.0,0.0,0.0,0.0,0.0,0.0,0.0,0.0,0.0,0.0,0.0,0.0,0.0,0.0,0.0,0.0,0.0,0.0,0.0,0.0,0.0,0.0,0.0,0.0,0.0,0.0,0.0,0.0,0.0,0.0,0.0,0.0,0.0,0.0,0.0,0.0,0.0,0.0,0.0,0.0,0.0,0.0,0.0,0.0,0.0,0.0,0.0,0.0,0.0,0.0,0.0,0.0,0.0,0.0,0.0,0.0,0.0,2.1122,2.3328,2.523,2.5421,2.5421,2.5421,2.4846,2.328,2.0438,0.0,0.0,0.0,0.0,0.0,0.0,0.0,0.0,0.0,0.0,0.0,0.0,0.0,0.0,0.0,0.0,0.0,0.0,0.0,0.0,0.0,0.0,0.0,0.0,0.0,0.0,0.0,0.0,0.0,0.0,0.0,0.0,0.0,0.0,0.0,0.0,0.0,0.0,0.0,0.0,0.0,0.0,0.0,0.0,0.0,0.0,0.0,0.0,0.0,0.0,0.0,0.0,0.0,0.0,0.0,0.0,0.0,0.0,0.0,0.0,0.0,0.0,0.0,0.0,0.0,0.0,0.0,0.0,0.0,0.0,0.0,0.0,0.0,0.0,0.0,0.0,0.0,0.0,0.0,0.0,0.0,0.0,0.0,0.0,0.0,0.0,0.0,0.0,0.0,0.0,0.0,0.0,0.0,0.0,0.0,0.0,0.0,0.0,0.0,0.0,0.0,0.0,1.9136,2.1491,2.3575,2.531,2.5503,2.5503,2.5503,2.5002,2.3331,2.0085,0.0,0.0,0.0,0.0,0.0,0.0,0.0,0.0,0.0,0.0,0.0,0.0,0.0,0.0,0.0,0.0,0.0,0.0,0.0,0.0,0.0,0.0,0.0,0.0,0.0,0.0,0.0,0.0,0.0,0.0,0.0,0.0,0.0,0.0,0.0,0.0,0.0,0.0,0.0,0.0,0.0,0.0,0.0,0.0,0.0,0.0,0.0,0.0,0.0,0.0,0.0,0.0,0.0,0.0,0.0,0.0,0.0,0.0,0.0,0.0,0.0,0.0,0.0,0.0,0.0,0.0,0.0,0.0,0.0,0.0,0.0,0.0,0.0,0.0,0.0,0.0,0.0,0.0,0.0,0.0,0.0,0.0,0.0,0.0,0.0,0.0,0.0,0.0,0.0,0.0,0.0,0.0,0.0,0.0,0.0,0.0,0.0,0.0,0.0,0.0,0.0,0.0,2.0183,2.3382,2.5504,2.5504,2.5504,2.5504,2.5504,2.3984,2.1889,0.0,0.0,0.0,0.0,0.0,0.0,0.0,0.0,0.0,0.0,0.0,0.0,0.0,0.0,0.0,0.0,0.0,0.0,0.0,0.0,0.0,0.0,0.0,0.0,0.0,0.0,0.0,0.0,0.0,0.0,0.0,0.0,0.0,0.0,0.0,0.0,0.0,0.0,0.0,0.0,0.0,0.0,0.0,0.0,0.0,0.0,0.0,0.0,0.0,0.0,0.0,0.0,0.0,0.0,0.0,0.0,0.0,0.0,0.0,0.0,0.0,0.0,0.0,0.0,0.0,0.0,0.0,0.0,0.0,0.0,0.0,0.0,0.0,0.0,0.0,0.0,0.0,0.0,0.0,0.0,0.0,0.0,0.0,0.0,0.0,0.0,0.0,0.0,0.0,0.0,0.0,0.0,0.0,0.0,0.0,0.0,0.0,0.0,0.0,0.0,0.0,0.0,0.0,2.0244,2.3503,2.5644,2.5644,2.5644,2.5644,2.5644,2.5199,2.3511,2.0256,0.0,0.0,0.0,0.0,0.0,0.0,0.0,0.0,0.0,0.0,0.0,0.0,0.0,0.0,0.0,0.0,0.0,0.0,0.0,0.0,0.0,0.0,0.0,0.0,0.0,0.0,0.0,0.0,0.0,0.0,0.0,0.0,0.0,0.0,0.0,0.0,0.0,0.0,0.0,0.0,0.0,0.0,0.0,0.0,0.0,0.0,0.0,0.0,0.0,0.0,0.0,0.0,0.0,0.0,0.0,0.0,0.0,0.0,0.0,0.0,0.0,0.0,0.0,0.0,0.0,0.0,0.0,0.0,0.0,0.0,0.0,0.0,0.0,0.0,0.0,0.0,0.0,0.0,0.0,0.0,0.0,0.0,0.0,0.0,0.0,0.0,0.0,0.0,0.0,0.0,0.0,0.0,0.0,0.0,0.0,0.0,0.0,0.0,0.0,0.0,0.0,0.0,2.0275,2.3526,2.5661,2.5708,2.5694,2.5695,2.5707,2.5707,2.4217,2.0721,0.0,0.0,0.0,0.0,0.0,0.0,0.0,0.0,0.0,0.0,0.0,0.0,0.0,0.0,0.0,0.0,0.0,0.0,0.0,0.0,0.0,0.0,0.0,0.0,0.0,0.0,0.0,0.0,0.0,0.0,0.0,0.0,0.0,0.0,0.0,0.0,0.0,0.0,0.0,0.0,0.0,0.0,0.0,0.0,0.0,0.0,0.0,0.0,0.0,0.0,0.0,0.0,0.0,0.0,0.0,0.0,0.0,0.0,0.0,0.0,0.0,0.0,0.0,0.0,0.0,0.0,0.0,0.0,0.0,0.0,0.0,0.0,0.0,0.0,0.0,0.0,0.0,0.0,0.0,0.0,0.0,0.0,0.0,0.0,0.0,0.0,0.0,0.0,0.0,0.0,0.0,0.0,0.0,0.0,0.0,0.0,0.0,0.0,0.0,0.0,0.0,0.0,2.0286,2.3496,2.5621,2.5676,2.5682,2.5683,2.5694,2.5693,2.4263,2.0949,0.0,0.0,0.0,0.0,0.0,0.0,0.0,0.0,0.0,0.0,0.0,0.0,0.0,0.0,0.0,0.0,0.0,0.0,0.0,0.0,0.0,0.0,0.0,0.0,0.0,0.0,0.0,0.0,0.0,0.0,0.0,0.0,0.0,0.0,0.0,0.0,0.0,0.0,0.0,0.0,0.0,0.0,0.0,0.0,0.0,0.0,0.0,0.0,0.0,0.0,0.0,0.0,0.0,0.0,0.0,0.0,0.0,0.0,0.0,0.0,1.6823,1.5785,0.0,0.0,0.0,0.0,0.0,0.0,0.0,0.0,0.0,0.0,0.0,0.0,0.0,0.0,0.0,0.0,0.0,0.0,0.0,0.0,0.0,0.0,0.0,0.0,0.0,0.0,0.0,0.0,0.0,0.0,0.0,0.0,0.0,0.0,0.0,0.0,0.0,0.0,0.0,0.0,2.0273,2.3491,2.5613,2.5619,2.5617,2.5617,2.5619,2.562,2.4744,2.2675,2.0917,0.0,0.0,0.0,0.0,0.0,0.0,0.0,0.0,0.0,0.0,0.0,0.0,0.0,0.0,0.0,0.0,0.0,0.0,0.0,0.0,0.0,0.0,0.0,0.0,0.0,0.0,0.0,0.0,0.0,0.0,0.0,0.0,0.0,0.0,0.0,0.0,0.0,0.0,0.0,0.0,0.0,0.0,0.0,0.0,0.0,0.0,0.0,0.0,0.0,0.0,0.0,0.0,0.0,0.0,0.0,0.0,0.0,0.0,0.0,1.9664,1.8516,0.0,0.0,0.0,0.0,0.0,0.0,0.0,0.0,0.0,0.0,0.0,0.0,0.0,0.0,0.0,0.0,0.0,0.0,0.0,0.0,0.0,0.0,0.0,0.0,0.0,0.0,0.0,0.0,0.0,0.0,0.0,0.0,0.0,0.0,0.0,0.0,0.0,0.0,0.0,0.0,2.0891,2.3736,2.5598,2.5607,2.5599,2.5596,2.5608,2.5609,2.5066,2.3804,2.2098,0.0,0.0,0.0,0.0,0.0,0.0,0.0,0.0,0.0,0.0,0.0,0.0,0.0,0.0,0.0,0.0,0.0,0.0,0.0,0.0,0.0,0.0,0.0,0.0,0.0,0.0,0.0,0.0,0.0,0.0,0.0,0.0,0.0,0.0,0.0,0.0,0.0,0.0,0.0,0.0,0.0,0.0,0.0,0.0,0.0,0.0,0.0,0.0,0.0,0.0,0.0,0.0,0.0,2.3464,2.459,2.5223,2.5284,2.6078,2.7218,2.294,2.2068,2.3417,2.03,0.0,0.0,0.0,0.0,0.0,0.0,0.0,0.0,0.0,0.0,0.0,0.0,0.0,0.0,0.0,0.0,0.0,0.0,0.0,0.0,0.0,0.0,2.3876,2.3848,2.4949,2.4787,2.0451,0.0,0.0,0.0,0.0,0.0,0.0,0.0,0.0,0.0,0.0,0.0,2.1984,2.4347,2.587,2.6019,2.5902,2.5837,2.5828,2.5694,2.5324,2.4645,2.3116,2.1846,0.0,0.0,0.0,0.0,0.0,0.0,0.0,0.0,0.0,0.0,0.0,0.0,0.0,0.0,0.0,0.0,0.0,0.0,0.0,0.0,0.0,0.0,0.0,0.0,0.0,0.0,0.0,0.0,0.0,0.0,0.0,0.0,1.4911,1.5869,0.0,0.0,0.0,0.0,0.0,0.0,0.0,0.0,0.0,0.0,0.0,0.0,0.0,2.2747,2.4378,2.6112,2.7369,2.8108,2.9103,2.9632,2.9735,2.9683,2.9783,2.9974,2.9226,0.0,2.6154,2.418,0.0,0.0,0.0,0.0,0.0,0.0,0.0,0.0,0.0,0.0,0.0,0.0,0.0,0.0,0.0,0.0,0.0,0.0,0.0,0.0,0.0,0.0,2.7309,2.7192,2.7338,2.7291,2.648,2.3058,1.9848,1.8877,1.8076,1.7236,0.0,0.0,0.0,0.0,0.0,0.0,2.3659,2.5571,2.7007,2.7698,2.7152,2.6726,2.6733,2.6033,2.5547,2.545,2.4518,2.3612,2.2792,2.0976,0.0,0.0,0.0,0.0,0.0,0.0,0.0,0.0,0.0,0.0,0.0,0.0,0.0,0.0,0.0,0.0,0.0,0.0,0.0,0.0,0.0,0.0,0.0,0.0,0.0,0.0,0.0,0.0,0.0,1.4584,1.6275,1.7173,1.6911,1.6508,0.0,0.0,0.0,0.0,0.0,0.0,0.0,0.0,0.0,2.3879,2.5059,2.6252,2.7464,2.8728,2.9784,3.0653,3.1484,3.1881,3.1898,3.174,3.168,3.1674,3.1528,3.0871,2.9707,2.7318,2.59,2.5076,0.0,0.0,0.0,0.0,2.4393,2.4992,2.6798,2.6814,2.5959,2.5451,0.0,0.0,0.0,0.0,0.0,0.0,0.0,2.52,2.6501,2.8358,2.9891,2.9788,3.0142,3.035,2.9801,2.7682,2.5239,2.3009,2.196,2.0724,1.8441,1.8426,0.0,0.0,0.0,2.336,2.5489,2.6816,2.7717,2.8063,2.7773,2.7561,2.7561,2.6805,2.6333,2.6338,2.5518,2.4861,2.4514,2.2822,2.1179,0.0,0.0,0.0,0.0,0.0,0.0,0.0,0.0,0.0,0.0,0.0,0.0,0.0,0.0,0.0,0.0,0.0,0.0,0.0,0.0,0.0,0.0,0.0,0.0,0.0,0.0,0.0,0.0,1.6514,1.8332,1.943,1.9494,1.9234,0.0,0.0,0.0,0.0,0.0,0.0,2.2875,2.5515,2.7207,2.7638,2.8631,2.9569,3.0396,3.1194,3.2032,3.2918,3.3663,3.4025,3.4021,3.3875,3.3794,3.379,3.3646,3.3582,3.3326,3.0113,2.8807,2.8661,2.7183,2.6617,2.6802,2.8115,2.8731,2.9197,3.1083,3.0931,2.9826,2.9393,2.8069,2.6453,2.543,0.0,0.0,0.0,0.0,2.7933,2.9136,3.0565,3.1694,3.16,3.2072,3.2355,3.1667,3.1074,2.9798,2.6747,2.5585,2.4233,2.1471,2.1491,0.0,2.2045,2.3637,2.5468,2.7265,2.8,2.8471,2.8701,2.8547,2.8417,2.8432,2.7678,2.7215,2.7215,2.6417,2.5931,2.5931,2.4468,2.3164,2.2136,0.0,0.0,0.0,0.0,0.0,0.0,0.0,0.0,0.0,0.0,0.0,0.0,0.0,0.0,0.0,0.0,0.0,0.0,0.0,0.0,0.0,0.0,0.0,0.0,0.0,0.0,0.0,0.0,0.0,2.3865,2.4004,0.0,0.0,0.0,0.0,2.3685,2.5419,2.6403,2.6437,2.9574,3.1026,3.0248,3.1804,3.3074,3.3936,3.4558,3.5308,3.6163,3.6787,3.7072,3.7072,3.7081,3.7057,3.7057,3.7046,3.706,3.6739,3.2626,3.0976,3.0942,2.9956,2.9665,2.9781,2.9862,3.0426,3.1167,3.1298,3.1278,3.1336,3.2126,3.1187,2.9903,3.0657,2.9776,0.0,0.0,3.0383,3.1062,3.1153,3.1848,3.2507,3.2376,3.2374,3.2348,3.2117,3.2179,3.1578,2.9176,2.8116,2.7292,2.6304,0.0,2.6292,2.6296,2.6391,2.7109,2.8859,2.9129,2.9492,3.0382,2.9726,2.9266,2.9325,2.8531,2.8044,2.8044,2.7272,2.6828,2.6828,2.5954,2.4674,2.2963,2.1204,0.0,0.0,0.0,0.0,0.0,0.0,0.0,0.0,0.0,0.0,0.0,0.0,0.0,0.0,0.0,0.0,0.0,0.0,0.0,0.0,0.0,0.0,0.0,0.0,0.0,0.0,0.0,0.0,2.4962,2.6045,0.0,2.5183,2.5427,2.5911,2.6535,2.8139,2.9337,2.989,3.2075,3.317,3.2856,3.3804,3.4722,3.5603,3.5653,3.6117,3.6981,3.7191,3.7306,3.7301,3.7162,3.7102,3.709,3.6965,3.6918,3.6806,3.5299,3.454,3.4169,3.2831,3.2665,3.3232,3.3839,3.3918,3.3836,3.4398,3.3883,3.2924,3.2672,3.2187,3.1737,3.2031,3.1667,3.128,3.2081,3.2484,3.2779,3.3289,3.3658,3.3875,3.3824,3.3823,3.3807,3.3721,3.3354,3.2807,3.2005,3.0875,2.9791,2.8957,2.8794,2.8859,2.9011,2.9495,3.0259,3.1493,3.1158,3.0942,3.1266,3.054,3.0011,3.0039,2.9324,2.8627,2.8061,2.7328,2.6652,2.6087,2.5776,2.5317,2.4693,2.298,2.0858,0.0,0.0,0.0,0.0,0.0,0.0,0.0,0.0,0.0,0.0,0.0,0.0,0.0,0.0,0.0,0.0,0.0,0.0,0.0,0.0,0.0,0.0,0.0,0.0,0.0,2.32,2.5064,2.6217,2.7823,2.8415,2.7291,2.8405,2.9286,2.9576,3.1168,3.2206,3.2403,3.4286,3.5181,3.4829,3.5471,3.6129,3.67,3.6723,3.7028,3.761,3.7809,3.7907,3.7901,3.7772,3.7717,3.7711,3.7564,3.751,3.7492,3.7213,3.7075,3.6893,3.5318,3.5078,3.5671,3.6285,3.6188,3.5851,3.6435,3.5918,3.4883,3.43,3.4124,3.4124,3.4124,3.406,3.4096,3.4625,3.4721,3.4771,3.5302,3.5433,3.5377,3.5095,3.5039,3.4964,3.4663,3.417,3.3815,3.3869,3.2674,3.1526,3.1036,3.0933,3.0962,3.1152,3.1635,3.2204,3.282,3.2391,3.2042,3.2072,3.1314,3.081,3.0841,2.9868,2.9027,2.844,2.7385,2.6539,2.5956,2.5701,2.5573,2.5573,2.3889,2.1889,1.9631,0.0,0.0,0.0,0.0,0.0,0.0,0.0,0.0,0.0,0.0,0.0,0.0,0.0,0.0,0.0,0.0,0.0,0.0,0.0,0.0,0.0,0.0,0.0,2.3154,2.4581,2.6298,2.7926,2.9602,3.0622,3.0622,3.1344,3.2132,3.2942,3.4567,3.5046,3.3962,3.626,3.7124,3.6108,3.6888,3.7334,3.7372,3.7939,3.8233,3.8246,3.8814,3.9101,3.9101,3.9101,3.9101,3.9101,3.9101,3.9101,3.9045,3.8265,3.8395,3.8934,3.7362,3.6889,3.7055,3.7,3.7049,3.7123,3.7104,3.711,3.711,3.711,3.711,3.711,3.711,3.711,3.711,3.711,3.711,3.711,3.711,3.711,3.6898,3.6122,3.5935,3.5709,3.487,3.4682,3.4663,3.4655,3.3496,3.2546,3.264,3.2736,3.2768,3.2772,3.2772,0.0,3.2772,3.2756,3.2775,3.2821,3.2109,3.1655,3.1686,3.0182,2.9206,2.9168,2.755,2.6604,2.6604,2.5909,2.5532,2.5532,2.3917,2.2258,2.0565,0.0,0.0,0.0,0.0,0.0,0.0,0.0,0.0,0.0,0.0,0.0,0.0,0.0,0.0,0.0,0.0,0.0,0.0,0.0,0.0,0.0,2.4333,2.6108,2.6467,2.8536,3.0176,3.063,3.2157,3.3171,3.3185,3.378,3.4527,3.5364,3.5708,3.5998,3.6326,3.6994,3.7548,3.7871,3.7924,3.8258,3.8897,3.8863,3.8856,3.8856,3.9024,3.9101,3.9101,3.9101,3.9101,3.9101,3.9101,3.9101,3.9082,3.8859,3.8897,3.8996,3.8021,3.8037,3.8605,3.8675,3.8371,3.7809,3.7299,3.711,3.711,3.711,3.711,3.711,3.711,3.711,3.711,3.711,3.711,3.711,3.711,3.711,3.7029,3.6823,3.6766,3.6691,3.6453,3.641,3.6272,3.5843,3.5423,3.4965,3.4372,3.4285,3.4348,3.4497,3.4518,3.4518,3.4518,3.4006,3.3655,3.3666,3.2901,3.2166,3.1607,3.0608,2.9478,2.8264,2.7188,2.66,2.6593,2.6418,2.6292,2.6292,2.5313,2.3954,0.0,0.0,0.0,0.0,0.0,0.0,0.0,0.0,0.0,0.0,0.0,0.0,0.0,0.0,0.0,0.0,0.0,0.0,0.0,0.0,0.0,0.0,2.7376,2.9161,3.0265,3.1166,3.1968,3.266,3.3831,3.4709,3.5093,3.5668,3.6235,3.673,3.6975,3.7259,3.7658,3.8028,3.8403,3.8799,3.8659,3.9,3.9879,3.973,3.9814,4.0148,3.9814,3.964,3.9628,3.9268,3.9101,3.9101,3.9101,3.9013,3.888,3.888,3.8818,3.8666,0.0,0.0,0.0,0.0,3.9151,3.8684,3.8288,3.8143,3.8143,3.8143,3.8143,3.8143,3.8143,3.8143,3.8143,3.8143,3.8143,3.8143,3.8143,3.8143,3.8068,3.7687,3.7611,3.7518,3.7167,3.7021,3.6865,3.6616,3.6437,0.0,3.5546,3.5201,3.5068,3.517,3.5205,3.5205,3.5205,3.4789,3.4503,3.4503,3.3757,3.307,3.2592,3.1143,0.0,0.0,0.0,2.7072,2.7098,2.71,0.0,0.0,0.0,0.0,0.0,2.6301,0.0,0.0,2.4598,2.5146,0.0,0.0,0.0,0.0,0.0,0.0,0.0,0.0,0.0,0.0,0.0,0.0,0.0,0.0,0.0,0.0,3.0912,3.2453,3.3939,3.3095,3.2852,3.4241,3.4963,3.5681,3.6558,3.7113,3.744,3.7535,3.8248,3.8545,3.8309,3.9127,0.0,0.0,0.0,3.9758,4.052,4.0538,4.0891,4.1597,4.0837,4.0462,4.0444,3.9621,3.9248,3.9248,3.9248,3.9076,3.8808,3.8846,3.8724,3.8538,3.8907,3.9075,3.917,3.9405,3.9489,3.9508,3.9583,0.0,0.0,3.9589,3.9589,3.9589,3.9589,3.9589,3.9589,3.9589,3.9589,3.9589,3.9589,3.9577,3.9364,3.8583,3.8377,3.8171,3.7471,3.7125,3.7025,3.7183,3.6957,3.6646,3.6385,3.5755,3.5263,3.5201,3.5205,3.5205,3.5205,3.5205,3.5205,3.5205,3.456,0.0,3.401,3.1832,3.0437,3.0341,2.8943,2.8157,2.8201,2.83,2.8332,2.8299,2.9099,2.947,2.9396,3.1129,3.1633,3.0894,2.7951,2.8196,0.0,0.0,0.0,0.0,0.0,0.0,0.0,0.0,0.0,0.0,0.0,0.0,0.0,0.0,0.0,3.1606,3.2837,3.3969,3.5396,3.5946,3.6089,3.57,3.6378,3.7221,3.809,3.8084,3.8323,3.9024,3.9033,3.8976,3.8935,3.9742,4.0205,4.0148,4.078,4.1207,4.1374,4.1374,4.1449,4.159,4.1106,0.0,4.0872,4.0377,4.016,4.016,4.016,4.0107,4.009,4.0404,4.0699,4.0773,3.9271,3.8748,3.8851,3.9268,3.945,3.9508,3.9583,3.9589,3.9589,3.9589,3.9589,3.9589,3.9589,3.9589,0.0,3.9589,3.9589,3.9589,3.9589,3.9445,3.9227,3.9077,3.8906,3.8743,3.8595,3.8637,3.8566,3.8003,3.8013,3.7917,3.7282,3.6388,3.5633,3.5268,3.5205,3.5205,3.5205,3.5205,3.5205,3.5205,3.5053,3.4713,3.4067,3.2894,3.1916,3.1213,3.0907,3.0765,3.0783,3.141,3.1436,3.0746,3.1613,3.177,3.1126,3.286,3.3995,3.448,3.3202,3.2596,0.0,0.0,0.0,0.0,0.0,0.0,0.0,0.0,0.0,0.0,0.0,2.783,2.9405,0.0,3.2177,3.4048,3.469,3.5453,3.6901,3.7487,3.7632,3.7348,3.7565,3.8094,3.8965,3.8802,3.883,3.9261,3.9581,3.9758,3.9758,4.0557,4.1003,4.1003,4.1393,4.1701,4.1902,4.1894,4.1991,4.2196,4.1588,4.1302,4.1283,4.0672,4.05,4.0692,4.0692,4.0709,4.0691,4.0526,4.0456,4.0365,3.9533,3.9331,3.9523,3.9351,3.9366,3.9457,3.9533,3.9577,3.9589,3.9589,3.9589,3.9589,3.9589,3.9514,3.9406,3.9406,3.9334,3.9254,3.9254,3.9222,3.9197,3.9197,3.9229,3.9254,3.9254,3.9222,3.9087,3.8717,3.8695,3.8559,3.796,3.7462,3.6819,3.5891,3.5802,3.5683,3.5263,3.5205,3.5205,3.5205,3.5205,3.5033,3.4636,3.3834,3.2989,3.2107,3.2088,3.2111,3.2111,3.2489,3.2699,3.2707,3.3559,3.4025,3.4064,3.5327,3.6178,3.6604,3.664,3.6234,0.0,0.0,0.0,0.0,0.0,0.0,0.0,2.4145,2.6116,2.7766,2.9989,3.1999,3.3122,3.4012,3.4966,3.6228,3.6437,3.6877,3.8184,3.8378,3.8421,3.8587,3.8463,3.8652,3.9352,3.9225,3.9175,3.9349,4.0,4.0464,4.0613,4.1393,4.1802,4.1723,4.1871,4.2071,4.2314,4.2314,4.2511,4.2904,4.2176,4.1859,4.1914,4.1125,4.0917,4.1235,4.1139,4.1155,4.1188,4.0577,4.0224,4.0071,4.0175,4.0432,4.0674,3.9881,3.9681,3.9832,3.9873,3.9912,3.9913,3.9913,3.9913,3.9875,3.9744,3.9545,3.9347,3.9227,3.9073,3.8957,3.8957,3.9073,3.9176,3.9094,3.9224,3.938,3.9341,3.9202,3.9055,3.9055,3.9017,3.8864,3.8471,3.8487,3.8103,3.6773,3.6622,3.6406,3.57,3.5551,3.5525,3.5525,3.5583,3.5565,3.5469,3.4694,3.3929,3.3234,3.3349,3.3444,3.3444,3.3597,3.4002,3.4717,3.5362,3.6027,3.6734,3.7559,3.7941,3.796,3.8858,3.8867,2.039,2.071,2.18,2.4006,2.4733,2.5886,0.0,3.0645,3.129,3.2784,3.4503,3.5717,3.5633,3.6333,3.7151,3.7847,3.7956,3.8196,3.8904,3.8994,3.8892,3.8626,3.8843,3.9038,3.9137,3.9122,3.9417,4.0204,4.0334,4.0706,4.143,4.2222,4.2492,4.2142,4.2832,4.3046,4.2748,4.2721,4.2932,4.3336,4.2887,4.2841,4.3172,4.2373,4.2011,4.2041,4.1693,4.1739,4.2062,4.1989,4.2276,4.2686,4.195,4.1835,4.1993,4.1246,4.1104,4.1263,4.135,4.1204,4.1032,4.1032,4.1032,4.0903,4.0237,4.0019,3.9893,3.9347,3.9183,3.9163,3.9163,3.9176,3.9082,3.8676,3.8592,3.8572,3.8395,3.8473,3.8569,3.8569,3.8755,3.8884,3.8835,3.8987,3.8751,3.7694,3.7352,3.7178,3.7083,3.6853,3.6708,3.6708,3.6917,3.6872,3.6392,3.5568,3.5014,3.4938,3.5641,3.608,3.608,3.6753,3.7196,3.7277,3.7368,3.7464,3.7559,3.8438,3.8858,3.8877,3.9752,3.9689,2.4585,2.5292,2.621,2.7599,2.8713,3.0041,3.2236,3.3137,3.3804,3.4897,3.6488,3.7591,3.7329,3.7979,3.8617,3.8706,3.8723,3.8742,3.8795,3.8807,3.859,3.7962,3.8442,3.8807,3.8807,3.8807,3.925,4.032,4.0409,4.0855,4.1894,4.2486,4.2719,4.2541,4.2869,4.2977,4.281,4.257,4.2541,4.2705,4.229,4.2195,4.235,4.1998,4.1984,4.2198,4.2269,4.2259,4.2198,4.2198,4.2226,4.2246,4.2,4.2102,4.2314,4.1412,4.1172,4.1274,4.1305,4.1263,4.1229,4.1374,4.1438,4.1393,4.1252,4.1124,4.0988,4.0728,4.0433,4.0197,4.0197,4.0201,4.0021,3.9354,3.9326,3.9275,3.8724,3.8667,3.868,3.8541,3.8822,3.901,3.8818,3.9246,3.9442,3.8935,3.8272,3.7694,3.7349,3.72,3.7195,3.7354,3.7471,3.7446,3.7226,3.6852,3.6642,3.6642,3.7005,3.7196,3.7196,3.7521,3.7941,3.8457,3.8457,3.8706,3.9217,3.958,4.0,4.0463,4.0826,4.1074,2.7338,2.8439,2.9436,3.028,3.1924,3.3479,3.4055,3.5057,3.5984,3.6502,3.7807,3.8777,3.849,3.897,3.9331,3.9135,3.902,3.8913,3.8763,3.8395,3.7997,3.7637,3.7916,3.8167,3.8291,3.8486,3.9096,4.0302,4.0395,4.0979,4.229,4.265,4.2753,4.2648,4.2638,4.258,4.2472,4.2167,4.2092,4.2205,4.1899,4.182,4.1931,4.1874,4.2002,4.2236,4.2547,4.2508,4.2234,4.2234,4.2096,4.1881,4.204,4.2305,4.252,4.1794,4.159,4.1699,4.1797,4.1803,4.1817,4.1998,4.2079,4.2046,4.1947,4.1816,4.1665,4.1512,4.1206,4.0896,4.0896,4.0948,4.0801,4.0093,4.013,4.0094,3.9212,3.9039,3.8912,3.8493,3.8695,3.8848,3.8638,3.9093,3.9458,3.9371,3.877,3.8253,3.8034,3.7942,3.8014,3.828,3.8089,3.7979,3.8052,3.785,3.7697,3.7697,3.7922,3.8056,3.8056,3.8285,3.8706,3.935,3.935,3.9771,4.063,4.063,4.1055,4.1863,4.1863,4.2316,2.7444,2.882,3.0411,3.1852,3.4069,3.5889,3.5927,3.725,3.8423,3.8174,3.8857,3.9396,3.9114,3.9096,3.9115,3.9101,3.8822,3.8733,3.9034,3.7854,3.7237,3.7991,3.741,3.7105,3.7506,3.818,3.9095,4.0309,4.0401,4.1098,4.2702,4.2792,4.2619,4.2229,4.2218,4.2029,4.1648,4.1626,4.182,4.2198,4.2195,4.24,4.2762,4.2568,4.2406,4.2297,4.2308,4.2308,4.2297,4.2297,4.2409,4.257,4.258,4.2709,4.2882,4.2847,4.2968,4.3177,4.3515,4.3454,4.3238,4.3247,4.3247,4.3057,4.2023,4.1696,4.1579,4.1059,4.0899,4.0891,4.0891,4.1044,4.1072,4.0579,4.0676,4.0603,3.96,3.9385,3.915,3.8362,3.8225,3.8259,3.8307,3.8385,3.8478,3.8523,3.8611,3.8959,3.9715,3.9582,3.9548,3.9792,3.9082,3.8686,3.8936,3.819,3.7697,3.7697,3.8495,3.8954,3.8954,3.9771,4.0229,4.0267,4.0267,4.0649,4.1461,4.1461,4.192,4.2756,4.2756,4.319,2.9289,3.0911,3.2656,3.4716,3.6253,3.7399,3.7941,3.8515,3.8751,3.8138,3.8219,3.8255,3.7623,3.7324,3.7358,3.7882,3.7871,3.7863,3.8015,3.8264,3.8063,3.7039,3.7605,3.7721,3.6791,3.7406,3.8578,4.0274,3.9948,4.0477,4.2311,4.2154,4.1941,4.1809,4.1799,4.1874,4.2005,4.174,4.1799,4.2205,4.1931,4.1867,4.2005,4.1931,4.1892,4.1845,4.1845,4.1902,4.204,4.204,4.2176,4.2419,4.255,4.2649,4.2718,4.2844,4.2929,4.3022,4.3133,4.3105,4.305,4.3241,4.3303,4.3275,4.3087,4.3021,4.2983,4.2819,4.2626,4.248,4.248,4.241,4.2149,4.1461,4.1379,4.1179,4.032,4.0121,4.0048,3.9777,3.987,3.9783,3.9138,3.9344,3.9464,3.9094,3.8987,3.9059,3.9337,3.9452,3.9526,3.961,3.9539,3.9507,3.9585,3.9486,3.9427,3.9427,3.9694,3.9866,3.9866,4.0134,4.0306,4.0306,4.0826,4.1227,4.15,4.2087,4.2794,4.361,4.361,4.405,3.1068,3.2852,3.4554,3.6464,3.7652,3.8423,3.8826,3.8783,3.8432,3.764,3.699,3.6414,3.5894,3.54,3.5492,3.6754,3.709,3.7402,3.8025,3.8519,3.8481,3.7656,3.8095,3.8187,3.7441,3.7832,3.8658,3.9906,3.9835,4.038,4.1902,4.1751,4.1604,4.1604,4.1604,4.1729,4.1984,4.1729,4.1729,4.1984,4.1729,4.1692,4.1856,4.174,4.1795,4.1956,4.1956,4.203,4.2166,4.2231,4.2353,4.2532,4.265,4.2709,4.2718,4.2844,4.2892,4.291,4.3013,4.305,4.3078,4.3241,4.3303,4.3312,4.339,4.3416,4.3416,4.3416,4.3285,4.3151,4.3151,4.3032,4.2765,4.2248,4.213,4.1913,4.1089,4.0926,4.0836,4.0555,4.0634,4.0566,3.9973,4.0185,4.0322,3.9927,3.9837,3.9677,3.9286,3.9383,3.9508,3.9508,3.9658,3.9757,3.9757,4.0001,4.0162,4.0162,4.0249,4.0439,4.0726,4.0726,4.0879,4.1184,4.1705,4.2106,4.2393,4.2961,4.3648,4.4451,4.4451,4.4762,3.2654,3.4496,3.6062,3.7187,3.8294,3.9013,3.8648,3.8156,3.7547,3.6693,3.5188,3.3999,3.3962,3.3362,3.358,3.5694,3.6461,3.7332,3.8929,3.864,3.8634,3.9647,3.8863,3.8504,3.9224,3.9347,3.9364,3.9364,4.007,4.0825,4.1569,4.1604,4.1604,4.1604,4.1604,4.1604,4.1604,4.1604,4.1604,4.1615,4.1615,4.1866,4.2287,4.204,4.2166,4.2589,4.2589,4.2589,4.2619,4.2815,4.2882,4.2892,4.2892,4.2892,4.2892,4.2892,4.2892,4.2929,4.3187,4.3276,4.3276,4.3276,4.3276,4.3232,4.2976,4.2892,4.2892,4.2892,4.2892,4.2892,4.2892,4.2892,4.2892,4.2892,4.2892,4.2692,4.1931,4.1759,4.1542,4.0773,4.0591,4.06,4.0733,4.0834,4.0889,4.0906,4.1009,4.0737,3.9713,3.9577,3.9577,3.9577,3.959,3.9596,3.9596,3.9854,3.9995,3.9995,4.0241,4.0735,4.1499,4.1538,4.1944,4.2775,4.2832,4.3247,4.4006,4.4045,4.4489,4.5302,4.5302,4.5302,3.3705,3.5497,3.7175,3.8077,3.8696,3.8913,3.8232,3.7067,3.5689,3.424,3.2643,3.1329,3.0734,3.1066,3.1992,3.3684,3.5395,3.6943,3.8203,3.9473,4.0056,3.9498,3.9694,3.9736,3.9347,3.9831,4.0193,4.0193,4.0379,4.0825,4.1569,4.1604,4.1604,4.1604,4.1604,4.1604,4.1604,4.1604,4.1681,4.1827,4.1827,4.1988,4.2297,4.2236,4.2249,4.2379,4.2379,4.247,4.2609,4.2668,4.2767,4.2892,4.2892,4.2892,4.2892,4.2892,4.2892,4.2901,4.2976,4.3004,4.3004,4.3004,4.3004,4.2995,4.292,4.2892,4.2892,4.2892,4.2892,4.2892,4.2892,4.2892,4.2892,4.2892,4.2892,4.2837,4.2638,4.2592,4.252,4.2321,4.1805,4.1434,4.156,4.1131,4.079,4.0944,4.1004,4.093,4.0711,4.0686,4.0686,4.0686,4.0878,4.0996,4.0996,4.1238,4.1393,4.1393,4.1443,4.1672,4.2088,4.2099,4.2313,4.2789,4.3381,4.3796,4.4006,4.4647,4.5092,4.5302,4.5302,4.5302,3.553,3.6912,3.8039,3.8484,3.8585,3.8212,3.6883,3.5439,3.372,3.1342,2.9842,2.8621,2.745,2.8189,2.966,3.1755,3.3898,3.6087,3.831,3.9872,4.0658,4.0344,4.0709,4.0808,4.0347,4.0709,4.0983,4.0983,4.0983,4.1159,4.1587,4.1604,4.1604,4.1604,4.1604,4.1604,4.1604,4.1604,4.1697,4.1895,4.1895,4.2093,4.243,4.2338,4.2348,4.244,4.244,4.25,4.2609,4.2707,4.2805,4.2892,4.2892,4.2892,4.2892,4.2892,4.2892,4.2892,4.2892,4.2892,4.2892,4.2892,4.2892,4.2892,4.2892,4.2892,4.2892,4.2892,4.2892,4.2892,4.2892,4.2892,4.2892,4.2892,4.2892,4.2892,4.2892,4.2892,4.2892,4.2892,4.2538,4.224,4.2322,4.2005,4.1795,4.1936,4.2023,4.2083,4.2141,4.1544,4.1095,4.1095,4.135,4.1508,4.1508,4.1876,4.2121,4.2121,4.2226,4.2526,4.3034,4.3058,4.3313,4.3883,4.4341,4.4565,4.4565,4.5053,4.5302,4.5302,4.5302,4.5302,3.7363,3.8184,3.8525,3.8525,3.8074,3.7119,3.5183,3.3467,3.1439,2.8407,2.6962,2.5866,2.457,2.5395,2.7218,3.0093,3.2441,3.5111,3.8651,3.9951,4.0805,4.1516,4.1604,4.1604,4.1604,4.1604,4.1604,4.1604,4.1604,4.1604,4.1604,4.1604,4.1615,4.1648,4.1648,4.1659,4.1692,4.1692,4.1784,4.198,4.198,4.2228,4.2621,4.247,4.2462,4.2649,4.2649,4.2649,4.264,4.2834,4.2892,4.2892,4.2892,4.2892,4.2892,4.2892,4.2892,4.2892,4.2892,4.2892,4.2892,4.2892,4.2892,4.2892,4.2892,4.2892,4.2892,4.2892,4.2892,4.2892,4.2892,4.2892,4.2892,4.2892,4.2892,4.2892,4.2892,4.2892,4.2892,4.2892,4.2892,4.2919,4.2929,4.304,4.3132,4.3214,4.334,4.3437,4.3497,4.2286,4.1415,4.1415,4.163,4.1768,4.1768,4.2248,4.2566,4.2602,4.2837,4.3291,4.4074,4.4118,4.4477,4.5283,4.5302,4.5302,4.5302,4.5302,4.5302,4.5302,4.5302,4.5302,3.7469,3.7864,3.8193,3.8193,3.7176,3.5764,3.4254,3.1164,2.8146,2.6465,2.4371,2.2965,2.3355,2.4393,2.6199,2.93,3.2063,3.4871,3.7885,3.9714,4.0955,4.1539,4.1604,4.1604,4.1604,4.1604,4.1604,4.1604,4.1604,4.1604,4.1604,4.1604,4.1681,4.1831,4.1859,4.1956,4.2184,4.2184,4.2287,4.2472,4.2472,4.2611,4.2853,4.2806,4.2806,4.2853,4.2853,4.2853,4.2844,4.29,4.2892,4.2892,4.2892,4.2892,4.2892,4.2892,4.2892,4.2892,4.2892,4.2892,4.2892,4.2892,4.2892,4.2892,4.2892,4.2892,4.2892,4.2892,4.2892,4.2892,4.2892,4.2892,4.2892,4.2892,4.2892,4.2892,4.2892,4.2892,4.2892,4.2892,4.2892,4.2938,4.3049,4.3142,4.3214,4.334,4.3419,4.3489,4.3506,4.3267,4.3084,4.3084,4.3125,4.314,4.314,4.3248,4.3434,4.3703,4.377,4.4045,4.4634,4.4665,4.4865,4.5297,4.5302,4.5302,4.5302,4.5302,4.5302,4.5302,4.5302,4.5302,3.8115,3.8214,3.8143,3.8322,3.6739,3.4613,3.2679,2.9582,2.6465,2.4095,2.2776,2.2023,2.1963,2.321,2.504,2.7348,2.9368,3.1962,3.5786,3.741,3.8898,4.0801,4.1358,4.1648,4.174,4.1751,4.1805,4.1945,4.1956,4.1892,4.1762,4.1881,4.2016,4.2103,4.2103,4.2166,4.2297,4.2297,4.2399,4.2599,4.2599,4.2699,4.2892,4.2892,4.2892,4.2892,4.2892,4.2892,4.2892,4.2892,4.2892,4.2892,4.2892,4.2892,4.2892,4.2892,4.2892,4.2892,4.2892,4.2892,4.2892,4.2892,4.2892,4.2892,4.2892,4.2892,4.2892,4.2892,4.2892,4.2892,4.2892,4.2892,4.2892,4.2892,4.2892,4.2892,4.2892,4.2892,4.2892,4.2892,4.2892,4.2938,4.3086,4.3141,4.3205,4.3358,4.342,4.3454,4.3497,4.3506,4.3506,4.3506,4.3657,4.3765,4.3765,4.3897,4.4042,4.4199,4.4206,4.4388,4.4776,4.4794,4.4957,4.5297,4.5302,4.5302,4.5302,4.5302,4.5302,4.5302,4.5302,4.5302,3.8276,3.8295,3.8005,3.8101,3.6087,3.3475,3.1112,2.8203,2.5202,2.2332,2.1651,2.147,2.1135,2.2264,2.3872,2.5778,2.7083,2.9394,3.3855,3.5494,3.7283,4.0162,4.1246,4.1784,4.1885,4.1956,4.2072,4.2287,4.2338,4.2238,4.2009,4.2194,4.2318,4.2369,4.2369,4.2371,4.244,4.244,4.2502,4.265,4.265,4.2747,4.2892,4.2892,4.2892,4.2892,4.2892,4.2892,4.2892,4.2892,4.2892,4.2892,4.2892,4.2892,4.2892,4.2892,4.2892,4.2892,4.2892,4.2892,4.2892,4.2892,4.2892,4.2892,4.2892,4.2892,4.2892,4.2892,4.2892,4.2892,4.2892,4.2892,4.2892,4.2892,4.2892,4.2892,4.2892,4.2929,4.2938,4.2938,4.2957,4.2994,4.3095,4.3151,4.3215,4.3376,4.3402,4.3437,4.3497,4.3506,4.3506,4.3506,4.374,4.3894,4.3894,4.4087,4.4246,4.4303,4.4311,4.4425,4.4701,4.4763,4.4909,4.5184,4.5256,4.5302,4.5302,4.5302,4.5302,4.5302,4.5302,4.5302,3.6882,3.7267,3.739,3.6754,3.4662,3.2207,3.0034,2.6742,2.372,2.2181,2.0849,2.0349,2.1738,2.1871,2.2792,2.5876,2.7465,2.9615,3.3289,3.6007,3.8324,4.0267,4.1534,4.2163,4.1917,4.2114,4.2277,4.2297,4.247,4.249,4.2277,4.2287,4.2389,4.257,4.258,4.265,4.2835,4.2835,4.2844,4.2863,4.2863,4.2873,4.2892,4.2892,4.2892,4.2892,4.2892,4.2892,4.2892,4.2892,4.2892,4.2892,4.2892,4.2892,4.2892,4.2892,4.2892,4.2892,4.2892,4.2892,4.2892,4.2892,4.2892,4.2892,4.2892,4.2892,4.2892,4.2892,4.2892,4.2892,4.2892,4.2892,4.2892,4.2892,4.2892,4.2892,4.2892,4.2994,4.3086,4.3086,4.3123,4.3187,4.3196,4.3296,4.3376,4.3403,4.3455,4.3497,4.3506,4.3506,4.3506,4.3506,4.354,4.3558,4.3558,4.3573,4.3705,4.4017,4.4033,4.4166,4.4436,4.4669,4.4806,4.485,4.5132,4.5302,4.5302,4.5302,4.5302,4.5302,4.5302,4.5302,3.6413,3.7162,3.7318,3.6577,3.4487,3.202,2.9836,2.6543,2.3557,2.2134,2.0663,2.0127,2.1684,2.1708,2.2215,2.4473,2.5174,2.6439,2.9275,3.1722,3.4416,3.76,3.9574,4.1106,4.2221,4.2412,4.2522,4.266,4.2738,4.2747,4.267,4.267,4.2699,4.2786,4.2786,4.2824,4.2892,4.2892,4.2892,4.2892,4.2892,4.2892,4.2892,4.2892,4.2892,4.2892,4.2892,4.2892,4.2892,4.2892,4.2892,4.2892,4.2892,4.2892,4.2892,4.2892,4.2892,4.2892,4.2892,4.2892,4.2892,4.2892,4.2892,4.2892,4.2892,4.2892,4.2892,4.2892,4.2892,4.2892,4.2892,4.2892,4.2892,4.2892,4.2892,4.2892,4.2892,4.3021,4.3095,4.3095,4.3142,4.3233,4.3314,4.3358,4.3402,4.3445,4.348,4.3506,4.3506,4.3506,4.3506,4.3506,4.3506,4.3506,4.3506,4.3506,4.3548,4.3691,4.3699,4.3836,4.4151,4.4265,4.4395,4.4553,4.4688,4.4838,4.5005,4.5005,4.5104,4.5302,4.5302,4.5302,3.4917,3.6061,3.6505,3.5812,3.3819,3.1524,2.954,2.6335,2.3387,2.2073,2.0622,2.0062,2.1598,2.1651,2.1996,2.3614,2.3923,2.4831,2.7386,2.9497,3.2151,3.5865,3.8217,4.016,4.1735,4.237,4.2747,4.2882,4.2892,4.2892,4.2892,4.2892,4.2892,4.2892,4.2892,4.2892,4.2892,4.2892,4.2892,4.2892,4.2892,4.2892,4.2892,4.2892,4.2892,4.2892,4.2892,4.2892,4.2892,4.2892,4.2892,4.2892,4.2892,4.2892,4.2892,4.2892,4.2892,4.2892,4.2892,4.2892,4.2892,4.2892,4.2892,4.2892,4.2892,4.2892,4.2892,4.2892,4.2892,4.2892,4.2892,4.2892,4.2892,4.2892,4.2892,4.2901,4.2947,4.303,4.3114,4.3178,4.3224,4.3305,4.3411,4.3429,4.3446,4.3497,4.3506,4.3506,4.3506,4.3506,4.3506,4.3506,4.3506,4.3506,4.3506,4.3506,4.3506,4.3506,4.3506,4.3649,4.3989,4.4079,4.4243,4.4506,4.4624,4.4758,4.4946,4.4946,4.5081,4.5302,4.5302,4.5302,3.1827,3.3354,3.4585,3.3987,3.2264,3.0344,2.8931,2.5808,2.2949,2.198,2.0633,2.0046,2.1541,2.1686,2.2159,2.3814,2.459,2.6049,2.9049,3.1048,3.319,3.5962,3.8132,3.9616,4.0173,4.1847,4.291,4.2892,4.2892,4.2892,4.2892,4.2892,4.2892,4.2892,4.2892,4.2892,4.2892,4.2892,4.2892,4.2892,4.2892,4.2892,4.2892,4.2892,4.2892,4.2892,4.2892,4.2892,4.2892,4.2892,4.2892,4.2892,4.2892,4.2892,4.2892,4.2892,4.2892,4.2892,4.2892,4.2892,4.2892,4.2892,4.2892,4.2892,4.2892,4.2892,4.2892,4.2892,4.2892,4.2892,4.2892,4.2892,4.2892,4.2892,4.2892,4.2938,4.3077,4.3095,4.316,4.3359,4.3403,4.3411,4.3489,4.3506,4.3506,4.3506,4.3506,4.3506,4.3506,4.3506,4.3506,4.3506,4.3506,4.3506,4.3506,4.3506,4.3506,4.3506,4.3506,4.3649,4.3989,4.4239,4.4519,4.4782,4.5121,4.5297,4.5297,4.5297,4.5302,4.5302,4.5302,4.5302,2.9051,3.059,3.1583,3.0233,2.9654,2.8876,2.6867,2.4707,2.2751,2.1398,2.0207,1.9695,2.0659,2.122,2.2405,2.5103,2.616,2.7357,2.9428,3.1968,3.421,3.5771,3.9408,4.185,4.2019,4.2564,4.2892,4.2892,4.2892,4.2892,4.2892,4.2892,4.2892,4.2892,4.2892,4.2892,4.2892,4.2892,4.2892,4.2892,4.2892,4.2892,4.2892,4.2892,4.2892,4.2892,4.2892,4.2892,4.2892,4.2892,4.2892,4.2892,4.2892,4.2892,4.2892,4.2892,4.2892,4.2892,4.2892,4.2892,4.2892,4.2892,4.2892,4.2892,4.2892,4.2892,4.2892,4.2892,4.2892,4.2892,4.2892,4.2892,4.2892,4.2892,4.2892,4.2901,4.2947,4.304,4.3132,4.3233,4.3331,4.342,4.3489,4.3506,4.3506,4.3506,4.3506,4.3506,4.3506,4.3506,4.3506,4.3506,4.3506,4.3506,4.3506,4.3506,4.3506,4.3506,4.3506,4.3649,4.3989,4.4086,4.4257,4.4519,4.4637,4.4789,4.4957,4.4957,4.5081,4.5302,4.5302,4.5588,2.6044,2.7888,2.9046,2.8053,2.7622,2.7076,2.5686,2.3713,2.19,2.0904,1.9957,1.9614,2.0623,2.1184,2.2323,2.4882,2.5968,2.7272,2.9494,3.1939,3.4426,3.6872,4.0021,4.2103,4.2411,4.2729,4.2892,4.2892,4.2892,4.2892,4.2892,4.2892,4.2892,4.2892,4.2892,4.2892,4.2892,4.2892,4.2892,4.2892,4.2892,4.2892,4.2892,4.2892,4.2892,4.2892,4.2892,4.2892,0.0,4.2892,4.2892,4.2892,4.2892,4.2892,4.2892,4.2892,4.2892,4.2892,4.2892,4.2892,4.2892,4.2892,4.2892,4.2892,4.2892,4.2892,4.2892,4.2892,4.2892,4.2892,4.2892,4.2892,4.2892,4.2892,4.2892,4.291,4.3003,4.3068,4.3132,4.3286,4.3367,4.342,4.3489,4.3506,4.3506,4.3506,4.3506,4.3506,4.3506,4.3506,4.3506,4.3506,4.3506,4.3506,4.3506,4.3506,4.3506,4.3506,4.3506,4.3689,4.4136,4.4056,4.424,4.4739,4.4624,4.4701,4.5,4.5,4.5098,4.5302,4.5607,4.6023,0.0,2.5134,2.6741,2.6808,2.5872,2.4974,2.4964,2.2748,0.0,2.0448,1.9817,1.976,2.1297,2.1545,2.2093,2.3927,2.4851,2.6463,2.9694,3.1625,3.4451,3.9106,4.0256,4.0963,4.1705,4.2466,4.2892,4.2892,4.2892,4.2892,4.2892,4.2892,4.2892,4.2892,4.2892,4.2892,4.2892,4.2892,4.2892,4.2892,4.2892,4.2892,4.2892,4.2892,4.2892,4.2892,4.2892,4.2892,4.2892,4.2892,4.2892,4.2892,4.2892,4.2892,4.2892,4.2892,4.2892,4.2892,4.2892,4.2892,4.2892,4.2892,4.2892,4.2892,4.2892,4.2892,4.2892,4.2892,4.2892,4.2892,4.2892,4.2892,4.2892,4.2901,4.2901,4.2975,4.3151,4.3151,4.3178,4.3445,4.3446,4.342,4.3489,4.3506,4.3506,4.3506,4.3506,4.3506,4.3506,4.3506,4.3506,4.3506,4.3506,4.3506,4.3506,4.3506,4.3506,4.3506,4.3506,4.3761,4.4353,4.4128,4.4398,4.5224,4.4928,4.4946,4.5302,4.5343,4.5362,4.5397,4.6214,4.6628,1.9572,0.0,2.2955,2.2273,2.2399,2.2527,0.0,2.1142,2.0368,1.9723,1.9356,1.9814,2.2002,2.1907,2.3017,2.7647,2.8552,2.9796,3.3013,3.5918,3.8798,4.1732,4.224,4.2421,4.2592,4.2783,4.2892,4.2892,4.2892,4.2892,4.2892,4.2892,4.2892,4.2892,4.2892,4.2892,4.2892,4.2892,4.2892,4.2892,4.2892,4.2892,4.2892,4.2892,4.2892,4.2892,4.2892,4.2892,4.2892,4.2892,4.2892,4.2892,4.2892,4.2892,4.2892,4.2892,4.2892,4.2892,4.2892,4.2892,4.2892,4.2892,4.2892,4.2892,4.2892,4.2892,4.2892,4.2892,4.2892,4.2892,4.2892,4.2892,4.2929,4.303,4.3049,4.3086,4.3178,4.3187,4.3242,4.3394,4.3421,4.342,4.3489,4.3506,4.3506,4.3506,4.3506,4.3506,4.3506,4.3506,4.3506,4.3506,4.3506,4.3506,4.3506,4.3506,4.3506,4.3506,4.3506,4.3691,4.4086,4.4025,4.4196,4.4604,4.4526,4.4751,4.5302,4.5717,4.6028,4.6233,4.7106,4.7857,1.8235,2.0367,2.2314,2.1776,2.2015,2.2223,2.1723,2.0702,1.9844,1.9763,1.9704,2.0282,2.2319,2.2921,2.4212,2.7604,2.9379,3.1734,3.5701,3.8681,4.1053,4.271,4.2892,4.2892,4.2892,4.2892,4.2892,4.2892,4.2892,4.2892,4.2892,4.2892,4.2892,4.2892,4.2892,4.2892,4.2892,4.2892,4.2892,4.2892,4.2892,4.2892,4.2892,4.2892,4.2892,4.2892,4.2892,4.2892,4.2892,4.2892,4.2892,4.2892,4.2892,4.2892,4.2892,4.2892,4.2892,4.2892,4.2892,4.2892,4.2892,4.2892,4.2892,4.2892,4.2892,4.2892,4.2892,4.2892,4.2892,4.2901,4.2975,4.2947,4.2947,4.3114,4.3114,4.3141,4.3269,4.3296,4.3331,4.3429,4.3446,4.3464,4.3497,4.3506,4.3506,4.3506,4.3506,4.3506,4.3506,4.3506,4.3506,4.3506,4.3506,4.3506,4.3506,4.3506,4.3506,4.3506,4.3506,4.3649,4.3989,4.3854,4.3916,4.4214,4.4339,4.4747,4.5444,4.5722,4.6209,4.6891,4.7767,4.8505,1.8105,2.0682,2.2976,2.2678,2.2653,2.2665,2.2534,2.0929,1.9653,2.0336,2.0481,2.1043,2.288,2.4297,2.566,2.7067,2.9995,3.36,3.7947,4.0374,4.2004,4.2801,4.2892,4.2892,4.2892,4.2892,4.2892,4.2892,4.2892,4.2892,4.2892,4.2892,4.2892,4.2892,4.2892,4.2892,4.2892,4.2892,4.2892,4.2892,4.2892,4.2892,4.2892,4.2892,4.2892,4.2892,4.2892,4.2892,4.2892,4.2892,4.2892,4.2892,4.2892,4.2892,4.2892,4.2892,4.2892,4.2892,4.2892,4.2892,4.2892,4.2892,4.2892,4.2892,4.2892,4.2892,4.2892,4.2892,4.2892,4.2929,4.304,4.2984,4.2957,4.3151,4.3151,4.3178,4.3359,4.3412,4.3429,4.3497,4.3506,4.3506,4.3506,4.3506,4.3506,4.3506,4.3506,4.3506,4.3506,4.3506,4.3506,4.3506,4.3506,4.3506,4.3506,4.3506,4.3506,4.3506,4.3506,4.3624,4.3918,4.3649,4.3657,4.3997,4.4281,4.4828,4.5605,4.5805,4.6438,4.7437,4.8361,4.8935,1.8719,2.1033,2.2511,2.1134,2.1261,2.1705,2.1695,2.14,2.1165,2.1292,2.131,2.2215,2.513,2.5854,2.7393,3.1618,3.4994,3.782,3.9849,4.1044,4.2004,4.2801,4.2892,4.2892,4.2892,4.2892,4.2892,4.2892,4.2892,4.2892,4.2892,4.2892,4.2892,4.2892,4.2892,4.2892,4.2892,4.2892,4.2892,4.2892,4.2892,4.2892,4.2892,4.2892,4.2892,4.2892,4.2892,4.2892,4.2892,4.2892,4.2892,4.2892,4.2892,4.2892,4.2892,4.2892,4.2892,4.2892,4.2892,4.2892,4.2892,4.2892,4.2892,4.2892,4.2892,4.2892,4.2892,4.2892,4.2892,4.2901,4.2929,4.2919,4.2938,4.3077,4.3151,4.3214,4.3376,4.3446,4.3489,4.3506,4.3506,4.3506,4.3506,4.3506,4.3506,4.3506,4.3506,4.3506,4.3506,4.3506,4.3506,4.3506,4.3506,4.3506,4.3506,4.3506,4.3506,4.3506,4.3506,4.3513,4.3565,4.354,4.3657,4.3997,4.443,4.4975,4.5605,4.6741,4.7527,4.8002,4.9093,4.9641,1.7705,1.9761,2.148,2.1616,2.2852,2.4152,2.4587,2.4025,2.3645,2.4514,2.4695,2.5251,2.7152,2.8552,3.0876,3.5284,3.792,3.9831,4.099,4.1841,4.2484,4.2855,4.2892,4.2892,4.2892,4.2892,4.2892,4.2892,4.2892,4.2892,4.2892,4.2892,4.2892,4.2892,4.2892,4.2892,4.2892,4.2892,4.2892,4.2892,4.2892,4.2892,4.2892,4.2892,4.2892,4.2892,4.2892,4.2892,4.2892,4.2892,4.2892,4.2892,4.2892,4.2892,4.2892,4.2892,4.2892,4.2892,4.2892,4.2892,4.2892,4.2892,4.2892,4.2892,4.2892,4.2892,4.2892,4.2892,4.2892,4.2929,4.2984,4.2947,4.2966,4.3196,4.3242,4.3251,4.341,4.348,4.3506,4.3506,4.3506,4.3506,4.3506,4.3506,4.3506,4.3506,4.3506,4.3506,4.3506,4.3506,4.3506,4.3506,4.3506,4.3506,4.3506,4.3506,4.3506,4.3506,4.3506,4.3506,4.3506,4.3928,4.4218,4.438,4.5027,4.5695,4.6411,4.7202,4.8004,4.8776,4.9476,4.9909,1.7354,1.9022,2.0771,2.2758,2.4442,2.5999,2.7369,2.6578,2.6077,2.7864,2.8244,2.8497,2.9287,3.1727,3.4741,3.8182,4.0057,4.1279,4.1895,4.2502,4.2892,4.2892,4.2892,4.2892,4.2892,4.2892,4.2892,4.2892,4.2892,4.2892,4.2892,4.2892,4.2892,4.2892,4.2892,4.2892,4.2892,4.2892,4.2892,4.2892,4.2892,4.2892,4.2892,4.2892,4.2892,4.2892,4.2892,4.2892,4.2892,4.2892,4.2892,4.2892,4.2892,4.2892,4.2892,4.2892,4.2892,4.2892,4.2892,4.2892,4.2892,4.2892,4.2892,4.2919,4.2938,4.2929,4.2901,4.2966,4.2966,4.2975,4.3058,4.3049,4.3041,4.3296,4.3305,4.3286,4.3445,4.3497,4.3506,4.3506,4.3506,4.3506,4.3506,4.3506,4.3506,4.3506,4.3506,4.3506,4.3506,4.3506,4.3506,4.3506,4.3506,4.3506,4.3506,4.3671,4.3781,4.3781,4.3781,4.3873,4.4057,4.4654,4.4975,4.4975,4.5854,4.6589,4.7224,4.7733,4.8448,4.9299,4.9634,4.9942,1.9161,2.0239,2.1025,2.4085,2.4393,2.4773,2.7821,2.7857,2.79,3.0267,3.0738,3.0991,3.1781,3.5121,3.8327,4.0048,4.1687,4.2747,4.2819,4.2855,4.2892,4.2892,4.2892,4.2892,4.2892,4.2892,4.2892,4.2892,4.2892,4.2892,4.2892,4.2892,4.2892,4.2892,4.2892,4.2892,4.2892,4.2892,4.2892,4.2892,4.2892,4.2892,4.2892,4.2892,4.2892,4.2892,4.2892,4.2892,4.2892,4.2892,4.2892,4.2892,4.2892,4.2892,4.2892,4.2892,4.2892,4.2892,4.2892,4.2892,4.2892,4.2892,4.2892,4.2929,4.3049,4.2994,4.2947,4.3123,4.3123,4.3086,4.3095,4.3142,4.3178,4.3214,4.3305,4.3394,4.3394,4.3464,4.3506,4.3506,4.3506,4.3506,4.3506,4.3506,4.3506,4.3506,4.3506,4.3506,4.3506,4.3506,4.3506,4.3506,4.3506,4.3506,4.3506,4.4176,4.4608,4.4608,4.4608,4.4938,4.57,4.5773,4.581,4.581,4.6911,4.7509,4.7564,4.8645,4.9212,4.9299,4.9634,4.9817,1.7515,1.9571,2.1568,2.3728,2.5534,2.7375,2.959,3.064,3.1818,3.4234,3.5129,3.5574,3.5882,3.7584,3.9287,4.0338,4.185,4.2892,4.2892,4.2892,4.2892,4.2892,4.2892,4.2892,4.2892,4.2892,4.2892,4.2892,4.2892,4.2892,4.2892,4.2892,4.2892,4.2892,4.2892,4.2892,4.2892,4.2892,4.2892,4.2892,4.2892,4.2892,4.2892,4.2892,4.2892,4.2892,4.2892,4.2892,4.2892,4.2892,4.2892,4.2892,4.2892,4.2892,4.2892,4.2892,4.2892,4.2892,4.2892,4.2892,4.2892,4.2892,4.2892,4.2919,4.2947,4.2938,4.2929,4.2994,4.3096,4.3151,4.3151,4.3178,4.3224,4.3295,4.3358,4.3402,4.3455,4.348,4.3506,4.3506,4.3506,4.3506,4.3506,4.3506,4.3506,4.3506,4.3506,4.3506,4.3506,4.3506,4.3506,4.3506,4.3956,4.425,4.425,4.4984,4.5654,4.6159,4.5709,4.5571,4.5883,4.637,4.6645,4.6645,4.7555,4.8034,4.8034,4.8674,4.9001,4.8999,4.9541,4.9688,1.7136,1.9478,2.1925,2.3723,2.6415,2.9143,3.1274,3.2814,3.4534,3.7204,3.82,3.8653,3.888,3.9369,4.0003,4.0754,4.2013,4.2892,4.2892,4.2892,4.2892,4.2892,4.2892,4.2892,4.2892,4.2892,4.2892,4.2892,4.2892,4.2892,4.2892,4.2892,4.2892,4.2892,4.2892,4.2892,4.2892,4.2892,4.2892,4.2892,4.2892,4.2892,4.2892,4.2892,4.2892,4.2892,4.2892,4.2892,4.2892,4.2892,4.2892,4.2892,4.2892,4.2892,4.2892,4.2892,4.2892,4.2892,4.2892,4.2892,4.2892,4.2892,4.2892,4.2901,4.2985,4.2939,4.291,4.3022,4.3123,4.3214,4.3251,4.3286,4.3322,4.3411,4.3429,4.3446,4.3497,4.3506,4.3506,4.3506,4.3506,4.3506,4.3506,4.3506,4.3506,4.3506,4.3506,4.3598,4.3855,4.3883,4.3983,4.424,4.4745,4.5085,4.5085,4.5828,4.6516,4.7076,4.681,4.6654,4.6654,4.7195,4.748,4.748,4.8126,4.8449,4.8449,4.878,4.8967,4.8976,4.9431,4.952,1.8713,2.0282,2.2088,2.4429,2.6844,2.9487,3.268,3.4056,3.5548,3.878,3.9432,3.9641,4.0374,4.0519,4.0773,4.1578,4.2375,4.2892,4.2892,4.2892,4.2892,4.2892,4.2892,4.2892,4.2892,4.2892,4.2892,4.2892,4.2892,4.2892,4.2892,4.2892,4.2892,4.2892,4.2892,4.2892,4.2892,4.2892,4.2892,4.2892,4.2892,4.2892,4.2892,4.2892,4.2892,4.2892,4.2892,4.2892,4.2892,4.2892,4.2892,4.2892,4.2892,4.2892,4.2892,4.2892,4.2892,4.2892,4.2892,4.2892,4.2892,4.2892,4.2892,4.2947,4.3133,4.3059,4.2975,4.3305,4.3295,4.3233,4.3376,4.3455,4.3506,4.3506,4.3506,4.3506,4.3506,4.3506,4.3506,4.3506,4.3506,4.3506,4.3506,4.3506,4.3506,4.3506,4.3524,4.3818,4.4608,4.4718,4.5012,4.581,4.5902,4.5902,4.5902,4.6645,4.7113,4.7113,4.7856,4.8296,4.8296,4.8296,4.8296,4.8296,4.8632,4.8799,4.8799,4.9129,4.9283,4.9283,4.9283,4.9283,1.8184,2.0631,2.356,2.5389,2.8938,3.2372,3.3893,3.5747,3.8037,4.1207,4.1415,4.108,4.1288,4.1343,4.1415,4.165,4.2375,4.2892,4.2892,4.2892,4.2892,4.2892,4.2892,4.2892,4.2892,4.2892,4.2892,4.2892,4.2892,4.2892,4.2892,4.2892,4.2892,4.2892,4.2892,4.2892,4.2892,4.2892,4.2892,4.2892,4.2892,4.2892,4.2892,4.2892,4.2892,4.2892,4.2892,4.2892,4.2892,4.2892,4.2892,4.2892,4.2892,4.2892,4.2892,4.2892,4.2892,4.2892,4.2892,4.2892,4.2892,4.2892,4.2892,4.2929,4.3086,4.3086,4.3077,4.3214,4.3305,4.3349,4.3394,4.3455,4.3506,4.3506,4.3506,4.3506,4.3506,4.3506,4.3506,4.3506,4.3506,4.3506,4.3506,4.3975,4.4342,4.4342,4.4819,4.5259,4.5516,4.5535,4.5645,4.5865,4.6406,4.6737,4.6737,4.7489,4.7948,4.7948,4.8168,4.8296,4.8296,4.8296,4.8296,4.8296,4.8402,4.8458,4.8439,4.8541,4.8604,4.8595,4.8832,4.8815,1.959,2.222,2.5298,2.7544,3.0767,3.4019,3.6391,3.8065,3.9822,4.2384,4.2257,4.1795,4.2112,4.1931,4.1795,4.2112,4.2574,4.2892,4.2892,4.2892,4.2892,4.2892,4.2892,4.2892,4.2892,4.2892,4.2892,4.2892,4.2892,4.2892,4.2892,4.2892,4.2892,4.2892,4.2892,4.2892,4.2892,4.2892,4.2892,4.2892,4.2892,4.2892,4.2892,4.2892,4.2892,4.2892,4.2892,4.2892,4.2892,4.2892,4.2892,4.2892,4.2892,4.2892,4.2892,4.2892,4.2892,4.2892,4.2892,4.2929,4.2984,4.2984,4.2994,4.3041,4.3178,4.3187,4.316,4.3242,4.334,4.3403,4.3403,4.3455,4.3506,4.3506,4.3506,4.3506,4.3506,4.3506,4.3598,4.3901,4.3975,4.4075,4.4406,4.4856,4.5177,4.5177,4.5856,4.637,4.637,4.6654,4.6856,4.6856,4.7287,4.7581,4.7581,4.8021,4.8296,4.8296,4.8296,4.8296,4.8296,4.8296,4.8296,4.8296,4.8296,4.8296,4.8296,4.8296,4.8296,4.8306,4.8504,4.8495,2.2014,2.4369,2.6976,3.0194,3.2386,3.4896,3.9378,4.0447,4.0954,4.2566,4.2321,4.2022,4.2765,4.2303,4.2058,4.2783,4.2892,4.2892,4.2892,4.2892,4.2892,4.2892,4.2892,4.2892,4.2892,4.2892,4.2892,4.2892,4.2892,4.2892,4.2892,4.2892,4.2892,4.2892,4.2892,4.2892,4.2892,4.2892,4.2892,4.2892,4.2892,4.2892,4.2892,4.2892,4.2892,4.2892,4.2892,4.2892,4.2892,4.2892,4.2892,4.2892,4.2892,4.2892,4.2892,4.2901,4.2929,4.2929,4.2938,4.3003,4.3114,4.3114,4.3151,4.3233,4.3349,4.3314,4.3242,4.3367,4.3421,4.3421,4.3421,4.3445,4.3506,4.3506,4.3506,4.3506,4.3506,4.3561,4.3828,4.4553,4.4755,4.503,4.5773,4.5957,4.603,4.6104,4.6737,4.7204,4.7204,4.7856,4.8296,4.8296,4.8296,4.8296,4.8296,4.8296,4.8296,4.8296,4.8296,4.8296,4.8296,4.8296,4.8296,4.8296,4.8296,4.8296,4.8296,4.8296,4.8296,4.8296,4.8296,4.8325,2.1502,2.3935,2.6976,3.0194,3.3636,3.6824,3.9124,4.0085,4.0954,4.2566,4.2765,4.2692,4.2873,4.2765,4.271,4.2873,4.2892,4.2892,4.2892,4.2892,4.2892,4.2892,4.2892,4.2892,4.2892,4.2892,4.2892,4.2892,4.2892,4.2892,4.2892,4.2892,4.2892,4.2892,4.2892,4.2892,4.2892,4.2892,4.2892,4.2892,4.2892,4.2892,4.2892,4.2892,4.2892,4.2892,4.2892,4.2892,4.2892,4.2892,4.2892,4.2892,4.2892,4.2892,4.2901,4.303,4.3049,4.3058,4.3123,4.3142,4.3178,4.3178,4.3187,4.3233,4.3349,4.3385,4.3367,4.3454,4.348,4.348,4.348,4.3497,4.3506,4.3506,4.3506,4.3506,4.3506,4.3993,4.448,4.4663,4.5214,4.57,4.5865,4.6425,4.7067,4.77,4.7929,4.8039,4.8039,4.8186,4.8296,4.8296,4.8296,4.8296,4.8296,4.8296,4.8296,4.8296,4.8296,4.8296,4.8296,4.8296,4.8296,4.8296,4.8296,4.8296,4.8296,4.8296,4.8296,4.8296,4.8296,4.843,2.1697,2.4659,2.8316,3.2306,3.5157,3.743,3.9034,3.9695,4.0419,4.1995,4.2638,4.2892,4.2892,4.2892,4.2892,4.2892,4.2892,4.2892,4.2892,4.2892,4.2892,4.2892,4.2892,4.2892,4.2892,4.2892,4.2892,4.2892,4.2892,4.2892,4.2892,4.2892,4.2892,4.2892,4.2892,4.2892,4.2892,4.2892,4.2892,4.2892,4.2892,4.2892,4.2892,4.2892,4.2892,4.2892,4.2892,4.2892,4.2892,4.2892,4.2938,4.2994,4.2994,4.3022,4.305,4.3114,4.3151,4.316,4.3187,4.3242,4.3305,4.3305,4.3313,4.3366,4.3437,4.3455,4.3464,4.3497,4.3506,4.3506,4.3506,4.3506,4.3598,4.3975,4.3781,4.3616,4.3993,4.4406,4.4938,4.5709,4.6186,4.659,4.6985,4.7397,4.7819,4.8241,4.8296,4.8296,4.8296,4.8296,4.8296,4.8296,4.8296,4.8296,4.8296,4.8296,4.8296,4.8296,4.8296,4.8296,4.8296,4.8296,4.8296,4.8296,4.8296,4.8296,4.8296,4.8296,4.8296,4.8306,4.8458,4.8632,2.1534,2.5269,2.9722,3.441,3.629,3.7393,3.8852,3.9305,3.9767,4.1044,4.204,4.2747,4.2873,4.2892,4.2892,4.2892,4.2892,4.2892,4.2892,4.2892,4.2892,4.2892,4.2892,4.2892,4.2892,4.2892,4.2892,4.2892,4.2892,4.2892,4.2892,4.2892,4.2892,4.2892,4.2892,4.2892,4.2892,4.2892,4.2892,4.2892,4.2892,4.2892,4.2892,4.2892,4.2892,4.2892,4.2892,4.2892,4.2892,4.2892,4.2984,4.3095,4.3095,4.3142,4.3196,4.3233,4.3233,4.3242,4.326,4.3313,4.3429,4.3429,4.3445,4.3506,4.3506,4.3506,4.3506,4.3506,4.3506,4.3524,4.3671,4.3708,4.3901,4.4727,4.4397,4.4093,4.4755,4.5012,4.5507,4.6837,4.7204,4.7516,4.8186,4.8296,4.8296,4.8296,4.8296,4.8296,4.8296,4.8296,4.8296,4.8296,4.8296,4.8296,4.8296,4.8296,4.8296,4.8296,4.8296,4.8296,4.8296,4.8296,4.8296,4.8296,4.8296,4.8296,4.8296,4.8296,4.8335,4.8392,4.8676,4.8857,1.937,2.3989,2.9595,3.373,3.5892,3.7249,3.8146,3.8907,3.9468,3.9659,4.0872,4.2076,4.2765,4.2892,4.2892,4.2892,4.2892,4.2892,4.2892,4.2892,4.2892,4.2892,4.2892,4.2892,4.2892,4.2892,4.2892,4.2892,4.2892,4.2892,4.2892,4.2892,4.2892,4.2892,4.2892,4.2892,4.2892,4.2892,4.2892,4.2892,4.2892,4.2892,4.2892,4.2892,4.2892,4.2892,4.2892,4.2892,4.2892,4.2892,4.2984,4.3095,4.3095,4.3142,4.3205,4.3331,4.3367,4.3376,4.3437,4.348,4.3489,4.3489,4.3497,4.3506,4.3506,4.3506,4.3506,4.3506,4.3506,4.3653,4.4351,4.4535,4.4737,4.5553,4.5663,4.5608,4.5718,4.6296,4.6837,4.7058,4.7672,4.8168,4.8278,4.8296,4.8296,4.8296,4.8296,4.8296,4.8296,4.8296,4.8296,4.8296,4.8296,4.8296,4.8296,4.8296,4.8296,4.8296,4.8296,4.8296,4.8296,4.8296,4.8296,4.8296,4.8296,4.8296,4.8296,4.8296,4.8439,4.8729,4.8781,4.9105,2.1398,2.4786,2.8334,3.2806,3.4461,3.5429,3.714,3.781,3.8309,3.9215,3.993,4.0773,4.1995,4.2221,4.2375,4.2837,4.2892,4.2892,4.2892,4.2892,4.2892,4.2892,4.2892,4.2892,4.2892,4.2892,4.2892,4.2892,4.2892,4.2892,4.2892,4.2892,4.2892,4.2892,4.2892,4.2892,4.2892,4.2892,4.2892,4.2892,4.2892,4.2892,4.2892,4.2892,4.2892,4.2892,4.2892,4.2892,4.2892,4.2892,4.2994,4.316,4.316,4.3242,4.3384,4.3428,4.3464,4.3454,4.3497,4.3506,4.3506,4.3506,4.3506,4.3506,4.3506,4.3506,4.3506,4.3506,4.3809,4.425,4.4608,4.503,4.559,4.6388,4.6571,4.67,4.715,4.7177,4.7223,4.7691,4.8058,4.8296,4.8296,4.8296,4.8296,4.8296,4.8296,4.8296,4.8296,4.8296,4.8296,4.8296,4.8296,4.8296,4.8296,4.8296,4.8296,4.8296,4.8296,4.8296,4.8296,4.8296,4.8296,4.8296,4.8296,4.8392,4.8577,4.8577,4.8755,4.908,4.9271,4.9512,2.2229,2.4414,2.6162,3.0978,3.2643,3.3665,3.5882,3.6705,3.7339,3.8544,3.8943,3.9523,4.0863,4.127,4.166,4.2466,4.2592,4.2674,4.2873,4.2892,4.2892,4.2892,4.2892,4.2892,4.2892,4.2892,4.2892,4.2892,4.2892,4.2892,4.2892,4.2892,4.2892,4.2892,4.2892,4.2892,4.2892,4.2892,4.2892,4.2892,4.2892,4.2892,4.2892,4.2892,4.2892,4.2892,4.2892,4.2892,4.2892,4.2892,4.3022,4.3205,4.3205,4.3313,4.3506,4.3506,4.3506,4.3506,4.3506,4.3506,4.3506,4.3506,4.3506,4.3506,4.3506,4.3506,4.3506,4.3506,4.4085,4.4755,4.4938,4.5608,4.6406,4.7204,4.7388,4.7571,4.8168,4.7838,4.7581,4.8186,4.8296,4.8296,4.8296,4.8296,4.8296,4.8296,4.8296,4.8296,4.8296,4.8296,4.8296,4.8296,4.8296,4.8296,4.8296,4.8296,4.8296,4.8296,4.8296,4.8296,4.8296,4.8296,4.8296,4.8296,4.8383,4.8559,4.8807,4.8883,4.9097,4.9439,4.9688,4.985,1.9309,2.1184,2.2885,2.7658,3.0561,3.2687,3.4345,3.59,3.7013,3.7104,3.7738,3.8508,3.9351,4.0093,4.0827,4.1632,4.1759,4.2022,4.2783,4.2892,4.2892,4.2892,4.2892,4.2892,4.2892,4.2892,4.2892,4.2892,4.2892,4.2892,4.2892,4.2892,4.2892,4.2892,4.2892,4.2892,4.2892,4.2892,4.2892,4.2892,4.2892,4.2892,4.2892,4.2892,4.2892,4.2892,4.2892,4.2892,4.2892,4.2892,4.3022,4.3205,4.3205,4.3313,4.3506,4.3506,4.3506,4.3506,4.3506,4.3506,4.3506,4.3506,4.3506,4.3506,4.3506,4.3506,4.3506,4.3506,4.4085,4.4883,4.5645,4.6425,4.7241,4.8039,4.8241,4.8241,4.8296,4.826,4.8241,4.8296,4.8296,4.8296,4.8296,4.8296,4.8296,4.8296,4.8296,4.8296,4.8296,4.8296,4.8296,4.8296,4.8296,4.8296,4.8296,4.8296,4.8296,4.8296,4.8296,4.8296,4.8296,4.8296,4.8296,4.8296,4.8614,4.8781,4.8807,4.9121,4.9453,4.9764,4.9778,4.9968,1.8062,2.0117,2.2272,2.5485,2.7719,2.9681,3.1799,3.352,3.4976,3.6019,3.6878,3.7683,3.8472,3.9269,4.003,4.0809,4.0926,4.1198,4.2022,4.213,4.2321,4.2837,4.2892,4.2892,4.2892,4.2892,4.2892,4.2892,4.2892,4.2892,4.2892,4.2892,4.2892,4.2892,4.2892,4.2892,4.2892,4.2892,4.2892,4.2892,4.2892,4.2892,4.2892,4.2892,4.2892,4.2892,4.2892,4.2892,4.2892,4.2892,4.2985,4.3142,4.3178,4.3295,4.3437,4.3489,4.3506,4.3506,4.3506,4.3506,4.3506,4.3506,4.3506,4.3506,4.3506,4.3506,4.3506,4.3506,4.4452,4.5535,4.5828,4.6883,4.7948,4.8223,4.8296,4.8296,4.8296,4.8296,4.8296,4.8296,4.8296,4.8296,4.8296,4.8296,4.8296,4.8296,4.8296,4.8296,4.8296,4.8296,4.8296,4.8296,4.8296,4.8296,4.8296,4.8296,4.8296,4.8296,4.8296,4.8402,4.8614,4.8623,4.8623,4.8623,4.9161,4.934,4.9121,4.9461,4.9784,5.0126,5.0126,5.0194,1.6856,1.8746,2.1014,2.3609,2.506,2.6674,2.9895,3.144,3.2723,3.4617,3.5639,3.6516,3.7611,3.8218,3.8925,3.9958,4.0121,4.0392,4.118,4.1288,4.1497,4.2031,4.2321,4.2502,4.2502,4.2747,4.2892,4.2892,4.2892,4.2892,4.2892,4.2892,4.2892,4.2892,4.2892,4.2892,4.2892,4.2892,4.2892,4.2892,4.2892,4.2892,4.2892,4.2892,4.2929,4.2975,4.2975,4.2938,4.2901,4.2947,4.3031,4.3142,4.3224,4.334,4.3437,4.348,4.3506,4.3506,4.3506,4.3506,4.3506,4.3506,4.3506,4.3506,4.3506,4.3506,4.3506,4.3506,4.4663,4.5902,4.5902,4.7095,4.8296,4.8296,4.8296,4.8296,4.8296,4.8296,4.8296,4.8296,4.8296,4.8296,4.8296,4.8296,4.8296,4.8296,4.8296,4.8296,4.8296,4.8296,4.8296,4.8296,4.8296,4.8296,4.8296,4.8296,4.8296,4.8296,4.8411,4.8578,4.879,4.8908,4.8976,4.8976,4.9512,4.9695,4.9476,4.9791,5.0076,5.0302,5.0302,5.0449,0.0,0.0,0.0,2.1945,2.268,2.3917,2.8651,2.9685,3.0364,3.2795,3.3936,3.5005,3.6633,3.6941,3.7484,3.907,3.936,3.9623,4.0356,4.0474,4.0483,4.0501,4.118,4.1669,4.1705,4.2411,4.2873,4.2892,4.2892,4.2892,4.2892,4.2892,4.2892,4.2892,4.2892,4.2892,4.2892,4.2892,4.2892,4.2892,4.2901,4.2919,4.2919,4.2901,4.2984,4.3104,4.3104,4.303,4.2929,4.3049,4.3142,4.3205,4.3349,4.3437,4.3506,4.3506,4.3506,4.3506,4.3506,4.3506,4.3506,4.3506,4.3506,4.3506,4.3506,4.3506,4.3506,4.3506,4.4663,4.5902,4.5957,4.7131,4.8296,4.8296,4.8296,4.8296,4.8296,4.8296,4.8296,4.8296,4.8296,4.8296,4.8296,4.8296,4.8296,4.8296,4.8296,4.8296,4.8296,4.8296,4.8296,4.8296,4.8296,4.8296,4.8296,4.8296,4.8296,4.8296,4.8614,4.8807,4.8816,4.9137,4.9306,4.9306,4.9634,4.9817,4.981,5.0138,5.0302,5.0302,5.034,5.0793,1.6035,0.0,0.0,0.0,0.0,0.0,2.5061,2.6063,2.7313,3.026,3.1511,3.2716,3.486,3.5747,3.6472,3.7502,3.8146,3.8816,3.9586,3.9695,3.9894,4.0447,4.07,4.1053,4.1632,4.1904,4.2266,4.2855,4.2892,4.2892,4.2892,4.2892,4.2892,4.2892,4.2892,4.2892,4.2892,4.2892,4.2892,4.2892,4.2994,4.304,4.3049,4.3078,4.3151,4.3169,4.3169,4.3151,4.3114,4.316,4.3178,4.3205,4.3349,4.3402,4.3429,4.348,4.3506,4.3506,4.3506,4.3506,4.3506,4.3506,4.3506,4.3506,4.3506,4.3506,4.3506,4.3506,4.4663,4.6177,4.7333,4.7976,4.8296,4.8296,4.8296,4.8296,4.8296,4.8296,4.8296,4.8296,4.8296,4.8296,4.8296,4.8296,4.8296,4.8296,4.8296,4.8296,4.8296,4.8296,4.8296,4.8296,4.8296,4.8296,4.8296,4.8296,4.8296,4.8296,4.8614,4.8908,4.9161,4.9483,4.9667,4.9667,4.9987,5.0044,4.981,5.0138,5.0302,5.0321,5.0946,5.1671,1.7688,1.8929,2.0623,2.0758,0.0,0.0,2.4363,2.4611,2.5102,2.8282,2.9318,3.0371,3.274,3.3568,3.4355,3.5849,3.6484,3.7277,3.8698,3.8907,3.907,3.9496,3.9831,4.0247,4.0727,4.108,4.1633,4.2468,4.2523,4.2668,4.2966,4.2929,4.2892,4.2892,4.2892,4.2892,4.2892,4.2965,4.2984,4.2984,4.3095,4.3142,4.3142,4.3178,4.3233,4.3277,4.3277,4.3295,4.3331,4.3331,4.3313,4.3286,4.3402,4.3446,4.3455,4.3489,4.3506,4.3506,4.3506,4.3506,4.3506,4.3506,4.3506,4.3506,4.3506,4.3506,4.3506,4.3506,4.4663,4.6269,4.7884,4.8296,4.8296,4.8296,4.8296,4.8296,4.8296,4.8296,4.8296,4.8296,4.8296,4.8296,4.8296,4.8296,4.8296,4.8296,4.8296,4.8296,4.8296,4.8296,4.8296,4.8296,4.8296,4.8296,4.8296,4.8296,4.8354,4.8504,4.8815,4.9161,4.9498,4.983,5.0019,5.0019,5.0206,5.0206,5.0019,5.0193,5.0493,5.085,5.1366,5.2225,1.9925,2.0344,2.1365,2.2569,2.1407,0.0,2.5055,2.4333,2.3626,2.649,2.7067,2.779,3.0212,3.074,3.1566,3.3901,3.4429,3.5369,3.7743,3.808,3.8108,3.8199,3.8851,3.934,3.9489,4.0151,4.0949,4.181,4.1947,4.2285,4.2941,4.2949,4.2929,4.2929,4.2929,4.2929,4.2929,4.3058,4.3114,4.3114,4.3196,4.3224,4.3233,4.3223,4.3295,4.3421,4.3421,4.3446,4.3506,4.3506,4.3454,4.3429,4.348,4.3506,4.3506,4.3506,4.3506,4.3506,4.3506,4.3506,4.3506,4.3506,4.3506,4.3506,4.3506,4.3506,4.3543,4.3726,4.4809,4.6269,4.7884,4.8296,4.8296,4.8296,4.8296,4.8296,4.8296,4.8296,4.8296,4.8296,4.8296,4.8296,4.8296,4.8296,4.8296,4.8296,4.8296,4.8296,4.8296,4.8296,4.8296,4.8296,4.8296,4.8316,4.8345,4.8325,4.8449,4.8823,4.9137,4.9453,4.9797,5.0126,5.0302,5.0302,5.0302,5.0359,5.0436,5.0436,5.0831,5.1595,5.1786,5.269,2.1021,2.1951,2.3277,2.2276,2.313,0.0,2.2955,2.2845,2.3129,2.3703,2.3765,2.447,2.6891,2.7869,2.8883,3.0644,3.2017,3.3923,3.6968,3.735,3.7556,3.821,3.8419,3.8773,3.9435,3.9693,4.0153,4.0981,4.1628,4.2066,4.2203,4.2805,4.3133,4.3133,4.3133,4.3133,4.3133,4.3169,4.3178,4.3178,4.3305,4.3349,4.3358,4.3419,4.3463,4.348,4.348,4.3489,4.3506,4.3506,4.3497,4.348,4.3479,4.3506,4.3506,4.3506,4.3506,4.3506,4.3506,4.3506,4.3506,4.3506,4.3506,4.3506,4.3506,4.3506,4.3763,4.5066,4.5663,4.6269,4.7884,4.8296,4.8296,4.8296,4.8296,4.8296,4.8296,4.8296,4.8296,4.8296,4.8296,4.8296,4.8296,4.8296,4.8296,4.8296,4.8296,4.8296,4.8296,4.8296,4.8296,4.8296,4.8296,4.8411,4.8685,4.8467,4.8559,4.915,4.9252,4.9453,4.9797,5.0126,5.0302,5.0302,5.0302,5.0646,5.1347,5.1347,5.1423,5.1633,5.297,5.3829,2.3212,2.3857,2.4959,2.4594,2.4716,0.0,0.0,2.3644,2.3221,2.3991,2.3477,2.3636,2.6059,2.6176,2.656,2.8582,2.9929,3.141,3.3428,3.5356,3.67,3.7101,3.7155,3.748,3.8322,3.8425,3.8984,4.0258,4.1029,4.1643,4.2081,4.243,4.2786,4.3187,4.3205,4.3205,4.3205,4.326,4.3305,4.3305,4.3411,4.3455,4.3455,4.3489,4.3506,4.3506,4.3506,4.3506,4.3506,4.3506,4.3506,4.3506,4.3506,4.3506,4.3506,4.3506,4.3506,4.3506,4.3506,4.3506,4.3506,4.3506,4.3506,4.3506,4.3506,4.3506,4.3836,4.5443,4.5902,4.6269,4.7884,4.8296,4.8296,4.8296,4.8296,4.8296,4.8296,4.8296,4.8296,4.8296,4.8296,4.8296,4.8296,4.8296,4.8296,4.8296,4.8296,4.8296,4.8296,4.8296,4.8296,4.8296,4.8439,4.8614,4.879,4.8797,4.9015,4.952,4.9549,4.9702,5.0038,5.0218,5.0302,5.0302,5.0735,5.1156,5.1595,5.2435,5.2856,5.2881,5.374,5.4382,2.5652,2.588,2.6594,2.6985,2.6347,2.5685,0.0,0.0,0.0,2.453,2.368,2.3414,2.5524,2.4845,2.4612,2.6563,2.7818,2.8712,2.9219,3.2251,3.4579,3.5038,3.5366,3.5834,3.6548,3.6625,3.7403,3.9302,3.98,4.052,4.1691,4.1944,4.2356,4.3013,4.3177,4.3269,4.3269,4.3367,4.3411,4.3411,4.3471,4.3506,4.3506,4.3506,4.3506,4.3506,4.3506,4.3506,4.3506,4.3506,4.3506,4.3506,4.3506,4.3506,4.3506,4.3506,4.3506,4.3506,4.3506,4.3506,4.3506,4.3506,4.3506,4.3506,4.3506,4.3616,4.4038,4.548,4.6012,4.6471,4.7911,4.8296,4.8296,4.8296,4.8296,4.8296,4.8296,4.8296,4.8296,4.8296,4.8296,4.8296,4.8296,4.8296,4.8296,4.8296,4.8296,4.8296,4.8296,4.8363,4.8402,4.8402,4.8693,4.8925,4.8992,4.9185,4.9476,4.9864,4.9837,4.9955,5.029,5.0302,5.0378,5.0544,5.1232,5.1767,5.2073,5.3447,5.4116,5.4104,5.4325,5.4782,2.7687,2.8042,2.8331,2.6998,2.8123,2.8487,2.4375,0.0,2.4566,2.2606,0.0,2.223,2.3231,0.0,0.0,2.3501,2.5414,2.6667,2.6035,2.7556,2.9496,3.1592,3.3084,3.4004,3.4102,3.4167,3.5195,3.7584,3.7184,3.78,4.0039,4.149,4.2307,4.2399,4.3086,4.3471,4.3471,4.3489,4.3489,4.3489,4.3506,4.3506,4.3506,4.3506,4.3506,4.3506,4.3506,4.3506,4.3506,4.3506,4.3506,4.3506,4.3506,4.3506,4.3506,4.3506,4.3506,4.3506,4.3506,4.3506,4.3506,4.3506,4.3506,4.3506,4.3506,4.3993,4.4755,4.5645,4.6406,4.7177,4.8076,4.8296,4.8296,4.8296,4.8296,4.8296,4.8296,4.8296,4.8296,4.8296,4.8296,4.8296,4.8296,4.8296,4.8296,4.8296,4.8296,4.8296,4.8296,4.8569,4.8737,4.8737,4.904,4.9371,4.9667,4.9453,4.957,5.0206,4.9961,4.9955,5.029,5.0302,5.0665,5.1442,5.1557,5.2321,5.3817,5.407,5.4166,5.4123,5.4899,5.5336,2.8408,2.9391,3.035,2.8731,2.901,2.8902,2.594,2.4967,2.4548,2.4002,0.0,0.0,0.0,0.0,0.0,0.0,2.385,2.4222,2.3428,2.4695,2.6767,2.9636,3.0149,3.0833,3.2232,3.2808,3.3733,3.5245,3.5043,3.5925,3.8374,4.0037,4.1332,4.2268,4.3084,4.3506,4.3506,4.3506,4.3506,4.3506,4.3506,4.3506,4.3506,4.3506,4.3506,4.3506,4.3506,4.3506,4.3506,4.3506,4.3506,4.3506,4.3506,4.3506,4.3506,4.3506,4.3506,4.3506,4.3506,4.3506,4.3506,4.3506,4.3506,4.3506,4.3506,4.4066,4.4865,4.5663,4.648,4.7278,4.8095,4.8296,4.8296,4.8296,4.8296,4.8296,4.8296,4.8296,4.8296,4.8296,4.8296,4.8296,4.8296,4.8296,4.8296,4.8296,4.8476,4.8586,4.8586,4.8883,4.9089,4.9089,4.9394,4.9653,4.9797,4.985,4.9993,5.0284,5.0162,5.015,5.0296,5.0302,5.0703,5.1576,5.2059,5.2899,5.4166,5.4649,5.4897,5.4928,5.5333,5.5533,2.984,3.0948,3.2002,2.9943,2.9338,2.8677,2.6622,2.5489,2.491,2.5044,2.4483,0.0,0.0,0.0,2.2767,2.268,0.0,2.2978,2.1941,2.2597,2.4222,2.7024,2.7414,2.8251,3.0216,3.0736,3.1561,3.3036,3.2724,3.3862,3.6997,3.8495,4.0073,4.1911,4.2745,4.3286,4.3506,4.3506,4.3506,4.3506,4.3506,4.3506,4.3506,4.3506,4.3506,4.3506,4.3506,4.3506,4.3506,4.3506,4.3506,4.3506,4.3506,4.3506,4.3506,4.3506,4.3506,4.3506,4.3506,4.3506,4.3506,4.3506,4.3506,4.3543,4.3763,4.4397,4.5195,4.6003,4.681,4.7562,4.815,4.8296,4.8296,4.8296,4.8296,4.8296,4.8296,4.8296,4.8335,4.843,4.8448,4.8467,4.8559,4.8504,4.8448,4.8448,4.872,4.8942,4.8942,4.9232,4.9446,4.9446,4.9737,4.9942,4.9942,5.0156,5.0302,5.0302,5.0302,5.0302,5.0302,5.0531,5.106,5.1901,5.2766,5.3624,5.4527,5.5157,5.548,5.5527,5.5579,5.5596,3.2694,3.3092,3.2982,2.9818,2.8998,2.8172,2.5012,2.5443,2.6093,2.4557,2.5438,2.602,2.452,2.4805,2.4535,2.2216,2.3148,0.0,0.0,2.1125,2.1259,2.2988,2.5231,2.6974,2.7829,2.7236,2.8099,3.1244,3.0038,3.1268,3.609,3.7118,3.8678,4.1067,4.1919,4.2708,4.3488,4.3506,4.3506,4.3506,4.3506,4.3506,4.3506,4.3506,4.3506,4.3506,4.3506,4.3506,4.3506,4.3506,4.3506,4.3506,4.3506,4.3506,4.3506,4.3506,4.3506,4.3506,4.3506,4.3506,4.3506,4.3506,4.3506,4.3653,4.4425,4.5223,4.603,4.6847,4.7636,4.826,4.8296,4.8296,4.8296,4.8296,4.8296,4.8296,4.8296,4.8296,4.8402,4.8711,4.879,4.8883,4.9206,4.899,4.879,4.879,4.9064,4.9276,4.9276,4.957,4.9778,4.9778,5.0082,5.029,5.029,5.0296,5.0302,5.0302,5.0302,5.0302,5.0302,5.1117,5.1945,5.2753,5.3674,5.4546,5.5363,5.5514,5.559,5.5596,5.5596,5.5596,3.427,3.5202,3.5466,3.2197,3.0974,2.9751,2.6515,2.6612,2.6796,2.463,2.5897,2.6893,2.5283,2.4787,2.4341,2.3515,2.34,2.2827,0.0,2.0694,2.0914,2.2065,2.3859,2.4905,2.4644,2.5351,2.6471,2.8099,2.8712,3.0418,3.3672,3.6163,3.8366,4.0249,4.1607,4.269,4.3488,4.3506,4.3506,4.3506,4.3506,4.3506,4.3506,4.3506,4.3506,4.3506,4.3506,4.3506,4.3506,4.3506,4.3506,4.3506,4.3506,4.3506,4.3506,4.3506,4.3506,4.3506,4.3506,4.3506,4.3506,4.3506,4.3873,4.4342,4.4626,4.5636,4.6755,4.7021,4.7691,4.8296,4.8296,4.8296,4.8296,4.8296,4.8296,4.8296,4.8296,4.8296,4.8402,4.8729,4.8807,4.8908,4.9229,4.9394,4.9386,4.9169,4.9416,4.962,4.962,4.991,5.0138,5.0138,5.023,5.0302,5.0302,5.0302,5.0302,5.0302,5.0302,5.0302,5.0302,5.1137,5.1983,5.2792,5.3713,5.4628,5.5468,5.5556,5.5618,5.5676,5.5676,5.5676,3.5536,3.645,3.6776,3.3788,3.2632,3.1335,2.7824,2.786,2.7976,2.5548,2.6282,2.7236,2.6764,2.5553,2.4635,2.4635,2.3712,2.2309,0.0,2.0588,2.096,2.0913,2.2597,2.3671,2.3451,2.3846,2.4695,2.6062,2.6864,2.8712,3.2002,3.4713,3.732,3.9816,4.1185,4.2396,4.3488,4.3506,4.3506,4.3506,4.3506,4.3506,4.3506,4.3506,4.3506,4.3506,4.3506,4.3506,4.3506,4.3506,4.3506,4.3506,4.3506,4.3506,4.3506,4.3506,4.3506,4.3506,4.3506,4.3506,4.3543,4.3828,4.4287,4.481,4.5379,4.6269,4.7168,4.7443,4.7911,4.8296,4.8296,4.8296,4.8335,4.8439,4.8477,4.8514,4.8622,4.8649,4.8745,4.908,4.9172,4.9263,4.9592,4.9837,4.9864,4.9527,4.9757,4.9974,4.9974,5.0162,5.0302,5.0302,5.0302,5.0302,5.0302,5.0302,5.0302,5.0302,5.0302,5.0302,5.0302,5.141,5.2282,5.2828,5.4036,5.4957,5.5539,5.5596,5.5671,5.5708,5.5708,5.5708]}]]